[[{"header":{"parameterUnit":"m.s-1","parameterCategory":1,"la1":30.6,"la2":29.2853,"lo1":-89.7004,"lo2":-87.6739,"dy":0.0162,"dx":0.0183,"nx":112,"ny":82,"refTime":"2026-04-22T00:00:00:Z","depth":0,"parameterNumber":2,"parameterNumberName":"U-component_of_WINDS"},"data":[0.0,0.0,0.0,0.0,0.0,0.0,0.0,0.0,0.0,0.0,0.0,0.0,0.0,0.0,0.0,0.0,0.0,0.0,0.0,0.0,0.0,0.0,0.0,0.0,0.0,0.0,0.0,0.0,0.0,0.0,0.0,0.0,0.0,0.0,0.0,0.0,0.0,0.0,0.0,0.0,0.0,0.0,0.0,0.0,0.0,0.0,0.0,0.0,0.0,0.0,0.0,0.0,0.0,0.0,0.0,0.0,0.0,0.0,0.0,0.0,0.0,0.0,0.0,0.0,0.0,0.0,0.0,0.0,0.0,0.0,0.0,0.0,0.0,0.0,0.0,0.0,0.0,0.0,0.0,0.0,0.0,0.0,0.0,0.0,0.0,0.0,0.0,0.0,0.0,0.0,-3.2916,-3.7732,-4.3368,-4.6323,-4.5242,-4.2091,-3.8701,-3.5308,0.0,0.0,0.0,0.0,0.0,0.0,0.0,0.0,0.0,0.0,0.0,0.0,0.0,0.0,0.0,0.0,0.0,0.0,0.0,0.0,0.0,0.0,0.0,0.0,0.0,0.0,0.0,0.0,0.0,0.0,0.0,0.0,0.0,0.0,0.0,0.0,0.0,0.0,0.0,0.0,0.0,0.0,0.0,0.0,0.0,0.0,0.0,0.0,0.0,0.0,0.0,0.0,0.0,0.0,0.0,0.0,0.0,0.0,0.0,0.0,0.0,0.0,0.0,0.0,0.0,0.0,0.0,0.0,0.0,0.0,0.0,0.0,0.0,0.0,0.0,0.0,0.0,0.0,0.0,0.0,0.0,0.0,0.0,0.0,0.0,0.0,0.0,0.0,0.0,0.0,0.0,0.0,0.0,0.0,0.0,0.0,0.0,0.0,0.0,0.0,0.0,0.0,0.0,0.0,-3.5441,-4.2689,-4.6907,-4.828,-4.6024,-4.337,-4.0393,-3.7014,0.0,0.0,0.0,0.0,0.0,0.0,0.0,0.0,0.0,0.0,0.0,0.0,0.0,0.0,0.0,0.0,0.0,0.0,0.0,0.0,0.0,0.0,0.0,0.0,0.0,0.0,0.0,0.0,0.0,0.0,0.0,0.0,0.0,0.0,0.0,0.0,0.0,0.0,0.0,0.0,0.0,0.0,0.0,0.0,0.0,0.0,0.0,0.0,0.0,0.0,0.0,0.0,0.0,0.0,0.0,0.0,0.0,0.0,0.0,0.0,0.0,0.0,0.0,0.0,0.0,0.0,0.0,0.0,0.0,0.0,0.0,0.0,0.0,0.0,0.0,0.0,0.0,0.0,0.0,0.0,0.0,0.0,0.0,0.0,0.0,0.0,0.0,0.0,0.0,0.0,0.0,0.0,0.0,0.0,0.0,0.0,0.0,0.0,0.0,0.0,0.0,0.0,0.0,-3.5127,-4.0462,-4.5409,-4.8612,-4.9409,-4.6907,-4.3927,-4.058,-3.675,-3.1352,0.0,0.0,0.0,0.0,0.0,0.0,0.0,0.0,0.0,0.0,0.0,0.0,0.0,0.0,0.0,0.0,0.0,0.0,0.0,0.0,0.0,0.0,0.0,0.0,0.0,0.0,0.0,0.0,0.0,0.0,0.0,0.0,0.0,0.0,0.0,0.0,0.0,0.0,0.0,0.0,0.0,0.0,0.0,0.0,0.0,0.0,0.0,0.0,0.0,0.0,0.0,0.0,0.0,0.0,0.0,0.0,0.0,0.0,0.0,0.0,0.0,0.0,0.0,0.0,0.0,0.0,0.0,0.0,0.0,0.0,0.0,0.0,0.0,0.0,0.0,0.0,0.0,0.0,0.0,0.0,0.0,0.0,0.0,0.0,0.0,0.0,0.0,0.0,0.0,0.0,0.0,0.0,0.0,0.0,0.0,0.0,0.0,0.0,0.0,0.0,0.0,0.0,-4.0588,-4.4684,-4.7094,-4.9854,-5.0262,-4.7171,-4.3976,-4.0186,-3.5563,-3.0462,0.0,0.0,0.0,0.0,0.0,0.0,0.0,0.0,0.0,0.0,0.0,0.0,0.0,0.0,0.0,0.0,0.0,0.0,0.0,0.0,0.0,0.0,0.0,0.0,0.0,0.0,0.0,0.0,0.0,0.0,0.0,0.0,0.0,0.0,0.0,0.0,0.0,0.0,0.0,0.0,0.0,0.0,0.0,0.0,0.0,0.0,0.0,0.0,0.0,0.0,0.0,0.0,0.0,0.0,0.0,0.0,0.0,0.0,0.0,0.0,0.0,0.0,0.0,0.0,0.0,0.0,0.0,0.0,0.0,0.0,0.0,0.0,0.0,0.0,0.0,0.0,0.0,0.0,0.0,0.0,0.0,0.0,0.0,0.0,0.0,0.0,0.0,0.0,0.0,0.0,0.0,0.0,0.0,0.0,0.0,0.0,0.0,0.0,0.0,0.0,0.0,0.0,-4.2294,-4.6103,-4.7835,-5.1029,-5.1077,-4.6206,-4.3485,-3.9536,-3.3743,-2.8607,0.0,0.0,0.0,0.0,0.0,0.0,0.0,0.0,0.0,0.0,0.0,0.0,0.0,0.0,0.0,0.0,0.0,0.0,0.0,0.0,0.0,0.0,0.0,0.0,0.0,0.0,0.0,0.0,0.0,0.0,0.0,0.0,0.0,0.0,0.0,0.0,0.0,0.0,0.0,0.0,0.0,0.0,0.0,0.0,0.0,0.0,0.0,0.0,0.0,0.0,0.0,0.0,0.0,0.0,0.0,0.0,0.0,0.0,0.0,0.0,0.0,0.0,0.0,0.0,0.0,0.0,0.0,0.0,0.0,0.0,0.0,0.0,0.0,0.0,0.0,0.0,0.0,0.0,0.0,0.0,0.0,0.0,0.0,0.0,0.0,0.0,0.0,0.0,0.0,0.0,0.0,0.0,0.0,0.0,0.0,0.0,0.0,0.0,0.0,0.0,0.0,0.0,-4.2439,-4.624,-4.7932,-5.0654,-5.0568,-4.6095,-4.243,-3.809,-3.2682,0.0,0.0,0.0,0.0,0.0,0.0,0.0,0.0,0.0,0.0,0.0,0.0,0.0,0.0,0.0,0.0,0.0,0.0,0.0,0.0,0.0,0.0,0.0,0.0,0.0,0.0,0.0,0.0,0.0,0.0,0.0,0.0,0.0,0.0,0.0,0.0,0.0,0.0,0.0,0.0,0.0,0.0,0.0,0.0,0.0,0.0,0.0,0.0,0.0,0.0,0.0,0.0,0.0,0.0,0.0,0.0,0.0,0.0,0.0,0.0,0.0,0.0,0.0,0.0,0.0,0.0,0.0,0.0,0.0,0.0,0.0,0.0,0.0,0.0,0.0,0.0,0.0,0.0,0.0,0.0,0.0,0.0,0.0,0.0,0.0,0.0,0.0,0.0,0.0,0.0,0.0,0.0,0.0,0.0,0.0,0.0,0.0,0.0,0.0,0.0,0.0,0.0,-3.6815,-4.2277,-4.624,-4.7932,-5.0385,-5.0096,-4.5629,-4.1624,-3.707,-3.1692,0.0,0.0,0.0,0.0,0.0,0.0,0.0,0.0,0.0,0.0,0.0,0.0,0.0,0.0,0.0,0.0,0.0,0.0,0.0,0.0,0.0,0.0,0.0,0.0,0.0,0.0,0.0,0.0,0.0,0.0,0.0,0.0,0.0,0.0,0.0,0.0,0.0,0.0,0.0,0.0,0.0,0.0,0.0,0.0,0.0,0.0,0.0,0.0,0.0,0.0,0.0,0.0,0.0,0.0,0.0,0.0,0.0,0.0,0.0,0.0,0.0,0.0,0.0,0.0,0.0,0.0,0.0,0.0,0.0,0.0,0.0,0.0,0.0,0.0,0.0,0.0,0.0,0.0,0.0,0.0,0.0,0.0,0.0,0.0,0.0,0.0,0.0,0.0,0.0,0.0,0.0,0.0,0.0,0.0,0.0,0.0,0.0,0.0,0.0,0.0,0.0,0.0,-3.5962,-4.1893,-4.624,-4.7894,-5.0346,-4.9808,-4.4739,-4.12,-3.6738,0.0,0.0,0.0,0.0,0.0,0.0,0.0,0.0,0.0,0.0,0.0,0.0,0.0,0.0,0.0,0.0,0.0,0.0,0.0,0.0,0.0,0.0,0.0,0.0,0.0,0.0,0.0,0.0,0.0,0.0,0.0,0.0,0.0,0.0,0.0,0.0,0.0,0.0,0.0,0.0,0.0,0.0,0.0,0.0,0.0,0.0,0.0,0.0,0.0,0.0,0.0,0.0,0.0,0.0,0.0,0.0,0.0,0.0,0.0,0.0,0.0,0.0,0.0,0.0,0.0,0.0,0.0,0.0,0.0,0.0,0.0,0.0,0.0,0.0,0.0,0.0,0.0,0.0,0.0,0.0,0.0,0.0,0.0,0.0,0.0,0.0,0.0,0.0,0.0,0.0,0.0,0.0,0.0,0.0,0.0,0.0,0.0,0.0,0.0,0.0,0.0,0.0,0.0,-3.6853,-4.1739,-4.5355,-4.7086,-4.8423,-4.7894,-4.4586,-4.0662,-3.6353,-3.1621,0.0,0.0,0.0,0.0,0.0,0.0,0.0,0.0,0.0,0.0,0.0,0.0,0.0,0.0,0.0,0.0,0.0,0.0,0.0,0.0,0.0,0.0,0.0,0.0,0.0,0.0,0.0,0.0,0.0,0.0,0.0,0.0,0.0,0.0,0.0,0.0,0.0,0.0,0.0,0.0,0.0,0.0,0.0,0.0,0.0,0.0,0.0,0.0,0.0,0.0,0.0,0.0,0.0,0.0,0.0,0.0,0.0,0.0,0.0,0.0,0.0,0.0,0.0,0.0,0.0,0.0,0.0,0.0,0.0,0.0,0.0,0.0,0.0,0.0,0.0,0.0,0.0,0.0,0.0,0.0,0.0,0.0,0.0,0.0,0.0,0.0,0.0,0.0,0.0,0.0,0.0,0.0,0.0,0.0,0.0,0.0,0.0,0.0,0.0,0.0,0.0,0.0,-3.6738,-4.147,-4.497,-4.6692,-4.7317,-4.674,-4.447,-4.0739,-3.6699,-3.2468,0.0,0.0,0.0,0.0,0.0,0.0,0.0,0.0,0.0,0.0,0.0,0.0,0.0,0.0,0.0,0.0,0.0,0.0,0.0,0.0,0.0,0.0,0.0,0.0,0.0,0.0,0.0,0.0,0.0,0.0,0.0,0.0,0.0,0.0,0.0,0.0,0.0,0.0,0.0,0.0,0.0,0.0,0.0,0.0,0.0,0.0,0.0,0.0,0.0,0.0,0.0,0.0,0.0,0.0,0.0,0.0,0.0,0.0,0.0,0.0,0.0,0.0,0.0,0.0,0.0,0.0,0.0,0.0,0.0,0.0,0.0,0.0,0.0,0.0,0.0,0.0,0.0,0.0,0.0,0.0,0.0,0.0,0.0,0.0,0.0,0.0,0.0,0.0,0.0,0.0,0.0,0.0,0.0,0.0,0.0,0.0,0.0,0.0,0.0,0.0,0.0,0.0,-3.6038,-4.1123,-4.4855,-4.6586,-4.6701,-4.6009,-4.4316,-4.1162,-3.7514,-3.3276,0.0,0.0,0.0,0.0,0.0,0.0,0.0,0.0,0.0,0.0,0.0,0.0,0.0,0.0,0.0,0.0,0.0,0.0,0.0,0.0,0.0,0.0,0.0,0.0,0.0,0.0,0.0,0.0,0.0,0.0,0.0,0.0,0.0,0.0,0.0,0.0,0.0,0.0,0.0,0.0,0.0,0.0,0.0,0.0,0.0,0.0,0.0,0.0,0.0,0.0,0.0,0.0,0.0,0.0,0.0,0.0,0.0,0.0,0.0,0.0,-3.2275,-3.0188,0.0,0.0,0.0,0.0,0.0,0.0,0.0,0.0,0.0,0.0,0.0,0.0,0.0,0.0,0.0,0.0,0.0,0.0,0.0,0.0,0.0,0.0,0.0,0.0,0.0,0.0,0.0,0.0,0.0,0.0,0.0,0.0,0.0,0.0,0.0,0.0,0.0,0.0,0.0,0.0,-3.6887,-4.0992,-4.4008,-4.5701,-4.524,-4.4432,-4.3431,-4.0854,-3.7745,-3.4167,-2.9627,0.0,0.0,0.0,0.0,0.0,0.0,0.0,0.0,0.0,0.0,0.0,0.0,0.0,0.0,0.0,0.0,0.0,0.0,0.0,0.0,0.0,0.0,0.0,0.0,0.0,0.0,0.0,0.0,0.0,0.0,0.0,0.0,0.0,0.0,0.0,0.0,0.0,0.0,0.0,0.0,0.0,0.0,0.0,0.0,0.0,0.0,0.0,0.0,0.0,0.0,0.0,0.0,0.0,0.0,0.0,0.0,0.0,0.0,0.0,-3.7678,-3.5023,0.0,0.0,0.0,0.0,0.0,0.0,0.0,0.0,0.0,0.0,0.0,0.0,0.0,0.0,0.0,0.0,0.0,0.0,0.0,0.0,0.0,0.0,0.0,0.0,0.0,0.0,0.0,0.0,0.0,0.0,0.0,0.0,0.0,0.0,0.0,0.0,0.0,0.0,0.0,0.0,-3.7095,-4.0929,-4.3739,-4.5441,-4.447,-4.3547,-4.3124,-4.0739,-3.8007,-3.5007,-3.1237,0.0,0.0,0.0,0.0,0.0,0.0,0.0,0.0,0.0,0.0,0.0,0.0,0.0,0.0,0.0,0.0,0.0,0.0,0.0,0.0,0.0,0.0,0.0,0.0,0.0,0.0,0.0,0.0,0.0,0.0,0.0,0.0,0.0,0.0,0.0,0.0,0.0,0.0,0.0,0.0,0.0,0.0,0.0,0.0,0.0,0.0,0.0,0.0,0.0,0.0,0.0,0.0,0.0,-4.7851,-4.8749,-4.9999,-4.9569,-4.9716,-5.0067,-4.4972,-4.2066,-4.0848,-3.9708,0.0,0.0,0.0,0.0,0.0,0.0,0.0,0.0,0.0,0.0,0.0,0.0,0.0,0.0,0.0,0.0,0.0,0.0,0.0,0.0,0.0,0.0,-3.7231,-3.8931,-3.8161,-3.6308,-3.3615,0.0,0.0,0.0,0.0,0.0,0.0,0.0,0.0,0.0,0.0,0.0,-3.7236,-4.1072,-4.3868,-4.5414,-4.4068,-4.306,-4.3052,-4.0968,-3.8616,-3.6034,-3.307,-3.0189,0.0,0.0,0.0,0.0,0.0,0.0,0.0,0.0,0.0,0.0,0.0,0.0,0.0,0.0,0.0,0.0,0.0,0.0,0.0,0.0,0.0,0.0,0.0,0.0,0.0,0.0,0.0,0.0,0.0,0.0,0.0,0.0,-3.0461,-3.1483,0.0,0.0,0.0,0.0,0.0,0.0,0.0,0.0,0.0,0.0,0.0,0.0,0.0,-4.582,-4.7695,-5.0117,-5.1523,-5.1873,-5.4095,-5.4909,-5.4511,-5.5829,-5.6455,-5.6372,-5.5485,0.0,-4.6072,-4.423,0.0,0.0,0.0,0.0,0.0,0.0,0.0,0.0,0.0,0.0,0.0,0.0,0.0,0.0,0.0,0.0,0.0,0.0,0.0,0.0,0.0,0.0,-4.2508,-4.4209,-4.3855,-4.3201,-4.3517,-3.8892,-3.4577,-3.4385,-3.2352,-3.0098,0.0,0.0,0.0,0.0,0.0,0.0,-3.808,-4.1829,-4.4422,-4.5352,-4.3932,-4.2917,-4.2833,-4.1858,-4.01,-3.7577,-3.6269,-3.383,-2.9889,-2.7234,0.0,0.0,0.0,0.0,0.0,0.0,0.0,0.0,0.0,0.0,0.0,0.0,0.0,0.0,0.0,0.0,0.0,0.0,0.0,0.0,0.0,0.0,0.0,0.0,0.0,0.0,0.0,0.0,0.0,-3.0661,-3.3515,-3.4843,-3.5039,-3.4883,0.0,0.0,0.0,0.0,0.0,0.0,0.0,0.0,0.0,-4.8086,-5.0234,-5.2422,-5.4687,-5.6719,-5.8007,-5.8509,-5.9544,-6.0104,-6.0194,-6.085,-6.1139,-6.1085,-6.0926,-5.8922,-5.5354,-5.1066,-4.7509,-4.4393,0.0,0.0,0.0,0.0,-4.0046,-4.1354,-4.2585,-4.22,-4.0969,-3.9623,0.0,0.0,0.0,0.0,0.0,0.0,0.0,-3.7346,-4.1083,-4.3593,-4.5419,-4.6647,-4.6263,-4.5898,-4.6771,-4.429,-4.1346,-3.9423,-3.6969,-3.4358,-3.1555,-2.8103,0.0,0.0,0.0,-3.437,-3.8683,-4.2013,-4.4113,-4.4506,-4.3445,-4.2498,-4.195,-4.1434,-4.0236,-3.815,-3.7675,-3.5647,-3.1551,-2.9017,-2.5914,0.0,0.0,0.0,0.0,0.0,0.0,0.0,0.0,0.0,0.0,0.0,0.0,0.0,0.0,0.0,0.0,0.0,0.0,0.0,0.0,0.0,0.0,0.0,0.0,0.0,0.0,0.0,0.0,-3.4648,-3.7305,-3.9062,-3.9648,-3.9609,0.0,0.0,0.0,0.0,0.0,0.0,-4.7772,-4.8552,-5.0466,-5.3903,-5.5895,-5.7966,-6.0114,-6.1598,-6.2648,-6.3291,-6.3407,-6.3744,-6.4309,-6.4377,-6.445,-6.4402,-6.4289,-6.3757,-6.2495,-5.7037,-5.3049,-5.0048,-4.6663,-4.5355,-4.5355,-4.5355,-4.6278,-4.7663,-4.8548,-4.8279,-4.7278,-4.5586,-4.3008,-4.0354,-3.9046,0.0,0.0,0.0,0.0,-4.1261,-4.4344,-4.6186,-4.7475,-4.8356,-4.805,-4.7764,-4.845,-4.8068,-4.6586,-4.3393,-4.0893,-3.8239,-3.4902,-3.1483,0.0,-3.1781,-3.3359,-3.5661,-3.9388,-4.2314,-4.3977,-4.3786,-4.302,-4.2151,-4.1173,-4.0901,-4.0026,-3.8371,-3.8235,-3.6539,-3.2694,-3.0251,-2.7107,-2.3158,0.0,0.0,0.0,0.0,0.0,0.0,0.0,0.0,0.0,0.0,0.0,0.0,0.0,0.0,0.0,0.0,0.0,0.0,0.0,0.0,0.0,0.0,0.0,0.0,0.0,0.0,0.0,0.0,0.0,-4.4414,-4.6055,0.0,0.0,0.0,0.0,-4.7029,-4.9485,-5.1315,-5.2323,-5.4654,-5.6484,-5.7502,-6.0039,-6.1798,-6.2696,-6.3635,-6.4043,-6.4064,-6.4793,-6.5142,-6.5079,-6.5807,-6.6146,-6.6079,-6.6018,-6.5429,-6.4313,-6.07,-5.8127,-5.6214,-5.2779,-5.1462,-5.1462,-5.1462,-5.2038,-5.2933,-5.3818,-5.3549,-5.2549,-5.0856,-4.7471,-4.4047,-4.3932,-4.2124,0.0,0.0,-4.397,-4.4598,-4.7069,-4.8215,-4.8929,-4.9856,-5.0009,-4.9968,-5.021,-4.9747,-4.8509,-4.5902,-4.4008,-4.1959,-3.9179,0.0,-3.4569,-3.5356,-3.6683,-3.8292,-4.0296,-4.2937,-4.4348,-4.3504,-4.2772,-4.1917,-4.0929,-4.0701,-3.9898,-3.8215,-3.8091,-3.6643,-3.3381,-3.0979,-2.8156,-2.476,-2.2191,0.0,0.0,0.0,0.0,0.0,0.0,0.0,0.0,0.0,0.0,0.0,0.0,0.0,0.0,0.0,0.0,0.0,0.0,0.0,0.0,0.0,0.0,0.0,0.0,0.0,0.0,0.0,0.0,-4.8086,-5.0351,0.0,-5.0508,-5.0156,-5.0898,-5.3156,-5.5129,-5.7091,-5.9017,-5.9902,-6.1004,-6.2455,-6.339,-6.4291,-6.5153,-6.5465,-6.5589,-6.5512,-6.5724,-6.5773,-6.5732,-6.5947,-6.604,-6.5993,-6.5982,-6.5779,-6.5319,-6.3524,-6.1127,-5.8319,-5.5472,-5.4357,-5.4357,-5.4357,-5.4895,-5.578,-5.6626,-5.6011,-5.4434,-5.2202,-5.0087,-4.8317,-4.774,-4.6547,-4.5701,-4.7163,-4.7971,-4.8596,-4.9329,-4.993,-5.0279,-5.005,-4.9922,-4.9732,-4.9378,-4.9213,-4.8541,-4.6549,-4.5389,-4.4187,-4.2508,-3.9827,-3.8113,-3.8714,-3.8998,-3.9785,-4.1608,-4.2781,-4.3161,-4.237,-4.1563,-4.0699,-3.9727,-3.9495,-3.8884,-3.7775,-3.7221,-3.5536,-3.2321,-3.0441,-2.7923,-2.4679,-2.3229,-2.1346,0.0,0.0,0.0,0.0,0.0,0.0,0.0,0.0,0.0,0.0,0.0,0.0,0.0,0.0,0.0,0.0,0.0,0.0,0.0,0.0,0.0,0.0,0.0,0.0,0.0,-4.4648,-4.9414,-5.2031,-5.4608,-5.5819,-5.4958,-5.4879,-5.5536,-5.7231,-5.8556,-6.0144,-6.2118,-6.2115,-6.2723,-6.4175,-6.4524,-6.5069,-6.5931,-6.6242,-6.6314,-6.6265,-6.6148,-6.6077,-6.6074,-6.5933,-6.5897,-6.5897,-6.5897,-6.5897,-6.582,-6.4974,-6.3089,-6.0589,-5.8627,-5.7665,-5.7434,-5.7434,-5.778,-5.833,-5.8627,-5.7588,-5.5857,-5.4164,-5.3049,-5.2289,-5.1702,-5.0933,-5.0394,-5.0971,-5.1318,-5.147,-5.1277,-5.1155,-5.0903,-5.0298,-4.9776,-4.9227,-4.8607,-4.8403,-4.8019,-4.6915,-4.6515,-4.5812,-4.4156,-4.2424,-4.1193,-4.0887,-4.0769,-4.114,-4.2316,-4.2869,-4.2865,-4.2077,-4.1489,-4.068,-3.9431,-3.92,-3.8542,-3.7199,-3.6303,-3.4448,-3.1285,-2.9698,-2.7462,-2.4502,-2.3359,-2.1835,-1.9834,0.0,0.0,0.0,0.0,0.0,0.0,0.0,0.0,0.0,0.0,0.0,0.0,0.0,0.0,0.0,0.0,0.0,0.0,0.0,0.0,0.0,0.0,0.0,-4.3594,-4.9023,-5.3828,-5.6403,-5.8976,-6.0179,-5.931,-5.9183,-5.9156,-5.9096,-5.9752,-6.0466,-6.1303,-6.1229,-6.1608,-6.246,-6.3313,-6.4166,-6.4981,-6.5863,-6.6283,-6.6175,-6.6162,-6.6074,-6.5996,-6.5935,-6.5897,-6.5897,-6.5897,-6.5897,-6.582,-6.4974,-6.4128,-6.3243,-6.2397,-6.1562,-6.0781,-6.0781,-6.0781,-6.0666,-5.9819,-5.8434,-5.706,-5.7022,-5.6406,-5.5703,-5.5665,-5.5126,-5.4472,-5.4472,-5.3857,-5.314,-5.2827,-5.1785,-5.0794,-5.0701,-4.9786,-4.8742,-4.8113,-4.7489,-4.7054,-4.7017,-4.7428,-4.6896,-4.418,-4.4082,-4.3774,-4.1913,-4.1984,0.0,-4.2402,-4.3229,-4.3479,-4.2569,-4.2591,-4.1946,-4.0173,-3.9947,-3.8836,-3.6486,-3.5445,-3.3526,-3.0415,-2.8798,-2.6797,-2.4321,-2.2708,-2.1442,-2.0621,0.0,0.0,0.0,0.0,0.0,0.0,0.0,0.0,0.0,0.0,0.0,0.0,0.0,0.0,0.0,0.0,0.0,0.0,0.0,0.0,0.0,-4.2851,-4.6016,-4.6445,-5.2266,-5.7187,-5.9133,-6.1573,-6.2716,-6.1794,-6.108,-6.0939,-6.1492,-6.1048,-6.1103,-6.1977,-6.133,-6.1323,-6.2172,-6.2442,-6.3252,-6.4706,-6.6133,-6.6584,-6.6008,-6.6562,-6.6499,-6.5923,-6.591,-6.5897,-6.5897,-6.5897,-6.5897,-6.5859,-6.5628,-6.4666,-6.3243,-6.2397,-6.1562,-6.0781,-6.0781,-6.0781,-6.0666,-5.9819,-5.8819,-5.7857,-5.7214,-5.6406,-5.5588,-5.5011,-5.4664,-5.4346,-5.3699,-5.3272,-5.2828,-5.1879,-5.159,-5.1174,-4.9791,-4.9534,-4.9115,-4.7227,-4.6822,-4.6435,-4.5236,-4.6087,-4.6798,-4.6111,-4.5423,-4.4773,-4.4183,-4.3058,-4.2303,-4.232,-4.2075,-4.1744,-4.1507,-4.1523,-4.134,-4.085,-3.9717,-3.8505,-3.7235,-3.4724,-3.2339,-3.0307,-2.8125,-2.6113,-2.4265,-2.3777,-2.3437,0.0,0.0,0.0,0.0,0.0,0.0,0.0,0.0,0.0,0.0,0.0,0.0,0.0,0.0,0.0,0.0,0.0,0.0,0.0,0.0,0.0,0.0,-4.7539,-5.1211,-5.2264,-5.6209,-5.968,-6.1725,-6.3514,-6.4242,-6.3286,-6.2659,-6.2182,-6.1911,-6.1346,-6.1206,-6.1685,-6.0784,-6.0819,-6.2062,-6.2101,-6.2897,-6.4589,-6.5936,-6.6359,-6.5897,-6.6359,-6.6359,-6.5897,-6.5897,-6.5897,-6.5897,-6.5897,-6.5897,-6.5897,-6.5897,-6.5089,-6.3782,0.0,0.0,0.0,0.0,-6.0781,-6.0742,-6.0204,-5.9511,-5.8665,-5.7819,-5.6934,-5.6022,-5.4857,-5.4241,-5.3769,-5.2811,-5.2176,-5.1682,-5.1215,-5.1119,-5.0833,-4.9683,-4.9602,-4.9215,-4.7146,-4.651,-4.6075,-4.5094,-4.5704,0.0,-4.6913,-4.6508,-4.5906,-4.5094,-4.3744,-4.28,-4.28,-4.2103,-4.1735,-4.2066,-4.2103,-4.1992,-4.1609,-4.0451,0.0,0.0,0.0,-3.2436,-2.9794,-2.7703,0.0,0.0,0.0,0.0,0.0,0.0,0.0,0.0,-2.3639,-2.3823,0.0,0.0,0.0,0.0,0.0,0.0,0.0,0.0,0.0,0.0,0.0,0.0,0.0,0.0,0.0,0.0,-5.1679,-5.6365,-5.9008,-6.0292,-6.1759,-6.3963,-6.4938,-6.4999,-6.3961,-6.3641,-6.2847,-6.1206,-6.0925,-6.0853,-6.0911,-6.0007,0.0,0.0,0.0,-6.2897,-6.4589,-6.5551,-6.5974,-6.5897,-6.5974,-6.5974,-6.5897,-6.5897,-6.5897,-6.5897,-6.5897,-6.5897,-6.5897,-6.5897,-6.5397,-6.4512,-6.3551,-6.2204,-6.0781,-6.0781,-6.0781,-6.0781,-6.0781,0.0,0.0,-5.8665,-5.778,-5.6714,-5.5126,-5.3972,-5.299,-5.205,-5.0987,-5.0239,-5.0737,-5.061,-5.0311,-4.9969,-4.9824,-4.9263,-4.7517,-4.6544,-4.5993,-4.592,-4.5957,-4.625,-4.6966,-4.7297,-4.6868,-4.518,-4.41,-4.3478,-4.3404,-4.2727,-4.258,-4.3277,-4.3441,0.0,-4.2506,-4.1625,-4.0435,-3.8946,-3.6325,-3.3096,-2.917,-2.7629,-2.6822,-2.6759,-2.7603,-2.8521,-2.9427,-3.0308,-3.0797,-3.0834,-2.9035,-2.8165,0.0,0.0,0.0,0.0,0.0,0.0,0.0,0.0,0.0,0.0,0.0,0.0,0.0,0.0,0.0,-4.9725,-5.3706,-5.7404,-6.0678,-6.2972,-6.453,-6.5016,-6.5591,-6.5303,-6.3729,-6.2881,-6.1962,-6.0938,-6.0184,-6.0096,-6.0766,-5.9985,-6.0281,-6.2062,-6.2101,-6.2897,-6.4589,-6.609,-6.6551,-6.5897,-6.6551,0.0,-6.5897,-6.5897,-6.5897,-6.5897,-6.5897,-6.5897,-6.5897,-6.5897,-6.5397,-6.4436,-6.2935,-6.1704,-6.0781,-6.0781,-6.0781,-6.0781,-6.0781,-6.0242,-5.9473,-5.9319,-5.8242,-5.683,-5.578,-5.4395,0.0,-5.2039,-5.1002,-5.0177,-5.0079,-5.071,-5.1045,-4.9482,-4.9973,-5.0174,-4.7795,-4.704,-4.6672,-4.603,-4.6434,-4.6929,-4.7076,-4.7132,-4.682,-4.5846,-4.4433,-4.3294,-4.2616,-4.2396,-4.2359,-4.2506,-4.3094,-4.3441,-4.3277,-4.1956,-4.0708,-3.9717,-3.6119,-3.2509,-2.9133,-2.8693,-2.8216,-2.7567,-2.8998,-3.0467,-3.1922,-3.3353,-3.4417,-3.5055,-3.2082,-3.0368,0.0,0.0,0.0,0.0,0.0,0.0,0.0,0.0,0.0,0.0,0.0,-4.2461,-4.4609,0.0,-4.9179,-5.2222,-5.5528,-5.8733,-6.1742,-6.4189,-6.5732,-6.5793,-6.5592,-6.4907,-6.3566,-6.2633,-6.1755,-6.0858,-6.0396,-6.0512,-6.1408,-6.105,-6.1589,-6.3281,-6.3358,-6.3974,-6.5243,-6.609,-6.6282,-6.5897,-6.632,-6.6282,-6.5897,-6.5897,-6.5897,-6.5897,-6.5897,-6.5897,-6.5897,-6.5897,-6.5128,-6.3858,-6.3012,-6.2204,-6.1408,-6.0973,-6.0781,-6.0781,-6.0781,-6.0512,-6.0089,-5.9627,-5.8934,-5.7934,-5.6203,-5.4818,-5.3567,-5.2203,-5.1014,-5.0201,-5.0453,-5.1171,-5.1512,-5.0085,-5.0537,-5.0657,-4.8475,-4.7832,-4.759,-4.7168,-4.7425,-4.77,-4.77,-4.77,-4.7315,-4.6067,-4.4525,-4.3221,-4.2396,-4.1956,-4.1846,-4.2249,-4.302,-4.3515,-4.3515,-4.2029,-4.0414,-3.8814,-3.6009,-3.3146,-3.032,-3.021,-2.9806,-2.9035,-3.098,-3.2596,-3.3793,-3.5459,-3.6486,-3.6868,-3.5216,-3.4041,0.0,0.0,0.0,0.0,0.0,0.0,0.0,-3.9961,-4.0781,-4.3164,-4.5742,-4.7773,-4.8476,-5.0546,-5.2654,-5.4203,-5.7094,-5.9915,-6.2112,-6.4411,-6.5741,-6.5538,-6.5062,-6.4393,-6.348,-6.2586,-6.1755,-6.0858,-6.0973,-6.1435,-6.2281,-6.2486,-6.3281,-6.4782,-6.4859,-6.5205,-6.5897,-6.5897,-6.5897,-6.5897,-6.5897,-6.5897,-6.5897,-6.5897,-6.5897,-6.5897,-6.5897,-6.5897,-6.5897,-6.5705,-6.482,-6.3512,-6.3205,-6.2666,-6.1985,-6.1127,-6.0781,-6.0781,-6.0781,-6.0781,-6.0666,-5.9973,-5.9627,-5.9088,-5.6896,-5.5511,-5.4385,-5.2762,-5.1507,-5.077,-5.137,-5.192,-5.2084,-5.0945,-5.1066,-5.0944,-4.9117,-4.8495,-4.8306,-4.8306,-4.8306,-4.8306,-4.8306,-4.8306,-4.7755,-4.614,-4.4672,-4.3387,-4.2433,-4.1609,-4.1389,-4.2213,-4.2873,-4.3294,-4.3294,-4.1956,-4.0084,-3.7639,-3.6083,-3.416,-3.1715,-3.1641,-3.1311,-3.0687,-3.2889,-3.4417,-3.5261,-3.6927,-3.7749,-3.7749,-3.7896,-3.7456,-3.2758,-3.5974,-4.0586,-4.1562,-4.3633,-4.5234,0.0,-4.4883,-4.5976,-4.7773,-5.0195,-5.1992,-5.2108,-5.3628,-5.514,-5.5993,-5.8299,-6.0305,-6.1229,-6.3438,-6.4391,-6.2827,-6.3827,-6.4268,-6.3409,-6.2601,-6.1755,-6.0858,-6.1524,-6.232,-6.3128,-6.3897,-6.4743,-6.5705,-6.5743,-6.5782,-6.5897,-6.5897,-6.5897,-6.5897,-6.5897,-6.5897,-6.5897,-6.5897,-6.5897,-6.5897,-6.5897,-6.5897,-6.582,-6.5051,-6.4628,-6.432,-6.282,-6.2178,-6.1985,-6.1127,-6.0781,-6.0781,-6.0781,-6.0781,-6.0781,-6.0704,-6.0127,-5.9319,-5.8319,-5.6857,-5.5346,-5.437,-5.3387,-5.2571,-5.2626,-5.3098,-5.3166,-5.14,-5.1328,-5.117,-4.9277,-4.8569,-4.8306,-4.8306,-4.8306,-4.8306,-4.8306,-4.8306,-4.7755,-4.614,-4.5149,-4.4011,-4.2506,-4.1609,-4.1389,-4.2213,-4.2396,-4.2433,-4.2433,-4.1625,-4.0084,-3.7639,-3.6633,-3.5055,-3.2583,-3.2472,-3.2399,-3.2326,-3.4014,-3.5298,-3.6156,-3.7771,-3.8579,-3.8579,-3.9313,-3.8814,-3.7652,-4.0703,-4.4609,-4.6484,-4.9258,-5.1445,-5.1094,-5.168,-5.2656,-5.3867,-5.5742,-5.6875,-5.5854,-5.6192,-5.6745,-5.7061,-5.824,-5.9591,-6.0904,-6.2727,-6.3299,-6.1597,-6.11,-6.1166,-6.1781,-6.1089,-6.0666,-6.0781,-6.1601,-6.2435,-6.3281,-6.4128,-6.5013,-6.5859,-6.5897,-6.5897,-6.5897,-6.5897,-6.5897,-6.5897,-6.5897,-6.5897,-6.5897,-6.5897,-6.5897,-6.5897,-6.5897,-6.5897,-6.582,-6.4974,-6.432,-6.3743,-6.2551,-6.1793,-6.1281,-6.0935,-6.0781,-6.0781,-6.0781,-6.0781,-6.0781,-6.0781,-6.055,-6.0012,-5.8704,-5.778,-5.6934,-5.5528,-5.4831,-5.4518,-5.4506,-5.468,-5.4546,-5.3136,-5.2338,-5.1506,-5.0077,-4.9011,-4.8306,-4.8306,-4.8306,-4.8306,-4.8306,-4.8306,-4.7755,-4.614,-4.4819,-4.3424,-4.1809,-4.0891,-4.0891,-4.2176,-4.2286,-4.2506,-4.2947,-4.1846,-4.0267,-3.8322,-3.7,-3.5202,-3.2693,-3.35,-3.3793,-3.333,-3.5385,-3.6853,-3.7698,-3.8836,-3.9643,-4.0104,-4.0451,-4.0487,-4.1445,-4.4414,-4.7578,-4.9922,-5.3125,-5.5664,-5.5664,-5.6328,-5.7148,-5.7773,-5.8867,-5.9257,-5.7724,-5.7536,-5.7669,-5.7876,-5.8599,-5.9553,-6.0797,-6.2132,-6.2243,-6.0319,-5.8819,-5.8434,-5.9627,-5.9396,-5.9627,-6.0704,-6.205,-6.3051,-6.3628,-6.4474,-6.5243,-6.5859,-6.5897,-6.5897,-6.5897,-6.5897,-6.5897,-6.5897,-6.5897,-6.5897,-6.5897,-6.5897,-6.5897,-6.5897,-6.5897,-6.5897,-6.582,-6.4705,-6.3858,-6.3192,-6.2166,-6.1358,-6.0781,-6.0781,-6.0781,-6.0781,-6.0781,-6.0781,-6.0781,-6.0781,-6.0781,-6.0473,-5.8819,-5.8319,-5.7934,-5.6203,-5.5703,-5.5703,-5.5703,-5.5703,-5.5418,-5.4381,-5.3014,-5.1699,-5.0621,-4.9305,-4.8306,-4.8306,-4.8306,-4.8306,-4.8306,-4.8306,-4.7755,-4.614,-4.4709,-4.3167,-4.1352,-4.0414,-4.0267,-4.1222,-4.1699,-4.2286,-4.3094,-4.1699,-4.0194,-3.8799,-3.7404,-3.5605,-3.3353,-3.4821,-3.5422,-3.4835,-3.7015,-3.8447,-3.9019,-3.9827,-4.0524,-4.1095,-4.1315,-4.1735,-4.2734,-4.6172,-4.9219,-5.0937,-5.3984,-5.6562,-5.6562,-5.7226,-5.7851,-5.789,-5.793,-5.7694,-5.6704,-5.7124,-5.7814,-5.8564,-5.9913,-6.0923,-6.0894,-6.1597,-6.1204,-5.8665,-5.7588,-5.706,-5.7099,-5.7857,-5.9011,-6.0666,-6.3128,-6.4551,-6.4551,-6.5397,-6.5859,-6.5897,-6.5897,-6.5897,-6.5897,-6.5897,-6.5897,-6.5897,-6.5897,-6.5897,-6.5897,-6.5897,-6.5897,-6.5897,-6.5897,-6.5897,-6.5782,-6.4051,-6.332,-6.3115,-6.1473,-6.0819,-6.0781,-6.0781,-6.0781,-6.0781,-6.0781,-6.0781,-6.0781,-6.0781,-6.0781,-6.0473,-5.8819,-5.8319,-5.7934,-5.6203,-5.5703,-5.5703,-5.5703,-5.5703,-5.5418,-5.4381,-5.3014,-5.1699,-5.0621,-4.9305,-4.8306,-4.8306,-4.8306,-4.8306,-4.8306,-4.8306,-4.7755,-4.614,-4.5186,-4.3774,-4.1389,-4.0414,-3.9606,-3.8909,-4.023,-4.1462,-4.2286,-4.0855,-3.957,-3.8762,-3.7918,-3.6707,-3.5004,-3.6523,-3.7419,-3.7382,-3.8998,-3.9827,-3.9863,-4.0671,-4.1058,-4.1132,-4.1919,-4.2286,-4.5195,-4.8789,-5.1953,-5.4297,-5.6992,-5.9101,-5.9101,-5.9805,-6.0117,-5.8984,-5.7851,-5.6756,-5.5799,-5.572,-5.6253,-5.755,-5.9012,-6.0206,-6.0739,-6.1062,-6.0512,-5.855,-5.755,-5.678,-5.6203,-5.6395,-5.7511,-5.9781,-6.1781,-6.3166,-6.3705,-6.5128,-6.5897,-6.5897,-6.5897,-6.5897,-6.5897,-6.5897,-6.5897,-6.5897,-6.5897,-6.5897,-6.5897,-6.5897,-6.5897,-6.5897,-6.5897,-6.5897,-6.5743,-6.4012,-6.3308,-6.3115,-6.1435,-6.0781,-6.0781,-6.0781,-6.0781,-6.0781,-6.0781,-6.0781,-6.0781,-6.0781,-6.0781,-6.0473,-5.8819,-5.8319,-5.7934,-5.6203,-5.5703,-5.5703,-5.5703,-5.5703,-5.5572,-5.5007,-5.3836,-5.2498,-5.1445,-5.012,-4.8967,-4.8416,-4.8306,-4.8306,-4.8306,-4.8306,-4.7572,-4.5443,-4.3517,-4.1609,-3.9753,-3.9276,-3.9019,-3.8726,-3.9643,-4.0634,-4.1425,-4.0524,-3.9328,-3.8006,-3.7639,-3.6743,-3.5078,-3.711,-3.8285,-3.8285,-3.9863,-4.0965,-4.1479,-4.1772,-4.2176,-4.269,-4.2947,-4.3094,-4.7969,-5.1484,-5.457,-5.6562,-5.875,-6.0312,-6.0039,-6.0625,-6.0586,-5.8281,-5.6172,-5.4569,-5.3959,-5.3666,-5.4251,-5.6512,-5.8375,-5.9887,-6.0734,-6.085,-6.0338,-5.893,-5.7984,-5.7242,-5.6665,-5.6049,-5.6626,-5.8896,-6.0935,-6.2435,-6.3281,-6.4936,-6.5897,-6.5897,-6.5897,-6.5897,-6.5897,-6.5897,-6.5897,-6.5897,-6.5897,-6.5897,-6.5897,-6.5897,-6.5897,-6.5897,-6.5897,-6.5897,-6.5743,-6.4012,-6.3308,-6.3115,-6.1435,-6.0781,-6.0781,-6.0781,-6.0781,-6.0781,-6.0781,-6.0781,-6.0781,-6.0781,-6.0781,-6.0473,-5.8819,-5.8319,-5.7934,-5.6203,-5.5703,-5.5703,-5.5703,-5.5703,-5.5649,-5.5351,-5.424,-5.2897,-5.1819,-5.0546,-4.9353,-4.8489,-4.8306,-4.8306,-4.8306,-4.8086,-4.7259,-4.5406,-4.3094,-4.0744,-3.8542,-3.8285,-3.8175,-3.7881,-3.8322,-3.9056,-4.0141,-3.9239,-3.8175,-3.7125,-3.7345,-3.6905,-3.5518,-3.8102,-3.957,-3.957,-4.1148,-4.2213,-4.2727,-4.2727,-4.2983,-4.3515,-4.3515,-4.3515,-5.1016,-5.4219,-5.6992,-5.789,-5.9297,-6.0234,-5.9453,-5.9805,-5.9336,-5.5898,-5.3008,-5.1131,-5.107,-5.0848,-5.183,-5.5292,-5.7955,-5.9899,-6.0815,-6.0931,-6.0601,-5.9766,-5.893,-5.8396,-5.8357,-5.6819,-5.6511,-5.8165,-6.0627,-6.2397,-6.3231,-6.4936,-6.5897,-6.5897,-6.5897,-6.5897,-6.5897,-6.5897,-6.5897,-6.5897,-6.5897,-6.5897,-6.5897,-6.5897,-6.5897,-6.5897,-6.5897,-6.5897,-6.5743,-6.4012,-6.3308,-6.3115,-6.1435,-6.0781,-6.0781,-6.0781,-6.0781,-6.0781,-6.0781,-6.0781,-6.0781,-6.0781,-6.0781,-6.0473,-5.8819,-5.8319,-5.7934,-5.6203,-5.5703,-5.5703,-5.5703,-5.5703,-5.5649,-5.5351,-5.4278,-5.2934,-5.1819,-5.0583,-4.939,-4.8489,-4.8306,-4.8306,-4.8306,-4.7663,-4.6856,-4.603,-4.3901,-4.1258,-3.797,-3.7529,-3.7162,-3.6303,-3.6303,-3.6964,-3.8505,-3.7294,-3.6413,-3.634,-3.7125,-3.7235,-3.645,-3.9407,-4.1132,-4.1168,-4.269,-4.3515,-4.3515,-4.3515,-4.3515,-4.3515,-4.3515,-4.3515,-5.5351,-5.7812,-5.9648,-6.0508,-6.1055,-6.1133,-6.0273,-5.9805,-5.8359,-5.4219,-5.0273,-4.7382,-4.6737,-4.6403,-4.7584,-5.1703,-5.5451,-5.8398,-5.9976,-6.0634,-6.0877,-6.0663,-6.0371,-5.9896,-5.9281,-5.8242,-5.7819,-5.828,-6.005,-6.1781,-6.3243,-6.4936,-6.5897,-6.5897,-6.5897,-6.5897,-6.5897,-6.5897,-6.5897,-6.5897,-6.5897,-6.5897,-6.5897,-6.5897,-6.5897,-6.5897,-6.5897,-6.5897,-6.5743,-6.4012,-6.3308,-6.3115,-6.1435,-6.0781,-6.0781,-6.0781,-6.0781,-6.0781,-6.0781,-6.0781,-6.0781,-6.0781,-6.0781,-6.0473,-5.8819,-5.8319,-5.7934,-5.6203,-5.5703,-5.5703,-5.5703,-5.5703,-5.5649,-5.5351,-5.4719,-5.3688,-5.1969,-5.1009,-5.0068,-4.86,-4.8306,-4.8306,-4.8306,-4.8122,-4.7535,-4.6104,-4.4856,-4.2727,-3.8872,-3.786,-3.6942,-3.5481,-3.645,-3.7345,-3.7786,-3.7991,-3.7845,-3.7235,-3.7955,-3.8285,-3.8102,-4.0031,-4.1389,-4.1992,-4.2983,-4.3515,-4.3515,-4.3515,-4.3515,-4.3515,-4.3515,-4.3515,-5.8281,-6.0508,-6.2148,-6.2226,-6.1992,-6.1172,-5.918,-5.7773,-5.5586,-5.0859,-4.6797,-4.4022,-4.3887,-4.3672,-4.5176,-5.0297,-5.429,-5.7467,-5.9622,-6.0281,-6.0635,-6.1012,-6.0558,-6.0204,-6.0089,-5.9319,-5.8973,-5.9358,-5.9896,-6.0819,-6.2127,-6.382,-6.4743,-6.4743,-6.4743,-6.4743,-6.4743,-6.4743,-6.4743,-6.4743,-6.5166,-6.532,-6.532,-6.5743,-6.5897,-6.5897,-6.5897,-6.5897,-6.5743,-6.4012,-6.3308,-6.3115,-6.1435,-6.0781,-6.0781,-6.0781,-6.0781,-6.0781,-6.0781,-6.0781,-6.0781,-6.0781,-6.0781,-6.0473,-5.8819,-5.8319,-5.7934,-5.6203,-5.5703,-5.5703,-5.5703,-5.5703,-5.5649,-5.5389,-5.4981,-5.4214,-5.2611,-5.1547,-5.0407,-4.8656,-4.8306,-4.8306,-4.8306,-4.8306,-4.7865,-4.6617,-4.5425,-4.348,-4.0178,-3.8432,-3.6868,-3.5188,-3.5848,-3.656,-3.6942,-3.7713,-3.797,-3.7529,-3.8579,-3.9239,-3.9239,-4.0781,-4.1846,-4.2286,-4.3094,-4.3331,-4.2947,-4.3331,-4.3331,-4.2983,-4.3314,-4.3515,-6.0312,-6.2461,-6.4062,-6.3086,-6.2187,-6.0586,-5.707,-5.4648,-5.1719,-4.6641,-4.2695,-4.0467,-4.1385,-4.1487,-4.3394,-4.9515,-5.339,-5.6518,-5.917,-5.9566,-5.9871,-6.0652,-5.9935,-5.9665,-6.055,-6.005,-5.9973,-6.0742,-6.0089,-6.005,-6.0935,-6.2435,-6.3308,-6.3308,-6.3308,-6.3308,-6.3308,-6.3308,-6.3308,-6.3308,-6.4089,-6.4474,-6.4628,-6.5397,-6.5782,-6.5897,-6.5782,-6.5743,-6.559,-6.3858,-6.3128,-6.2974,-6.1396,-6.0781,-6.0781,-6.0781,-6.0781,-6.0781,-6.0781,-6.0781,-6.0781,-6.0781,-6.0781,-6.0473,-5.8819,-5.8319,-5.7934,-5.6203,-5.5703,-5.5703,-5.5703,-5.5703,-5.566,-5.5437,-5.5105,-5.4534,-5.3408,-5.1986,-5.047,-4.8785,-4.8379,-4.8306,-4.8306,-4.8306,-4.8049,-4.7223,-4.5828,-4.3994,-4.1572,-3.9129,-3.6964,-3.5188,-3.5188,-3.5591,-3.6229,-3.7235,-3.7823,-3.7823,-3.9218,-4.012,-4.0194,-4.1552,-4.2359,-4.247,-4.313,-4.3167,-4.247,-4.3167,-4.313,-4.247,-4.3167,-4.3515,-6.2265,-6.3398,-6.3906,-6.2305,-6.1289,-5.9531,-5.539,-5.1484,-4.7461,-4.3008,-3.8164,-3.5233,-3.6817,-3.7472,-3.9824,-4.5969,-5.0398,-5.3989,-5.6642,-5.7498,-5.8111,-5.8932,-5.8703,-5.8819,-5.9665,-6.0242,-6.0627,-6.0781,-6.0666,-6.0935,-6.1831,-6.2781,-6.3308,-6.3308,-6.3308,-6.3308,-6.3308,-6.3308,-6.3308,-6.3308,-6.3474,-6.3897,-6.4628,-6.4743,-6.5205,-6.5859,-6.5128,-6.482,-6.4705,-6.3012,-6.2332,-6.2204,-6.1204,-6.0781,-6.0781,-6.0781,-6.0781,-6.0781,-6.0781,-6.0781,-6.0781,-6.0781,-6.0781,-6.0473,-5.8819,-5.8319,-5.7934,-5.6203,-5.5703,-5.5703,-5.5703,-5.5703,-5.5671,-5.5535,-5.5263,-5.4756,-5.3656,-5.1728,-5.0047,-4.9485,-4.8783,-4.8306,-4.8306,-4.8306,-4.8049,-4.7223,-4.6324,-4.4819,-4.2396,-3.9974,-3.7588,-3.5261,-3.6229,-3.6868,-3.634,-3.8264,-3.9475,-3.9475,-4.0377,-4.1185,-4.1846,-4.2139,-4.2616,-4.3277,-4.3441,-4.3441,-4.3277,-4.3441,-4.3441,-4.3294,-4.3441,-4.3515,-6.2773,-6.3984,-6.4336,-6.168,-6.0039,-5.7734,-5.2539,-4.8008,-4.3672,-3.9375,-3.5078,-3.2616,-3.4321,-3.519,-3.765,-4.3806,-4.7957,-5.1507,-5.4675,-5.5667,-5.658,-5.7823,-5.7757,-5.8127,-5.9396,-6.0281,-6.0781,-6.0781,-6.0781,-6.0973,-6.1408,-6.1781,-6.2012,-6.2012,-6.2012,-6.2012,-6.2012,-6.2012,-6.2012,-6.2012,-6.2474,-6.2897,-6.332,-6.3743,-6.4166,-6.4512,-6.4089,-6.3935,-6.382,-6.2589,-6.2101,-6.2024,-6.1127,-6.0781,-6.0781,-6.0781,-6.0781,-6.0781,-6.0781,-6.0781,-6.0781,-6.0781,-6.0781,-6.055,-5.9319,-5.8627,-5.805,-5.6742,-5.6049,-5.5703,-5.5703,-5.5703,-5.5682,-5.5593,-5.5301,-5.471,-5.345,-5.1901,-5.0491,-4.9762,-4.8893,-4.8306,-4.8306,-4.8306,-4.8196,-4.7773,-4.7058,-4.5792,-4.3828,-4.1809,-3.9313,-3.6046,-3.6795,-3.7162,-3.6376,-3.8909,-4.0524,-4.0524,-4.1662,-4.2506,-4.291,-4.291,-4.3094,-4.3515,-4.3515,-4.3277,-4.2873,-4.3294,-4.3277,-4.2873,-4.3294,-4.3515,-6.2812,-6.4258,-6.4726,-6.1055,-5.8711,-5.5742,-4.9726,-4.4531,-3.9922,-3.5976,-3.2305,-3.0312,-3.1982,-3.2914,-3.5401,-4.1512,-4.5192,-4.862,-5.2528,-5.3657,-5.4786,-5.6621,-5.6792,-5.7396,-5.9088,-6.0204,-6.0781,-6.0781,-6.0781,-6.0781,-6.0781,-6.0781,-6.0781,-6.0781,-6.0781,-6.0781,-6.0781,-6.0781,-6.0781,-6.0819,-6.1473,-6.1908,-6.2139,-6.2743,-6.3128,-6.3269,-6.3128,-6.3051,-6.2974,-6.2166,-6.1831,-6.1755,-6.105,-6.0781,-6.0781,-6.0781,-6.0781,-6.0781,-6.0781,-6.0781,-6.0781,-6.0781,-6.0781,-6.0627,-5.9742,-5.905,-5.8357,-5.7291,-5.6522,-5.5934,-5.5742,-5.5703,-5.5692,-5.5649,-5.5326,-5.4728,-5.3515,-5.2278,-5.112,-5.0076,-4.9003,-4.8306,-4.8306,-4.8306,-4.8306,-4.8306,-4.7626,-4.6636,-4.5388,-4.3681,-4.1222,-3.7698,-3.7588,-3.7419,-3.6633,-3.935,-4.1095,-4.1095,-4.2616,-4.3515,-4.3515,-4.3515,-4.3515,-4.3515,-4.3515,-4.3167,-4.2543,-4.3167,-4.324,-4.2837,-4.3461,-4.3828,-6.2969,-6.4258,-6.4609,-6.0351,-5.7422,-5.3945,-4.7891,-4.1367,-3.582,-3.3125,-2.9141,-2.6718,-2.8432,-2.9383,-3.1854,-3.799,-4.1163,-4.4631,-4.9666,-5.0975,-5.233,-5.4752,-5.5509,-5.6511,-5.8242,-5.9858,-6.0781,-6.0781,-6.0781,-6.0781,-6.0781,-6.0781,-6.0781,-6.0781,-6.0781,-6.0781,-6.0781,-6.0781,-6.0781,-6.0781,-6.0858,-6.132,-6.2101,-6.2178,-6.2589,-6.3281,-6.2512,-6.2216,-6.2139,-6.1281,-6.0935,-6.0896,-6.0819,-6.0781,-6.0781,-6.0781,-6.0781,-6.0781,-6.0781,-6.0781,-6.0781,-6.0781,-6.0781,-6.0627,-5.9742,-5.9435,-5.905,-5.7445,-5.6945,-5.6714,-5.5895,-5.5703,-5.5703,-5.5703,-5.5461,-5.5091,-5.4487,-5.289,-5.1393,-5.0812,-4.9407,-4.8306,-4.8306,-4.8306,-4.8306,-4.8306,-4.7626,-4.7039,-4.6892,-4.4856,-4.269,-4.0838,-3.9423,-3.8248,-3.7456,-3.968,-4.1095,-4.1095,-4.2616,-4.3515,-4.3515,-4.3515,-4.3515,-4.3515,-4.3515,-4.3478,-4.3404,-4.3478,-4.3828,-4.4471,-4.4562,-4.4966,-6.0586,-6.1953,-6.2226,-5.793,-5.4531,-5.0664,-4.4609,-3.8672,-3.3711,-3.1172,-2.8008,-2.6054,-2.7302,-2.815,-3.0325,-3.5408,-3.8339,-4.1653,-4.6316,-4.8486,-5.035,-5.2331,-5.358,-5.4939,-5.6631,-5.8303,-5.9704,-6.0704,-6.0781,-6.0781,-6.0781,-6.0781,-6.0781,-6.0781,-6.0781,-6.0781,-6.0781,-6.0781,-6.0781,-6.0781,-6.0781,-6.0973,-6.132,-6.132,-6.1473,-6.1781,-6.1473,-6.132,-6.1281,-6.0935,-6.0781,-6.0781,-6.0781,-6.0781,-6.0781,-6.0781,-6.0781,-6.0781,-6.0781,-6.0781,-6.0781,-6.0781,-6.0781,-6.0742,-6.0396,-5.9588,-5.8627,-5.7973,-5.7011,-5.6137,-5.578,-5.5703,-5.5703,-5.5703,-5.5547,-5.5236,-5.4754,-5.3553,-5.2269,-5.1287,-5.0139,-4.9159,-4.8569,-4.8439,-4.84,-4.8306,-4.8049,-4.7626,-4.7149,-4.5425,-4.3608,-4.1992,-4.0377,-3.8909,-3.7603,-3.9717,-4.1095,-4.1095,-4.2616,-4.3515,-4.3515,-4.3515,-4.3515,-4.3515,-4.3515,-4.3515,-4.3515,-4.3975,-4.4378,-4.4709,-4.5223,-4.559,-5.8125,-5.9844,-6.0273,-5.5976,-5.2344,-4.8281,-4.2539,-3.6953,-3.2383,-3.0078,-2.7539,-2.5898,-2.6484,-2.7067,-2.8783,-3.2926,-3.5308,-3.8311,-4.3181,-4.5716,-4.7907,-5.0109,-5.1656,-5.3222,-5.4892,-5.7016,-5.9011,-6.0666,-6.0781,-6.0781,-6.0781,-6.0781,-6.0781,-6.0781,-6.0781,-6.0781,-6.0781,-6.0781,-6.0781,-6.0781,-6.0781,-6.0781,-6.0781,-6.0781,-6.0781,-6.0781,-6.0781,-6.0781,-6.0781,-6.0781,-6.0781,-6.0781,-6.0781,-6.0781,-6.0781,-6.0781,-6.0781,-6.0781,-6.0781,-6.0781,-6.0781,-6.0781,-6.0627,-6.0435,-6.0435,-5.9588,-5.855,-5.805,-5.6857,-5.5703,-5.5703,-5.5703,-5.5703,-5.5703,-5.5543,-5.5339,-5.4981,-5.4065,-5.3063,-5.2051,-5.0944,-4.9928,-4.9193,-4.879,-4.8476,-4.8325,-4.8306,-4.8122,-4.7516,-4.6049,-4.4452,-4.2837,-4.1222,-3.9606,-3.8006,-3.9863,-4.1205,-4.1425,-4.2947,-4.3938,-4.4212,-4.3975,-4.3864,-4.3864,-4.3608,-4.3608,-4.3864,-4.4415,-4.4948,-4.5425,-4.5993,-4.6397,-5.6172,-5.8476,-5.9375,-5.5078,-5.1445,-4.7578,-4.2383,-3.6523,-3.1719,-2.9961,-2.7539,-2.5703,-2.5703,-2.5703,-2.6875,-3.0351,-3.168,-3.4335,-4.0304,-4.2545,-4.4802,-4.8228,-4.9938,-5.1486,-5.3172,-5.6354,-5.9011,-6.0666,-6.0781,-6.0781,-6.0781,-6.0781,-6.0781,-6.0781,-6.0781,-6.0781,-6.0781,-6.0781,-6.0781,-6.0781,-6.0781,-6.0781,-6.0781,-6.0781,-6.0781,-6.0781,-6.0781,-6.0781,-6.0781,-6.0781,-6.0781,-6.0781,-6.0781,-6.0781,-6.0781,-6.0781,-6.0781,-6.0781,-6.0781,-6.0781,-6.0781,-6.0781,-6.0204,-5.9511,-5.9511,-5.9511,-5.9127,-5.7484,-5.6368,-5.5703,-5.5703,-5.5703,-5.5703,-5.5703,-5.5615,-5.5425,-5.5147,-5.4365,-5.3604,-5.3263,-5.1757,-5.0515,-5.023,-4.9373,-4.8605,-4.8344,-4.8306,-4.8306,-4.8306,-4.6874,-4.5259,-4.3662,-4.2066,-4.0435,-3.8836,-4.0178,-4.1425,-4.2249,-4.3791,-4.5039,-4.5847,-4.5112,-4.4709,-4.4709,-4.3901,-4.3901,-4.4709,-4.4691,-4.5498,-4.7076,-4.7076,-4.7516,-5.1758,-5.3633,-5.4375,-5.1289,-4.7891,-4.4141,-3.957,-3.4805,-3.082,-2.9062,-2.7109,-2.5703,-2.5703,-2.5703,-2.6641,-2.9531,-3.125,-3.3867,-3.8708,-4.2328,-4.5269,-4.7522,-5.0687,-5.3351,-5.4981,-5.714,-5.9125,-6.0751,-6.0861,-6.0866,-6.0781,-6.0781,-6.0781,-6.0781,-6.0781,-6.0781,-6.0781,-6.0781,-6.0781,-6.0781,-6.0781,-6.0781,-6.0781,-6.0781,-6.0781,-6.0781,-6.0781,-6.0781,-6.0781,-6.0781,-6.0781,-6.0781,-6.0781,-6.0781,-6.0781,-6.0781,-6.0781,-6.0781,-6.0781,-6.0781,-6.0704,-6.0127,-5.9704,-5.9281,-5.8127,-5.778,-5.755,-5.6434,-5.5895,-5.5703,-5.5703,-5.5703,-5.5703,-5.5703,-5.5649,-5.5508,-5.5351,-5.5033,-5.4572,-5.376,-5.2617,-5.1496,-5.0664,-4.9744,-4.9027,-4.875,-4.8714,-4.8714,-4.8714,-4.7218,-4.5523,-4.3885,-4.2198,-4.0735,-3.9622,-4.0487,-4.1699,-4.302,-4.4121,-4.5076,-4.5883,-4.5663,-4.5516,-4.5516,-4.5259,-4.5259,-4.5516,-4.6049,-4.6892,-4.7939,-4.7939,-4.8086,-4.6133,-4.8047,-4.8789,-4.6562,-4.3867,-4.082,-3.7148,-3.3242,-3.0,-2.8594,-2.6914,-2.5703,-2.5703,-2.5703,-2.6445,-2.875,-3.0312,-3.2812,-3.746,-4.1754,-4.5765,-4.9401,-5.239,-5.4807,-5.6417,-5.7776,-5.9211,-6.0819,-6.0941,-6.0894,-6.0793,-6.0781,-6.0781,-6.0781,-6.0781,-6.0781,-6.0781,-6.0781,-6.0781,-6.0781,-6.0781,-6.0781,-6.0781,-6.0781,-6.0781,-6.0781,-6.0781,-6.0781,0.0,-6.0781,-6.0781,-6.0781,-6.0781,-6.0781,-6.0781,-6.0781,-6.0781,-6.0781,-6.0781,-6.0781,-6.0666,-5.9781,-5.905,-5.828,-5.6945,-5.6522,-5.6406,-5.5857,-5.5703,-5.5703,-5.5703,-5.5703,-5.5703,-5.5703,-5.5682,-5.5626,-5.5508,-5.5461,-5.526,-5.465,-5.3455,-5.2308,-5.1547,-5.0378,-4.9454,-4.915,-4.9118,-4.9118,-4.9118,-4.7602,-4.5871,-4.4109,-4.2316,-4.103,-4.043,-4.0802,-4.1919,-4.3828,-4.4709,-4.5663,-4.6764,-4.6507,-4.6361,-4.6361,-4.6067,-4.6067,-4.6361,-4.7149,-4.781,-4.8306,-4.8306,-4.8306,0.0,-4.1914,-4.3047,-4.1328,-3.9726,-3.7812,-3.5195,-3.1992,0.0,-2.8476,-2.6914,-2.5703,-2.5781,-2.5781,-2.6367,-2.8203,-2.9258,-3.1641,-3.6758,-4.1406,-4.6677,-5.3212,-5.4747,-5.5915,-5.7444,-5.8348,-5.9417,-6.0915,-6.1002,-6.0951,-6.0804,-6.0793,-6.0793,-6.0781,-6.0781,-6.0781,-6.0781,-6.0781,-6.0781,-6.0781,-6.0781,-6.0781,-6.0781,-6.0781,-6.0781,-6.0781,-6.0781,-6.0781,-6.0781,-6.0781,-6.0781,-6.0781,-6.0781,-6.0781,-6.0781,-6.0781,-6.0781,-6.0781,-6.0781,-6.0781,-6.0666,-5.9704,-5.828,-5.6753,-5.5934,-5.5703,-5.5703,-5.5703,-5.5703,-5.5703,-5.5703,-5.5703,-5.5703,-5.5703,-5.5703,-5.5703,-5.5703,-5.5703,-5.5703,-5.5703,-5.4271,-5.3024,-5.2742,-5.1218,-4.9933,-4.9674,-4.957,-4.9532,-4.9532,-4.8008,-4.6217,-4.4326,-4.2493,-4.1323,-4.1128,-4.1095,-4.2159,-4.4635,-4.548,-4.6617,-4.8233,-4.759,-4.7186,-4.7186,-4.6471,-4.6434,-4.7186,-4.792,-4.8306,-4.8306,-4.8306,-4.8306,-3.293,0.0,-4.0391,-3.8633,-3.7891,-3.6914,0.0,-3.1562,-2.9336,-2.8476,-2.6914,-2.5898,-2.6562,-2.668,-2.7461,-2.9883,-3.1523,-3.4101,-3.8633,-4.5234,-5.1168,-5.5373,-5.6649,-5.7562,-5.8538,-5.9386,-6.0211,-6.1161,-6.1166,-6.1059,-6.0888,-6.0872,-6.0866,-6.0781,-6.0781,-6.0781,-6.0781,-6.0781,-6.0781,-6.0781,-6.0781,-6.0781,-6.0781,-6.0781,-6.0781,-6.0781,-6.0781,-6.0781,-6.0781,-6.0781,-6.0781,-6.0781,-6.0781,-6.0781,-6.0781,-6.0781,-6.0781,-6.0781,-6.0781,-6.0781,-6.055,-5.9088,-5.7396,-5.5972,-5.5742,-5.5703,-5.5703,-5.5703,-5.5703,-5.5703,-5.5703,-5.5703,-5.5703,-5.5703,-5.5703,-5.5703,-5.5703,-5.5703,-5.5703,-5.5703,-5.4803,-5.4035,-5.3857,-5.2308,-5.1052,-5.0899,-5.0328,-4.9948,-4.9948,-4.8348,-4.6482,-4.4552,-4.2663,-4.1437,-4.1128,-4.1095,-4.2379,-4.5443,-4.581,-4.6617,-4.8233,-4.8122,-4.7993,-4.7993,-4.7829,-4.7829,-4.7993,-4.8233,-4.8306,-4.8306,-4.8306,-4.8306,-3.0664,-3.3281,-3.5547,-3.4609,-3.4375,-3.3906,-3.207,-2.9961,-2.8281,-2.7812,-2.6641,-2.5977,-2.6836,-2.7344,-2.8437,-3.1055,-3.3242,-3.707,-4.418,-4.9804,-5.4608,-5.8434,-5.929,-5.9754,-6.0214,-6.062,-6.1045,-6.1369,-6.1349,-6.1198,-6.0964,-6.0962,-6.0905,-6.0793,-6.0781,-6.0781,-6.0781,-6.0781,-6.0781,-6.0781,-6.0781,-6.0781,-6.0781,-6.0781,-6.0781,-6.0781,-6.0781,-6.0781,-6.0781,-6.0781,-6.0781,-6.0781,-6.0781,-6.0781,-6.0781,-6.0781,-6.0781,-6.0781,-6.0781,-6.0281,-5.9511,-5.8588,-5.7126,-5.5703,-5.5703,-5.5703,-5.5703,-5.5703,-5.5703,-5.5703,-5.5703,-5.5703,-5.5703,-5.5703,-5.5703,-5.5703,-5.5703,-5.5703,-5.5703,-5.5703,-5.5028,-5.4419,-5.4353,-5.3195,-5.2115,-5.1664,-5.1193,-5.0658,-4.9881,-4.8448,-4.6619,-4.4207,-4.2571,-4.1505,-4.1144,-4.1095,-4.2306,-4.5186,-4.57,-4.6471,-4.77,-4.8122,-4.8306,-4.8306,-4.8306,-4.8306,-4.8306,-4.8306,-4.8306,-4.8306,-4.8306,-4.8306,-3.0586,-3.1016,-3.1094,-3.1094,-3.1406,-3.1445,-3.0586,-2.9141,-2.7969,-2.7969,-2.707,-2.6641,-2.7773,-2.8594,-3.0039,-3.2891,-3.5976,-4.1211,-5.0508,-5.4062,-5.7187,-6.1211,-6.1719,-6.1719,-6.1719,-6.1716,-6.1663,-6.1512,-6.1448,-6.1316,-6.1056,-6.1068,-6.0982,-6.085,-6.0839,-6.0839,-6.0839,-6.0804,-6.0781,-6.0781,-6.0781,-6.0781,-6.0781,-6.0781,-6.0781,-6.0781,-6.0781,-6.0781,-6.0781,-6.0781,-6.0781,-6.0781,-6.0781,-6.0781,-6.0781,-6.0781,-6.0781,-6.0781,-6.0781,-5.9704,-5.8319,-5.8319,-5.7126,-5.5703,-5.5703,-5.5703,-5.5703,-5.5703,-5.5703,-5.5703,-5.5703,-5.5703,-5.5703,-5.5703,-5.5703,-5.5703,-5.5703,-5.5703,-5.5703,-5.5703,-5.5164,-5.4664,-5.4664,-5.3972,-5.3164,-5.2423,-5.2077,-5.1385,-4.9971,-4.86,-4.6706,-4.3894,-4.2645,-4.1756,-4.1144,-4.1205,-4.2196,-4.4378,-4.5406,-4.6324,-4.7223,-4.792,-4.8306,-4.8306,-4.8306,-4.8306,-4.8306,-4.8306,-4.8306,-4.8306,-4.8306,-4.8306,-3.0273,-3.1445,-3.1992,-3.1992,-3.3633,-3.5,-3.4101,-3.3125,-3.2422,-3.2422,-3.0586,-2.9687,-3.1992,-3.2539,-3.3945,-3.8047,-4.332,-4.8476,-5.2969,-5.5859,-5.8555,-6.1367,-6.1719,-6.1719,-6.1719,-6.1718,-6.1672,-6.1579,-6.1576,-6.1495,-6.1259,-6.1252,-6.1186,-6.107,-6.1032,-6.1032,-6.1032,-6.0883,-6.0781,-6.0781,-6.0781,-6.0781,-6.0781,-6.0781,-6.0781,-6.0781,-6.0781,-6.0781,-6.0781,-6.0781,-6.0781,-6.0781,-6.0781,-6.0781,-6.0781,-6.0781,-6.0781,-6.0781,-6.0781,-5.9704,-5.8319,-5.8319,-5.7126,-5.5703,-5.5703,-5.5703,-5.5703,-5.5703,-5.5703,-5.5703,-5.5703,-5.5703,-5.5703,-5.5703,-5.5703,-5.5703,-5.5703,-5.5703,-5.5703,-5.5703,-5.5588,-5.5511,-5.5511,-5.4857,-5.4241,-5.4126,-5.2856,-5.1808,-5.1538,-4.9329,-4.6935,-4.4751,-4.3496,-4.2337,-4.1181,-4.1735,-4.2543,-4.3608,-4.5076,-4.6581,-4.803,-4.8233,-4.8306,-4.8306,-4.8306,-4.8306,-4.8306,-4.8306,-4.8306,-4.8306,-4.8306,-4.8306,-3.0312,-3.1172,-3.1836,-3.3203,-3.5508,-3.7187,-3.6289,-3.5781,-3.5234,-3.4297,-3.2812,-3.2305,-3.4414,-3.5195,-3.7383,-4.3125,-4.793,-5.1992,-5.5,-5.7265,-5.9375,-6.1445,-6.1719,-6.1719,-6.1719,-6.1718,-6.1678,-6.1675,-6.166,-6.1582,-6.1426,-6.1406,-6.1331,-6.1221,-6.1221,-6.1221,-6.1221,-6.1092,-6.0945,-6.0834,-6.085,-6.0854,-6.0781,-6.0781,-6.0781,-6.0781,-6.0781,-6.0781,-6.0781,-6.0781,-6.0781,-6.0781,-6.0781,-6.0781,-6.0781,-6.0781,-6.0512,-6.0089,-6.0089,-5.9011,-5.7588,-5.7588,-5.6742,-5.5703,-5.5703,-5.5703,-5.5703,-5.5703,-5.5703,-5.5703,-5.5703,-5.5703,-5.5703,-5.5703,-5.5703,-5.5703,-5.5703,-5.5703,-5.5703,-5.5703,-5.5703,-5.5703,-5.5703,-5.5395,-5.5011,-5.4549,-5.3818,-5.2972,-5.2,-5.0287,-4.8014,-4.5016,-4.411,-4.3022,-4.1254,-4.1846,-4.302,-4.4672,-4.548,-4.6617,-4.8233,-4.8306,-4.8306,-4.8306,-4.8306,-4.8306,-4.8306,-4.8306,-4.8306,-4.8306,-4.8306,-4.8306,-3.0351,-3.0898,-3.1601,-3.457,-3.6953,-3.8516,-3.8281,-3.8359,-3.8164,-3.7031,-3.5976,-3.5742,-3.7461,-3.8867,-4.1641,-4.7539,-5.1211,-5.4219,-5.6836,-5.8515,-6.0039,-6.1523,-6.1719,-6.1719,-6.1719,-6.1719,-6.1719,-6.1719,-6.1716,-6.1663,-6.1515,-6.1524,-6.1478,-6.1373,-6.1367,-6.1367,-6.1367,-6.131,-6.1159,-6.0933,-6.091,-6.0872,-6.0781,-6.0781,-6.0781,-6.0781,-6.0781,-6.0781,-6.0781,-6.0781,-6.0781,-6.0781,-6.0781,-6.0781,-6.0781,-6.0781,-6.0242,-5.9511,-5.9511,-5.8396,-5.6983,-5.6983,-5.6406,-5.5703,-5.5703,-5.5703,-5.5703,-5.5703,-5.5703,-5.5703,-5.5703,-5.5703,-5.5703,-5.5703,-5.5703,-5.5703,-5.5703,-5.5703,-5.5703,-5.5703,-5.5703,-5.5703,-5.5703,-5.5703,-5.5472,-5.4857,-5.4626,-5.401,-5.2692,-5.1218,-4.9105,-4.5963,-4.503,-4.3811,-4.1838,-4.2249,-4.3534,-4.5773,-4.5883,-4.6617,-4.8233,-4.8306,-4.8306,-4.8306,-4.8306,-4.8306,-4.8306,-4.8306,-4.8306,-4.8306,-4.8306,-4.8306,-3.0195,-3.0898,-3.1914,-3.6055,-3.7851,-3.9023,-4.0547,-4.1484,-4.2226,-4.2891,-4.1758,-4.1133,-4.2851,-4.5195,-4.7812,-5.0664,-5.3359,-5.6015,-5.8633,-5.9765,-6.0664,-6.1601,-6.1719,-6.1719,-6.1719,-6.1719,-6.1719,-6.1719,-6.1718,-6.1673,-6.1619,-6.1605,-6.1585,-6.1588,-6.1588,-6.1588,-6.1588,-6.1504,-6.1298,-6.0988,-6.1003,-6.0948,-6.0781,-6.0781,-6.0781,-6.0781,-6.0781,-6.0781,-6.0781,-6.0781,-6.0781,-6.0781,-6.0781,-6.0781,-6.0781,-6.0781,-6.0242,-5.9511,-5.9511,-5.8396,-5.6983,-5.6983,-5.6406,-5.5703,-5.5703,-5.5703,-5.5703,-5.5703,-5.5703,-5.5703,-5.5703,-5.5703,-5.5703,-5.5703,-5.5703,-5.5703,-5.5703,-5.5703,-5.5703,-5.5703,-5.5703,-5.5703,-5.5703,-5.5703,-5.5665,-5.5626,-5.4972,-5.4434,-5.4318,-5.2028,-4.9851,-4.8454,-4.6711,-4.4991,-4.3557,-4.3439,-4.4121,-4.5773,-4.5883,-4.6617,-4.8233,-4.8306,-4.8306,-4.8306,-4.8306,-4.8306,-4.8306,-4.8306,-4.8306,-4.8306,-4.8306,-4.8306,-3.0468,-3.0898,-3.1797,-3.5547,-3.7539,-3.9336,-4.2109,-4.4258,-4.5742,-4.6055,-4.6055,-4.5859,-4.5391,-4.7461,-4.9883,-5.1875,-5.4844,-5.7617,-5.9648,-6.0664,-6.1328,-6.164,-6.1719,-6.1719,-6.1719,-6.1719,-6.1719,-6.1719,-6.1718,-6.1679,-6.1677,-6.1675,-6.1672,-6.1668,-6.1668,-6.1668,-6.1668,-6.1649,-6.1524,-6.13,-6.1228,-6.1107,-6.1,-6.0931,-6.0888,-6.0845,-6.085,-6.0854,-6.0781,-6.0781,-6.0781,-6.0742,-6.0204,-5.9704,-5.9242,-5.9242,-5.8704,-5.7934,-5.7934,-5.7176,-5.6214,-5.6214,-5.5972,-5.5703,-5.5703,-5.5703,-5.5703,-5.5703,-5.5703,-5.5703,-5.5703,-5.5703,-5.5703,-5.5703,-5.5703,-5.5703,-5.5703,-5.5703,-5.5703,-5.5703,-5.5703,-5.5703,-5.5703,-5.5703,-5.5703,-5.5703,-5.5434,-5.5241,-5.5241,-5.3827,-5.2211,-5.0581,-4.7933,-4.6013,-4.5329,-4.4648,-4.4929,-4.6526,-4.6177,-4.6617,-4.8233,-4.8306,-4.8306,-4.8306,-4.8306,-4.8306,-4.8306,-4.8306,-4.8306,-4.8306,-4.8306,-4.8563,-3.1362,-3.1288,-3.1719,-3.5156,-3.7305,-3.957,-4.3281,-4.6367,-4.8476,-4.875,-4.9258,-4.9258,-4.7812,-4.9219,-5.1211,-5.3203,-5.5976,-5.8594,-6.0547,-6.1328,-6.1719,-6.1719,-6.1719,-6.1719,-6.1719,-6.1719,-6.1719,-6.1719,-6.1445,-6.1289,-6.1289,-6.1055,-6.0898,-6.0898,-6.0898,-6.0898,-6.0898,-6.0895,-6.0843,-6.0734,-6.0648,-6.0805,-6.1173,-6.1074,-6.1002,-6.0915,-6.092,-6.0872,-6.0781,-6.0781,-6.0627,-6.0319,-5.9742,-5.9011,-5.8319,-5.8319,-5.7742,-5.6983,-5.6983,-5.6445,-5.5703,-5.5703,-5.5703,-5.5703,-5.5703,-5.5703,-5.5703,-5.5703,-5.5703,-5.5703,-5.5703,-5.5703,-5.5703,-5.5703,-5.5703,-5.5703,-5.5703,-5.5703,-5.5703,-5.5703,-5.5703,-5.5703,-5.5703,-5.5703,-5.5703,-5.5703,-5.5703,-5.5703,-5.5703,-5.4897,-5.3583,-5.1684,-4.9084,-4.7324,-4.6859,-4.5577,-4.5478,-4.7058,-4.6379,-4.6617,-4.8233,-4.8306,-4.8306,-4.8306,-4.8306,-4.8306,-4.8306,-4.8306,-4.8453,-4.871,-4.871,-4.915,-3.2915,-3.2184,-3.1758,-3.5156,-3.7344,-3.9766,-4.4062,-4.7734,-5.0469,-5.1289,-5.1445,-5.1211,-5.0391,-5.0898,-5.2305,-5.4883,-5.6758,-5.8789,-6.1328,-6.1719,-6.1719,-6.1719,-6.1719,-6.1719,-6.1719,-6.1719,-6.1719,-6.1719,-6.0898,-6.039,-6.039,-5.9648,-5.9219,-5.9219,-5.9219,-5.9219,-5.9219,-5.9218,-5.9174,-5.9119,-5.9097,-5.9853,-6.1283,-6.122,-6.1089,-6.0997,-6.0974,-6.091,-6.0781,-6.0781,-6.0242,-5.9473,-5.9473,-5.8973,-5.828,-5.828,-5.7742,-5.6983,-5.6983,-5.6406,-5.5703,-5.5703,-5.5703,-5.5703,-5.5703,-5.5703,-5.5703,-5.5703,-5.5703,-5.5703,-5.5703,-5.5703,-5.5703,-5.5703,-5.5703,-5.5703,-5.5703,-5.5703,-5.5703,-5.5703,-5.5703,-5.5703,-5.5703,-5.5703,-5.5703,-5.5703,-5.5703,-5.5703,-5.5703,-5.4929,-5.3644,-5.1624,-5.0293,-4.913,-4.8119,-4.6162,-4.567,-4.7224,-4.6415,-4.6617,-4.8233,-4.8306,-4.8306,-4.8306,-4.8306,-4.8306,-4.8306,-4.8306,-4.8746,-4.961,-4.961,-5.0051,-3.2168,-3.3003,-3.4258,-3.7109,-4.0039,-4.3164,-4.6875,-4.9922,-5.2891,-5.6211,-5.5898,-5.4609,-5.3125,-5.3555,-5.4414,-5.5156,-5.7265,-5.9492,-6.1445,-6.1719,-6.1719,-6.1719,-6.1719,-6.1719,-6.1719,-6.1719,-6.1719,-6.1719,-6.0898,-6.039,-6.039,-5.9648,-5.9219,-5.9219,-5.9219,-5.9219,-5.9219,-5.9218,-5.9179,-5.9178,-5.9129,-5.9279,-5.9669,-5.9568,-5.9452,-5.9323,-5.9186,-5.9132,-5.905,-5.905,-5.8511,-5.7742,-5.7742,-5.7203,-5.6472,-5.6472,-5.6319,-5.6088,-5.6088,-5.5934,-5.5703,-5.5703,-5.5703,-5.5703,-5.5703,-5.5703,-5.5703,-5.5703,-5.5703,-5.5703,-5.5703,-5.5703,-5.5703,-5.5703,-5.5703,-5.5703,-5.5703,-5.5703,-5.5703,-5.5703,-5.5703,-5.5703,-5.5703,-5.5703,-5.5703,-5.5703,-5.5703,-5.5703,-5.5703,-5.5462,-5.482,-5.3575,-5.2933,-5.192,-5.0258,-4.8172,-4.7367,-4.8234,-4.7335,-4.7186,-4.8269,-4.8306,-4.8306,-4.8306,-4.8306,-4.8306,-4.8306,-4.893,-4.9353,-4.961,-5.0178,-5.0875,-3.2664,-3.4134,-3.6016,-3.9297,-4.2969,-4.7109,-5.2305,-5.3867,-5.5273,-5.8945,-5.832,-5.6797,-5.5742,-5.5976,-5.6445,-5.6797,-5.8437,-6.0156,-6.1523,-6.1406,-6.1172,-6.1172,-6.0898,-6.0703,-6.0703,-6.0703,-6.0703,-6.0703,-5.9883,-5.9414,-5.9414,-5.8633,-5.8164,-5.8164,-5.8164,-5.8164,-5.8164,-5.8164,-5.8164,-5.8164,-5.8121,-5.8055,-5.8016,-5.8582,-5.8725,-5.8557,-5.8432,-5.8336,-5.8319,-5.8319,-5.778,-5.6983,-5.6983,-5.6483,-5.5703,-5.5703,-5.5703,-5.5703,-5.5703,-5.5703,-5.5703,-5.5703,-5.5703,-5.5703,-5.5703,-5.5703,-5.5703,-5.5703,-5.5703,-5.5703,-5.5703,-5.5703,-5.5703,-5.5703,-5.5703,-5.5703,-5.5703,-5.5703,-5.5703,-5.5703,-5.5703,-5.5703,-5.5703,-5.5703,-5.5703,-5.5703,-5.5703,-5.5703,-5.5703,-5.5703,-5.5478,-5.489,-5.4317,-5.3366,-5.1768,-4.9679,-4.8611,-4.883,-4.8125,-4.8033,-4.8804,-4.8839,-4.882,-4.882,-4.8489,-4.8489,-4.882,-4.9353,-4.9941,-5.0565,-5.1059,-5.172,-3.3784,-3.5342,-3.7266,-4.1484,-4.5898,-5.1172,-5.8594,-5.8437,-5.7422,-6.0,-5.9297,-5.8203,-5.8125,-5.8203,-5.8476,-5.918,-6.0,-6.0781,-6.1601,-6.0937,-6.039,-6.039,-5.9687,-5.9219,-5.9219,-5.9219,-5.9219,-5.9219,-5.8398,-5.789,-5.789,-5.707,-5.6601,-5.6601,-5.6601,-5.6601,-5.6601,-5.6601,-5.6601,-5.6601,-5.6597,-5.6541,-5.6545,-5.7996,-5.8518,-5.8286,-5.8161,-5.8072,-5.8072,-5.8061,-5.7599,-5.6868,-5.6868,-5.6406,-5.5703,-5.5703,-5.5703,-5.5703,-5.5703,-5.5703,-5.5703,-5.5703,-5.5703,-5.5703,-5.5703,-5.5703,-5.5703,-5.5703,-5.5703,-5.5703,-5.5703,-5.5703,-5.5703,-5.5703,-5.5703,-5.5703,-5.5703,-5.5703,-5.5703,-5.5703,-5.5703,-5.5703,-5.5703,-5.5703,-5.5703,-5.5703,-5.5703,-5.5703,-5.5703,-5.5703,-5.5682,-5.5626,-5.4845,-5.391,-5.2844,-5.0851,-4.9574,-4.9391,-4.8984,-4.9086,-4.9895,-4.9779,-4.9721,-4.9721,-4.893,-4.893,-4.9721,-4.9794,-5.0565,-5.1977,-5.2087,-5.2491,-3.2927,-3.5812,-3.8906,-4.2539,-4.7695,-5.3203,-5.8281,-5.8515,-5.8359,-6.0898,-6.1133,-6.0664,-6.0,-6.043,-6.0703,-6.0234,-6.0859,-6.1484,-6.168,-6.0937,-6.039,-6.039,-5.9687,-5.9219,-5.9219,-5.9219,-5.9219,-5.9219,-5.8398,-5.789,-5.789,-5.707,-5.6601,-5.6601,-5.6601,-5.6601,-5.6601,-5.6601,-5.6601,-5.6601,-5.6597,-5.6541,-5.6428,-5.6784,-5.6801,-5.6621,-5.6527,-5.6463,-5.6425,-5.6425,-5.6279,-5.6036,-5.5994,-5.5857,-5.5703,-5.5703,-5.5703,-5.5703,-5.5703,-5.5703,-5.5703,-5.5703,-5.5703,-5.5703,-5.5703,-5.5703,-5.5703,-5.5703,-5.5703,-5.5703,-5.5703,-5.5703,-5.5703,-5.5703,-5.5703,-5.5703,-5.5703,-5.5703,-5.5703,-5.5703,-5.5703,-5.5703,-5.5703,-5.5703,-5.5703,-5.5703,-5.5703,-5.5703,-5.5703,-5.5703,-5.5703,-5.5692,-5.5517,-5.499,-5.4008,-5.2144,-5.1139,-5.151,-5.0405,-5.0377,-5.1767,-5.0998,-5.0545,-5.0545,-5.0362,-5.0362,-5.0545,-5.1169,-5.1667,-5.2013,-5.2637,-5.3041,-3.2541,-3.597,-4.0117,-4.6445,-5.1016,-5.4961,-5.8867,-5.914,-5.9023,-6.0703,-6.0781,-6.0351,-5.9922,-6.0195,-6.0351,-5.9883,-6.0195,-6.0508,-6.0508,-5.9765,-5.9219,-5.9219,-5.8476,-5.7969,-5.7969,-5.7969,-5.7969,-5.7969,-5.7539,-5.7265,-5.7265,-5.6836,-5.6601,-5.6601,-5.6601,-5.6601,-5.6601,-5.6601,-5.6601,-5.6601,-5.6599,-5.6548,-5.6436,-5.6347,-5.6242,-5.6142,-5.6121,-5.6039,-5.5978,-5.5935,-5.5893,-5.5856,-5.5745,-5.5703,-5.5703,-5.5703,-5.5703,-5.5703,-5.5703,-5.5703,-5.5703,-5.5703,-5.5703,-5.5703,-5.5703,-5.5703,-5.5703,-5.5703,-5.5703,-5.5703,-5.5703,-5.5703,-5.5703,-5.5703,-5.5703,-5.5703,-5.5703,-5.5703,-5.5703,-5.5703,-5.5703,-5.5703,-5.5703,-5.5703,-5.5703,-5.5703,-5.5703,-5.5703,-5.5703,-5.5703,-5.5703,-5.5703,-5.5703,-5.5325,-5.4441,-5.3345,-5.2628,-5.2403,-5.187,-5.1921,-5.2641,-5.2417,-5.1979,-5.1389,-5.0986,-5.0986,-5.1389,-5.1793,-5.2197,-5.2564,-5.3004,-5.3203,-3.2189,-3.6359,-4.1719,-5.0156,-5.3672,-5.5898,-5.9023,-5.9219,-5.8984,-5.9805,-5.957,-5.9219,-5.9219,-5.9219,-5.9219,-5.9219,-5.9219,-5.9219,-5.9219,-5.8437,-5.789,-5.789,-5.7148,-5.6601,-5.6601,-5.6601,-5.6601,-5.6601,-5.6601,-5.6601,-5.6601,-5.6601,-5.6601,-5.6601,-5.6601,-5.6601,-5.6601,-5.6601,-5.6601,-5.6601,-5.6601,-5.6556,-5.6497,-5.6347,-5.6246,-5.6222,-5.6222,-5.6191,-5.6122,-5.6015,-5.5954,-5.5929,-5.5788,-5.5756,-5.5745,-5.5735,-5.5735,-5.5724,-5.5714,-5.5703,-5.5703,-5.5703,-5.5703,-5.5703,-5.5703,-5.5703,-5.5703,-5.5703,-5.5703,-5.5703,-5.5703,-5.5703,-5.5703,-5.5703,-5.5703,-5.5703,-5.5703,-5.5703,-5.5703,-5.5703,-5.5703,-5.5703,-5.5703,-5.5703,-5.5703,-5.5703,-5.5703,-5.5703,-5.5703,-5.5703,-5.5703,-5.5703,-5.5703,-5.5423,-5.4688,-5.4407,-5.3934,-5.3137,-5.3238,-5.3327,-5.3337,-5.3698,-5.3441,-5.2404,-5.1658,-5.1577,-5.2238,-5.2218,-5.2564,-5.3203,-5.3203,-5.3203,-3.1226,-3.8033,-4.5156,-4.9453,-5.2383,-5.4687,-5.664,-5.7031,-5.7187,-5.8047,-5.875,-5.9219,-5.9219,-5.9219,-5.9219,-5.9219,-5.9219,-5.9219,-5.9219,-5.8437,-5.789,-5.789,-5.7148,-5.6601,-5.6601,-5.6601,-5.6601,-5.6601,-5.6601,-5.6601,-5.6601,-5.6601,-5.6601,-5.6601,-5.6601,-5.6601,-5.6601,-5.6601,-5.6601,-5.6601,-5.6601,-5.6601,-5.6601,-5.656,-5.6462,-5.6351,-5.6351,-5.6371,-5.6363,-5.6203,-5.6155,-5.6156,-5.6029,-5.5902,-5.5865,-5.5866,-5.5827,-5.5776,-5.5724,-5.5703,-5.5703,-5.5703,-5.5703,-5.5703,-5.5703,-5.5703,-5.5703,-5.5703,-5.5703,-5.5703,-5.5703,-5.5703,-5.5703,-5.5703,-5.5703,-5.5703,-5.5703,-5.5703,-5.5703,-5.5703,-5.5703,-5.5703,-5.5703,-5.5703,-5.5703,-5.5703,-5.5703,-5.5703,-5.5703,-5.5703,-5.5703,-5.5703,-5.5703,-5.5665,-5.5538,-5.4874,-5.4655,-5.5104,-5.4231,-5.3992,-5.4609,-5.4478,-5.4251,-5.3916,-5.3383,-5.3142,-5.315,-5.3083,-5.3093,-5.3203,-5.3203,-5.3203,-3.2844,-3.9128,-4.5115,-4.8594,-5.1016,-5.3242,-5.5976,-5.6211,-5.625,-5.7617,-5.7812,-5.7734,-5.7734,-5.7734,-5.7734,-5.7734,-5.7734,-5.7734,-5.7734,-5.7422,-5.7187,-5.7187,-5.6836,-5.6601,-5.6601,-5.6601,-5.6601,-5.6601,-5.6601,-5.6601,-5.6601,-5.6601,-5.6601,-5.6601,-5.6601,-5.6601,-5.6601,-5.6601,-5.6601,-5.6601,-5.6601,-5.6601,-5.6601,-5.6601,-5.656,-5.6508,-5.6508,-5.6499,-5.6514,-5.6383,-5.6294,-5.6241,-5.6142,-5.6068,-5.6002,-5.5952,-5.5864,-5.5856,-5.5745,-5.5703,-5.5703,-5.5703,-5.5703,-5.5703,-5.5703,-5.5703,-5.5703,-5.5703,-5.5703,-5.5703,-5.5703,-5.5703,-5.5703,-5.5703,-5.5703,-5.5703,-5.5703,-5.5703,-5.5703,-5.5703,-5.5703,-5.5703,-5.5703,-5.5703,-5.5703,-5.5703,-5.5703,-5.5703,-5.5703,-5.5703,-5.5703,-5.5703,-5.5703,-5.5703,-5.5703,-5.5395,-5.5286,-5.5543,-5.5006,-5.4829,-5.5105,-5.4938,-5.4731,-5.4474,-5.3924,-5.3585,-5.3464,-5.3293,-5.3203,-5.3167,-5.2747,-5.2784,-3.3434,-3.8383,-4.2924,-4.664,-4.9023,-5.1211,-5.4297,-5.4805,-5.5117,-5.6875,-5.6719,-5.6328,-5.6562,-5.6601,-5.6601,-5.6601,-5.6601,-5.6601,-5.6601,-5.6601,-5.6601,-5.6601,-5.6601,-5.6601,-5.6601,-5.6601,-5.6601,-5.6601,-5.6601,-5.6601,-5.6601,-5.6601,-5.6601,-5.6601,-5.6601,-5.6601,-5.6601,-5.6601,-5.6601,-5.6601,-5.6601,-5.6601,-5.6601,-5.6601,-5.6601,-5.6601,-5.6601,-5.6601,-5.6594,-5.6454,-5.6386,-5.6358,-5.6299,-5.6241,-5.6173,-5.6029,-5.597,-5.5947,-5.5808,-5.5776,-5.5766,-5.5756,-5.5745,-5.5724,-5.5714,-5.5703,-5.5703,-5.5703,-5.5703,-5.5703,-5.5703,-5.5703,-5.5703,-5.5703,-5.5703,-5.5703,-5.5703,-5.5703,-5.5703,-5.5703,-5.5703,-5.5703,-5.5703,-5.5703,-5.5703,-5.5703,-5.5703,-5.5703,-5.5703,-5.5703,-5.5703,-5.5703,-5.5511,-5.5472,-5.5665,-5.5511,-5.5462,-5.561,-5.5508,-5.5437,-5.5389,-5.5301,-5.513,-5.4874,-5.4292,-5.387,-5.3641,-5.3355,-5.3203,-5.3188,-5.2564,-5.2637,-3.1215,-3.4802,-3.8572,-4.2885,-4.5897,-4.8281,-5.0117,-5.1719,-5.332,-5.5078,-5.539,-5.5625,-5.6445,-5.6601,-5.6601,-5.6601,-5.6601,-5.6601,-5.6601,-5.6601,-5.6601,-5.6601,-5.6601,-5.6601,-5.6601,-5.6601,-5.6601,-5.6601,-5.6601,-5.6601,-5.6601,-5.6601,-5.6601,-5.6601,-5.6601,-5.6601,-5.6601,-5.6601,-5.6601,-5.6601,-5.6601,-5.6601,-5.6601,-5.6601,-5.6601,-5.6601,-5.6601,-5.6601,-5.6599,-5.6508,-5.6495,-5.6482,-5.6413,-5.6379,-5.6372,-5.6214,-5.6175,-5.617,-5.6046,-5.5921,-5.5875,-5.5876,-5.5827,-5.5776,-5.5724,-5.5703,-5.5703,-5.5703,-5.5703,-5.5703,-5.5703,-5.5703,-5.5703,-5.5703,-5.5703,-5.5703,-5.5703,-5.5703,-5.5703,-5.5703,-5.5703,-5.5703,-5.5703,-5.5703,-5.5703,-5.5703,-5.5703,-5.5703,-5.5703,-5.5703,-5.5703,-5.5703,-5.5011,-5.4857,-5.5626,-5.5011,-5.4895,-5.5665,-5.5692,-5.5692,-5.5692,-5.5682,-5.5531,-5.5262,-5.4739,-5.4225,-5.3775,-5.3396,-5.3203,-5.3203,-5.3188,-5.3188,-2.8809,-3.1598,-3.4647,-3.7875,-4.0698,-4.3397,-4.6211,-4.8633,-5.1055,-5.3867,-5.4922,-5.5586,-5.6445,-5.6601,-5.6601,-5.6601,-5.6601,-5.6601,-5.6601,-5.6601,-5.6601,-5.6601,-5.6601,-5.6367,-5.582,-5.5781,-5.5547,-5.4961,-5.4922,-5.4922,-5.4922,-5.4922,-5.4922,-5.4922,-5.4922,-5.5195,-5.5742,-5.5781,-5.6055,-5.6601,-5.6601,-5.6601,-5.6601,-5.6601,-5.6601,-5.6601,-5.6601,-5.6601,-5.6601,-5.6561,-5.6559,-5.6558,-5.6554,-5.6543,-5.6521,-5.6397,-5.6308,-5.6256,-5.6161,-5.6089,-5.6017,-5.5921,-5.5873,-5.5827,-5.5745,-5.5703,-5.5703,-5.5703,-5.5703,-5.5703,-5.5703,-5.5703,-5.5703,-5.5703,-5.5703,-5.5703,-5.5703,-5.5703,-5.5703,-5.5703,-5.5703,-5.5703,-5.5703,-5.5703,-5.5703,-5.5703,-5.5703,-5.5703,-5.5703,-5.5703,-5.5703,-5.5703,-5.5434,-5.5395,-5.5665,-5.5434,-5.5395,-5.5665,-5.5703,-5.5703,-5.5703,-5.5703,-5.5577,-5.539,-5.4938,-5.4425,-5.3944,-5.342,-5.3203,-5.3188,-5.2674,-5.2711,-2.6632,-2.8887,-3.1325,-3.3945,-3.6388,-3.8938,-4.2107,-4.4842,-4.7773,-5.1484,-5.2968,-5.4023,-5.5469,-5.5742,-5.5937,-5.6484,-5.6601,-5.6601,-5.6601,-5.6601,-5.6601,-5.6601,-5.6328,-5.5937,-5.5351,-5.5039,-5.4609,-5.4023,-5.3984,-5.3984,-5.3984,-5.3984,-5.3984,-5.3984,-5.3984,-5.4297,-5.4844,-5.5156,-5.5586,-5.6172,-5.6445,-5.6601,-5.6601,-5.6601,-5.6601,-5.6601,-5.6601,-5.6601,-5.6601,-5.6601,-5.6601,-5.6601,-5.6601,-5.66,-5.6594,-5.6454,-5.643,-5.6361,-5.6308,-5.6251,-5.6185,-5.6044,-5.5986,-5.5965,-5.5827,-5.5817,-5.5817,-5.5817,-5.5758,-5.5787,-5.5766,-5.5735,-5.5703,-5.5703,-5.5703,-5.5703,-5.5703,-5.5703,-5.5703,-5.5703,-5.5703,-5.5703,-5.5703,-5.5703,-5.5703,-5.5703,-5.5703,-5.5703,-5.5703,-5.5703,-5.5703,-5.5703,-5.5472,-5.5395,-5.5665,-5.5164,-5.5088,-5.5665,-5.5434,-5.5434,-5.5703,-5.5703,-5.5626,-5.5425,-5.5091,-5.4708,-5.4309,-5.3699,-5.3375,-5.3318,-5.2782,-5.2757,0.0,0.0,0.0,-3.1159,-3.3104,-3.508,-3.7675,-4.0339,-4.3468,-4.7769,-4.9412,-5.0897,-5.3476,-5.3945,-5.4531,-5.625,-5.6523,-5.6523,-5.6523,-5.6523,-5.6523,-5.6523,-5.5781,-5.5234,-5.5234,-5.4453,-5.3945,-5.3945,-5.3906,-5.3906,-5.3906,-5.3906,-5.3906,-5.3906,-5.3906,-5.3945,-5.3945,-5.4805,-5.5234,-5.5273,-5.6133,-5.6523,-5.6562,-5.6562,-5.6562,-5.6601,-5.6601,-5.6601,-5.6601,-5.6601,-5.6601,-5.6601,-5.6601,-5.6601,-5.6599,-5.6549,-5.6499,-5.6487,-5.6419,-5.6425,-5.6381,-5.6264,-5.6188,-5.6185,-5.6062,-5.602,-5.602,-5.602,-5.5947,-5.5893,-5.5885,-5.5797,-5.5703,-5.5703,-5.5703,-5.5703,-5.5703,-5.5703,-5.5703,-5.5703,-5.5703,-5.5703,-5.5703,-5.5703,-5.5703,-5.5703,-5.5703,-5.5703,-5.5703,-5.5703,-5.5703,-5.5703,-5.5011,-5.4857,-5.5626,-5.4203,-5.3972,-5.5588,-5.4972,-5.4895,-5.5665,-5.5703,-5.5649,-5.5523,-5.5263,-5.504,-5.4924,-5.4158,-5.3775,-5.3641,-5.3541,-5.3396,-2.4165,0.0,0.0,0.0,0.0,0.0,-3.24,-3.5859,-3.9858,-4.4168,-4.6791,-4.9295,-5.2461,-5.3047,-5.3437,-5.4531,-5.4726,-5.4726,-5.4726,-5.4726,-5.4726,-5.4726,-5.4492,-5.4101,-5.3476,-5.3203,-5.2812,-5.2187,-5.2109,-5.2109,-5.2109,-5.2109,-5.2109,-5.2109,-5.2109,-5.2422,-5.3047,-5.3281,-5.375,-5.4375,-5.4609,-5.5039,-5.5664,-5.5664,-5.6015,-5.6601,-5.6601,-5.6601,-5.6601,-5.6601,-5.6601,-5.6601,-5.6601,-5.6601,-5.6601,-5.6561,-5.656,-5.656,-5.6558,-5.6549,-5.6528,-5.6407,-5.632,-5.6271,-5.6185,-5.6155,-5.6155,-5.6155,-5.611,-5.6024,-5.5929,-5.5817,-5.5703,-5.5703,-5.5703,-5.5703,-5.5703,-5.5703,-5.5703,-5.5703,-5.5703,-5.5703,-5.5703,-5.5703,-5.5703,-5.5703,-5.5703,-5.5703,-5.5703,-5.5703,-5.5703,-5.5703,-5.5511,-5.5472,-5.5665,-5.528,-5.5203,-5.5665,-5.5472,-5.5472,-5.5703,-5.5703,-5.5671,-5.5554,-5.5413,-5.5288,-5.5197,-5.4585,-5.4225,-5.405,-5.372,-5.344,-2.4466,-2.485,-2.5284,-2.5828,0.0,0.0,-2.9288,-3.2405,-3.6146,-4.0118,-4.275,-4.5417,-4.8863,-4.949,-4.9764,-5.0663,-5.1093,-5.1953,-5.375,-5.3984,-5.3984,-5.3984,-5.3672,-5.3242,-5.2734,-5.2383,-5.1953,-5.1445,-5.1406,-5.1406,-5.1406,-5.1406,-5.1406,-5.1406,-5.1406,-5.1641,-5.2148,-5.2539,-5.2969,-5.3476,-5.3828,-5.4258,-5.4765,-5.5117,-5.5586,-5.6094,-5.6445,-5.6601,-5.6601,-5.6601,-5.6601,-5.6601,-5.6601,-5.6601,-5.6601,-5.6601,-5.6601,-5.6601,-5.6601,-5.66,-5.6594,-5.6495,-5.6433,-5.6368,-5.6312,-5.6294,-5.6294,-5.6294,-5.6236,-5.6123,-5.5993,-5.5865,-5.5776,-5.5745,-5.5724,-5.5703,-5.5703,-5.5703,-5.5703,-5.5703,-5.5703,-5.5703,-5.5703,-5.5703,-5.5703,-5.5703,-5.5703,-5.5703,-5.5703,-5.5703,-5.5703,-5.5703,-5.5703,-5.5703,-5.5703,-5.5395,-5.5318,-5.5665,-5.5395,-5.5357,-5.5703,-5.5703,-5.5692,-5.566,-5.5543,-5.5523,-5.5488,-5.4995,-5.4585,-5.4292,-5.3998,-5.3699,-2.5577,-2.613,-2.6738,-2.6708,-2.6704,0.0,-2.7633,-2.9737,-3.2474,-3.5805,-3.7859,-4.0106,-4.3489,-4.4123,-4.4402,-4.5305,-4.6247,-4.8397,-5.2695,-5.3359,-5.3437,-5.3437,-5.2734,-5.2266,-5.2266,-5.1562,-5.1172,-5.125,-5.1367,-5.1406,-5.1406,-5.1406,-5.1406,-5.1406,-5.1406,-5.1406,-5.1406,-5.2187,-5.2578,-5.2578,-5.3359,-5.375,-5.3867,-5.4648,-5.5117,-5.5351,-5.6133,-5.6523,-5.6601,-5.6601,-5.6601,-5.6601,-5.6601,-5.6601,-5.6601,-5.6601,-5.6601,-5.6601,-5.6601,-5.6601,-5.6599,-5.6512,-5.6502,-5.6491,-5.643,-5.6422,-5.6419,-5.6416,-5.6312,-5.6197,-5.6128,-5.6007,-5.5885,-5.5827,-5.5756,-5.5703,-5.5703,-5.5703,-5.5703,-5.5703,-5.5703,-5.5703,-5.5703,-5.5703,-5.5703,-5.5703,-5.5703,-5.5703,-5.5703,-5.5703,-5.5703,-5.5703,-5.5703,-5.5703,-5.5703,-5.5049,-5.4934,-5.5665,-5.5011,-5.4934,-5.5665,-5.5703,-5.5703,-5.5703,-5.5703,-5.5703,-5.5703,-5.5314,-5.4895,-5.4474,-5.433,-5.4125,-2.739,-2.7511,-2.7477,-2.6795,-2.6607,0.0,-2.5972,-2.7361,-2.9377,-3.1474,-3.3271,-3.5335,-3.8144,-3.8707,-3.8995,-3.9868,-4.1359,-4.3904,-4.8242,-4.9453,-4.9883,-4.9883,-4.9726,-4.9648,-4.9648,-4.9492,-4.9687,-5.0391,-5.1016,-5.1406,-5.1406,-5.1406,-5.1406,-5.1406,-5.1406,-5.1406,-5.1406,-5.1562,-5.1641,-5.1641,-5.1836,-5.2266,-5.2969,-5.3125,-5.3984,-5.5312,-5.5469,-5.5937,-5.6601,-5.6601,-5.6601,-5.6601,-5.6601,-5.6601,-5.6601,-5.6601,-5.6601,-5.6601,-5.6601,-5.6601,-5.6601,-5.6562,-5.6562,-5.6561,-5.656,-5.656,-5.6558,-5.6549,-5.6441,-5.6347,-5.63,-5.6096,-5.5896,-5.5893,-5.5807,-5.5703,-5.5703,-5.5703,-5.5703,-5.5703,-5.5703,-5.5703,-5.5703,-5.5703,-5.5703,-5.5703,-5.5703,-5.5703,-5.5703,-5.5703,-5.5703,-5.5703,-5.5703,-5.5703,-5.5703,-5.5549,-5.5511,-5.5703,-5.5549,-5.5549,-5.5703,-5.5703,-5.5703,-5.5703,-5.5703,-5.5703,-5.5703,-5.5497,-5.525,-5.4985,-5.4813,-5.4616,-2.9813,-2.9467,-2.8929,-2.8044,-2.7236,0.0,0.0,-2.6323,-2.7666,-2.902,-3.0343,-3.1902,-3.4092,-3.455,-3.4888,-3.5777,-3.7355,-3.9438,-4.2105,-4.5429,-4.793,-4.8789,-4.8906,-4.8906,-4.8906,-4.8906,-4.9258,-5.0117,-5.0937,-5.1406,-5.1406,-5.1406,-5.1406,-5.1406,-5.1406,-5.1406,-5.1406,-5.1406,-5.1406,-5.1406,-5.1406,-5.1641,-5.207,-5.25,-5.3164,-5.4062,-5.4922,-5.5547,-5.5976,-5.6406,-5.6601,-5.6601,-5.6601,-5.6601,-5.6601,-5.6601,-5.6601,-5.6601,-5.6601,-5.6601,-5.6601,-5.6601,-5.6601,-5.6601,-5.6601,-5.6601,-5.6601,-5.6598,-5.6546,-5.6438,-5.6383,-5.622,-5.6061,-5.6056,-5.5929,-5.5856,-5.5788,-5.5807,-5.5787,-5.5756,-5.5724,-5.5703,-5.5703,-5.5703,-5.5703,-5.5703,-5.5703,-5.5703,-5.5703,-5.5703,-5.5703,-5.5703,-5.5703,-5.5703,-5.5703,-5.5703,-5.5703,-5.5703,-5.5703,-5.5703,-5.5703,-5.5703,-5.5703,-5.5703,-5.5703,-5.5703,-5.5703,-5.5649,-5.5485,-5.525,-5.5132,-5.4981,-3.1929,-3.1308,-3.0385,-2.9357,-2.7967,-2.6582,0.0,0.0,0.0,-2.7305,-2.8027,-2.8947,-3.0388,-3.0665,-3.0944,-3.1654,-3.3246,-3.4794,-3.5872,-4.0501,-4.4686,-4.7109,-4.7383,-4.7461,-4.7617,-4.7812,-4.8242,-4.9141,-4.9961,-5.0547,-5.0898,-5.1094,-5.125,-5.1406,-5.1406,-5.1406,-5.1406,-5.1406,-5.1406,-5.1406,-5.1406,-5.1406,-5.1406,-5.2148,-5.2539,-5.2773,-5.418,-5.5,-5.5351,-5.6055,-5.6445,-5.6601,-5.6601,-5.6601,-5.6601,-5.6601,-5.6601,-5.6601,-5.6601,-5.6601,-5.6601,-5.6601,-5.6601,-5.6601,-5.6601,-5.6601,-5.6601,-5.6601,-5.6557,-5.6506,-5.6436,-5.6324,-5.6225,-5.6239,-5.6139,-5.6032,-5.5943,-5.5921,-5.5895,-5.5837,-5.5756,-5.5703,-5.5703,-5.5703,-5.5703,-5.5703,-5.5703,-5.5703,-5.5703,-5.5703,-5.5703,-5.5703,-5.5703,-5.5703,-5.5703,-5.5703,-5.5703,-5.5703,-5.5703,-5.5703,-5.5703,-5.5703,-5.5703,-5.5703,-5.5703,-5.5703,-5.5703,-5.5703,-5.5626,-5.5476,-5.5389,-5.5301,-3.2776,-3.216,-3.116,-2.9511,-2.8434,-2.7313,-2.5654,0.0,-2.5466,-2.5592,0.0,-2.5794,-2.5996,0.0,0.0,-2.6283,-2.7812,-2.9572,-3.1215,-3.339,-3.6578,-4.1401,-4.199,-4.2304,-4.3047,-4.3828,-4.4648,-4.5547,-4.6406,-4.7539,-4.9101,-4.9922,-5.0664,-5.1367,-5.1406,-5.1406,-5.1406,-5.1406,-5.1406,-5.1406,-5.1406,-5.1406,-5.1406,-5.1484,-5.1953,-5.2695,-5.2891,-5.3867,-5.5312,-5.539,-5.5898,-5.6601,-5.6601,-5.6601,-5.6601,-5.6601,-5.6601,-5.6601,-5.6601,-5.6601,-5.6601,-5.6601,-5.6601,-5.6601,-5.6601,-5.6601,-5.6601,-5.6601,-5.6601,-5.6601,-5.6592,-5.6487,-5.6368,-5.6293,-5.6227,-5.6146,-5.6084,-5.5978,-5.5913,-5.5902,-5.5807,-5.5703,-5.5703,-5.5703,-5.5703,-5.5703,-5.5703,-5.5703,-5.5703,-5.5703,-5.5703,-5.5703,-5.5703,-5.5703,-5.5703,-5.5703,-5.5703,-5.5703,-5.5703,-5.5703,-5.5703,-5.5703,-5.5703,-5.5703,-5.5703,-5.5703,-5.5703,-5.5703,-5.5692,-5.5682,-5.5671,-5.566,-3.5238,-3.416,-3.2622,-3.0429,-2.8852,-2.7428,-2.5692,-2.5692,-2.6038,-2.6038,0.0,0.0,0.0,0.0,0.0,0.0,-2.68,-2.774,-2.8997,-3.0278,-3.2788,-3.7525,-3.8549,-3.9256,-4.0117,-4.0976,-4.1875,-4.2734,-4.4023,-4.5547,-4.7305,-4.918,-5.0351,-5.0703,-5.1172,-5.1406,-5.1406,-5.1406,-5.1406,-5.1406,-5.1406,-5.1406,-5.1406,-5.1406,-5.1601,-5.1953,-5.2461,-5.3125,-5.3867,-5.4883,-5.5508,-5.5898,-5.6406,-5.6601,-5.6601,-5.6601,-5.6601,-5.6601,-5.6601,-5.6601,-5.6601,-5.6601,-5.6601,-5.6601,-5.6601,-5.6601,-5.6601,-5.6601,-5.6601,-5.6601,-5.6599,-5.6548,-5.6448,-5.643,-5.6354,-5.6303,-5.6295,-5.6173,-5.6068,-5.6001,-5.5932,-5.5797,-5.5766,-5.5724,-5.5703,-5.5703,-5.5703,-5.5703,-5.5703,-5.5703,-5.5703,-5.5703,-5.5703,-5.5703,-5.5703,-5.5703,-5.5703,-5.5703,-5.5703,-5.5703,-5.5703,-5.5703,-5.5703,-5.5703,-5.5703,-5.5703,-5.5703,-5.5703,-5.5703,-5.5703,-5.5703,-5.5703,-3.7584,-3.6007,-3.4007,-3.1654,-2.966,-2.7775,-2.6038,-2.6154,-2.6621,-2.6621,-2.7274,0.0,0.0,0.0,-2.6617,-2.666,0.0,-2.6558,-2.7257,-2.769,-2.9563,-3.3949,-3.5492,-3.6479,-3.7108,-3.7734,-3.8593,-3.9687,-4.0898,-4.2578,-4.4766,-4.7344,-4.9101,-4.9805,-5.0625,-5.1172,-5.1406,-5.1406,-5.1406,-5.1406,-5.1406,-5.1406,-5.1406,-5.1406,-5.1406,-5.1445,-5.207,-5.2461,-5.2812,-5.4062,-5.4883,-5.5351,-5.6015,-5.6406,-5.6601,-5.6601,-5.6601,-5.6601,-5.6601,-5.6601,-5.6601,-5.6601,-5.6601,-5.6601,-5.6601,-5.6601,-5.6601,-5.6601,-5.6601,-5.6601,-5.6601,-5.6558,-5.6511,-5.6545,-5.6493,-5.6436,-5.6446,-5.6351,-5.623,-5.6162,-5.6032,-5.5875,-5.5847,-5.5766,-5.5703,-5.5703,-5.5703,-5.5703,-5.5703,-5.5703,-5.5703,-5.5703,-5.5703,-5.5703,-5.5703,-5.5703,-5.5703,-5.5703,-5.5703,-5.5703,-5.5703,-5.5703,-5.5703,-5.5703,-5.5703,-5.5703,-5.5703,-5.5703,-5.5703,-5.5703,-5.5703,-5.5703,-3.9207,-3.7392,-3.5038,-3.3276,-3.0929,-2.8626,-2.6928,-2.6582,-2.6621,-2.6621,-2.7274,-2.7895,-2.7895,-2.7198,-2.6582,-2.6582,-2.589,0.0,0.0,-2.4748,-2.5913,-3.0343,-3.2427,-3.3542,-3.3547,-3.3589,-3.4333,-3.6053,-3.6211,-3.7734,-4.1172,-4.3789,-4.6328,-4.8867,-4.9805,-5.0625,-5.1406,-5.1406,-5.1406,-5.1406,-5.1406,-5.1406,-5.1406,-5.1406,-5.1406,-5.1406,-5.1445,-5.1914,-5.2695,-5.2773,-5.3789,-5.5312,-5.5312,-5.5859,-5.6601,-5.6601,-5.6601,-5.6601,-5.6601,-5.6601,-5.6601,-5.6601,-5.6601,-5.6601,-5.6601,-5.6601,-5.6601,-5.6601,-5.6601,-5.6601,-5.6601,-5.6601,-5.6601,-5.6601,-5.6601,-5.6601,-5.6594,-5.6491,-5.6368,-5.6324,-5.6078,-5.5883,-5.5912,-5.5768,-5.5703,-5.5703,-5.5703,-5.5703,-5.5703,-5.5703,-5.5703,-5.5703,-5.5703,-5.5703,-5.5703,-5.5703,-5.5703,-5.5703,-5.5703,-5.5703,-5.5703,-5.5703,-5.5703,-5.5703,-5.5703,-5.5703,-5.5703,-5.5703,-5.5703,-5.5703,-5.5703,-5.5703,-3.9438,-3.7815,-3.5885,-3.416,-3.1852,-2.966,-2.8506,-2.8242,-2.8429,-2.9,-2.9813,-3.0583,-3.1121,-3.0044,-2.8923,-2.8352,-2.7082,-2.5962,0.0,-2.4598,-2.4447,-2.5425,-2.7615,-2.9292,-2.9887,-2.994,-3.0693,-3.2417,-3.3124,-3.5,-3.8437,-4.2148,-4.4805,-4.6289,-4.8828,-5.0312,-5.0586,-5.1133,-5.1406,-5.1406,-5.1406,-5.1406,-5.1406,-5.1406,-5.1406,-5.1406,-5.1406,-5.1562,-5.1875,-5.2461,-5.3047,-5.3672,-5.4844,-5.5469,-5.582,-5.6406,-5.6601,-5.6601,-5.6601,-5.6601,-5.6601,-5.6601,-5.6601,-5.6601,-5.6601,-5.6601,-5.6601,-5.6601,-5.6601,-5.6601,-5.6601,-5.6601,-5.6601,-5.6601,-5.6601,-5.6601,-5.6599,-5.6548,-5.6443,-5.639,-5.6236,-5.6096,-5.6094,-5.6012,-5.5866,-5.5724,-5.5703,-5.5703,-5.5703,-5.5703,-5.5703,-5.5703,-5.5703,-5.5703,-5.5703,-5.5703,-5.5703,-5.5703,-5.5703,-5.5703,-5.5703,-5.5703,-5.5703,-5.5703,-5.5703,-5.5703,-5.5703,-5.5703,-5.5703,-5.5703,-5.5703,-5.5703,-4.0315,-3.8931,-3.7276,-3.5892,-3.3622,-3.1468,-3.0275,-3.0006,-3.016,-3.0731,-3.1775,-3.2852,-3.366,-3.2192,-3.0577,-2.9698,-2.789,-2.6197,0.0,-2.443,-2.3774,-2.2944,-2.4923,-2.6583,-2.7225,-2.7566,-2.8328,-2.9789,-3.0466,-3.2304,-3.5742,-3.9726,-4.2694,-4.449,-4.7888,-4.984,-5.0153,-5.0973,-5.1402,-5.1402,-5.1402,-5.1402,-5.1402,-5.1402,-5.1403,-5.1404,-5.1405,-5.1405,-5.1445,-5.1992,-5.2422,-5.2851,-5.4297,-5.5039,-5.539,-5.6289,-5.6601,-5.6601,-5.6601,-5.6601,-5.6601,-5.6601,-5.6601,-5.6601,-5.6601,-5.6601,-5.6601,-5.6601,-5.6601,-5.6601,-5.6601,-5.6601,-5.6601,-5.6601,-5.6601,-5.6601,-5.6601,-5.6558,-5.651,-5.6484,-5.6344,-5.6261,-5.6242,-5.6149,-5.6001,-5.5798,-5.5776,-5.5766,-5.5745,-5.5724,-5.5703,-5.5703,-5.5703,-5.5703,-5.5703,-5.5703,-5.5703,-5.5703,-5.5703,-5.5703,-5.5703,-5.5703,-5.5703,-5.5703,-5.5703,-5.5703,-5.5703,-5.5703,-5.5703,-5.5703,-5.5703,-5.5703]},{"header":{"parameterUnit":"m.s-1","parameterCategory":1,"la1":30.6,"la2":29.2853,"lo1":-89.7004,"lo2":-87.6739,"dy":0.0162,"dx":0.0183,"nx":112,"ny":82,"refTime":"2026-04-22T00:00:00:Z","depth":0,"parameterNumber":3,"parameterNumberName":"V-component_of_WINDS"},"data":[0.0,0.0,0.0,0.0,0.0,0.0,0.0,0.0,0.0,0.0,0.0,0.0,0.0,0.0,0.0,0.0,0.0,0.0,0.0,0.0,0.0,0.0,0.0,0.0,0.0,0.0,0.0,0.0,0.0,0.0,0.0,0.0,0.0,0.0,0.0,0.0,0.0,0.0,0.0,0.0,0.0,0.0,0.0,0.0,0.0,0.0,0.0,0.0,0.0,0.0,0.0,0.0,0.0,0.0,0.0,0.0,0.0,0.0,0.0,0.0,0.0,0.0,0.0,0.0,0.0,0.0,0.0,0.0,0.0,0.0,0.0,0.0,0.0,0.0,0.0,0.0,0.0,0.0,0.0,0.0,0.0,0.0,0.0,0.0,0.0,0.0,0.0,0.0,0.0,0.0,-0.3351,-0.3011,-0.2463,-0.2023,-0.1679,-0.124,-0.0887,-0.0539,0.0,0.0,0.0,0.0,0.0,0.0,0.0,0.0,0.0,0.0,0.0,0.0,0.0,0.0,0.0,0.0,0.0,0.0,0.0,0.0,0.0,0.0,0.0,0.0,0.0,0.0,0.0,0.0,0.0,0.0,0.0,0.0,0.0,0.0,0.0,0.0,0.0,0.0,0.0,0.0,0.0,0.0,0.0,0.0,0.0,0.0,0.0,0.0,0.0,0.0,0.0,0.0,0.0,0.0,0.0,0.0,0.0,0.0,0.0,0.0,0.0,0.0,0.0,0.0,0.0,0.0,0.0,0.0,0.0,0.0,0.0,0.0,0.0,0.0,0.0,0.0,0.0,0.0,0.0,0.0,0.0,0.0,0.0,0.0,0.0,0.0,0.0,0.0,0.0,0.0,0.0,0.0,0.0,0.0,0.0,0.0,0.0,0.0,0.0,0.0,0.0,0.0,0.0,0.0,-0.4627,-0.4534,-0.4362,-0.3906,-0.3168,-0.2415,-0.1719,-0.1131,0.0,0.0,0.0,0.0,0.0,0.0,0.0,0.0,0.0,0.0,0.0,0.0,0.0,0.0,0.0,0.0,0.0,0.0,0.0,0.0,0.0,0.0,0.0,0.0,0.0,0.0,0.0,0.0,0.0,0.0,0.0,0.0,0.0,0.0,0.0,0.0,0.0,0.0,0.0,0.0,0.0,0.0,0.0,0.0,0.0,0.0,0.0,0.0,0.0,0.0,0.0,0.0,0.0,0.0,0.0,0.0,0.0,0.0,0.0,0.0,0.0,0.0,0.0,0.0,0.0,0.0,0.0,0.0,0.0,0.0,0.0,0.0,0.0,0.0,0.0,0.0,0.0,0.0,0.0,0.0,0.0,0.0,0.0,0.0,0.0,0.0,0.0,0.0,0.0,0.0,0.0,0.0,0.0,0.0,0.0,0.0,0.0,0.0,0.0,0.0,0.0,0.0,0.0,-0.5446,-0.5687,-0.5827,-0.57,-0.5248,-0.4362,-0.3457,-0.2615,-0.1846,-0.0958,0.0,0.0,0.0,0.0,0.0,0.0,0.0,0.0,0.0,0.0,0.0,0.0,0.0,0.0,0.0,0.0,0.0,0.0,0.0,0.0,0.0,0.0,0.0,0.0,0.0,0.0,0.0,0.0,0.0,0.0,0.0,0.0,0.0,0.0,0.0,0.0,0.0,0.0,0.0,0.0,0.0,0.0,0.0,0.0,0.0,0.0,0.0,0.0,0.0,0.0,0.0,0.0,0.0,0.0,0.0,0.0,0.0,0.0,0.0,0.0,0.0,0.0,0.0,0.0,0.0,0.0,0.0,0.0,0.0,0.0,0.0,0.0,0.0,0.0,0.0,0.0,0.0,0.0,0.0,0.0,0.0,0.0,0.0,0.0,0.0,0.0,0.0,0.0,0.0,0.0,0.0,0.0,0.0,0.0,0.0,0.0,0.0,0.0,0.0,0.0,0.0,0.0,-0.6428,-0.6778,-0.7038,-0.7062,-0.6673,-0.5583,-0.4622,-0.3648,-0.2682,-0.1663,0.0,0.0,0.0,0.0,0.0,0.0,0.0,0.0,0.0,0.0,0.0,0.0,0.0,0.0,0.0,0.0,0.0,0.0,0.0,0.0,0.0,0.0,0.0,0.0,0.0,0.0,0.0,0.0,0.0,0.0,0.0,0.0,0.0,0.0,0.0,0.0,0.0,0.0,0.0,0.0,0.0,0.0,0.0,0.0,0.0,0.0,0.0,0.0,0.0,0.0,0.0,0.0,0.0,0.0,0.0,0.0,0.0,0.0,0.0,0.0,0.0,0.0,0.0,0.0,0.0,0.0,0.0,0.0,0.0,0.0,0.0,0.0,0.0,0.0,0.0,0.0,0.0,0.0,0.0,0.0,0.0,0.0,0.0,0.0,0.0,0.0,0.0,0.0,0.0,0.0,0.0,0.0,0.0,0.0,0.0,0.0,0.0,0.0,0.0,0.0,0.0,0.0,-0.7362,-0.8026,-0.8327,-0.8883,-0.8605,-0.7163,-0.6063,-0.4942,-0.3696,-0.244,0.0,0.0,0.0,0.0,0.0,0.0,0.0,0.0,0.0,0.0,0.0,0.0,0.0,0.0,0.0,0.0,0.0,0.0,0.0,0.0,0.0,0.0,0.0,0.0,0.0,0.0,0.0,0.0,0.0,0.0,0.0,0.0,0.0,0.0,0.0,0.0,0.0,0.0,0.0,0.0,0.0,0.0,0.0,0.0,0.0,0.0,0.0,0.0,0.0,0.0,0.0,0.0,0.0,0.0,0.0,0.0,0.0,0.0,0.0,0.0,0.0,0.0,0.0,0.0,0.0,0.0,0.0,0.0,0.0,0.0,0.0,0.0,0.0,0.0,0.0,0.0,0.0,0.0,0.0,0.0,0.0,0.0,0.0,0.0,0.0,0.0,0.0,0.0,0.0,0.0,0.0,0.0,0.0,0.0,0.0,0.0,0.0,0.0,0.0,0.0,0.0,0.0,-0.7435,-0.8153,-0.8452,-0.8989,-0.8803,-0.761,-0.6531,-0.5438,-0.4339,0.0,0.0,0.0,0.0,0.0,0.0,0.0,0.0,0.0,0.0,0.0,0.0,0.0,0.0,0.0,0.0,0.0,0.0,0.0,0.0,0.0,0.0,0.0,0.0,0.0,0.0,0.0,0.0,0.0,0.0,0.0,0.0,0.0,0.0,0.0,0.0,0.0,0.0,0.0,0.0,0.0,0.0,0.0,0.0,0.0,0.0,0.0,0.0,0.0,0.0,0.0,0.0,0.0,0.0,0.0,0.0,0.0,0.0,0.0,0.0,0.0,0.0,0.0,0.0,0.0,0.0,0.0,0.0,0.0,0.0,0.0,0.0,0.0,0.0,0.0,0.0,0.0,0.0,0.0,0.0,0.0,0.0,0.0,0.0,0.0,0.0,0.0,0.0,0.0,0.0,0.0,0.0,0.0,0.0,0.0,0.0,0.0,0.0,0.0,0.0,0.0,0.0,-0.6491,-0.7455,-0.8153,-0.8452,-0.8941,-0.8777,-0.7789,-0.6872,-0.5913,-0.4913,0.0,0.0,0.0,0.0,0.0,0.0,0.0,0.0,0.0,0.0,0.0,0.0,0.0,0.0,0.0,0.0,0.0,0.0,0.0,0.0,0.0,0.0,0.0,0.0,0.0,0.0,0.0,0.0,0.0,0.0,0.0,0.0,0.0,0.0,0.0,0.0,0.0,0.0,0.0,0.0,0.0,0.0,0.0,0.0,0.0,0.0,0.0,0.0,0.0,0.0,0.0,0.0,0.0,0.0,0.0,0.0,0.0,0.0,0.0,0.0,0.0,0.0,0.0,0.0,0.0,0.0,0.0,0.0,0.0,0.0,0.0,0.0,0.0,0.0,0.0,0.0,0.0,0.0,0.0,0.0,0.0,0.0,0.0,0.0,0.0,0.0,0.0,0.0,0.0,0.0,0.0,0.0,0.0,0.0,0.0,0.0,0.0,0.0,0.0,0.0,0.0,0.0,-0.6381,-0.7387,-0.8153,-0.8445,-0.8934,-0.8838,-0.7889,-0.7265,-0.6478,0.0,0.0,0.0,0.0,0.0,0.0,0.0,0.0,0.0,0.0,0.0,0.0,0.0,0.0,0.0,0.0,0.0,0.0,0.0,0.0,0.0,0.0,0.0,0.0,0.0,0.0,0.0,0.0,0.0,0.0,0.0,0.0,0.0,0.0,0.0,0.0,0.0,0.0,0.0,0.0,0.0,0.0,0.0,0.0,0.0,0.0,0.0,0.0,0.0,0.0,0.0,0.0,0.0,0.0,0.0,0.0,0.0,0.0,0.0,0.0,0.0,0.0,0.0,0.0,0.0,0.0,0.0,0.0,0.0,0.0,0.0,0.0,0.0,0.0,0.0,0.0,0.0,0.0,0.0,0.0,0.0,0.0,0.0,0.0,0.0,0.0,0.0,0.0,0.0,0.0,0.0,0.0,0.0,0.0,0.0,0.0,0.0,0.0,0.0,0.0,0.0,0.0,0.0,-0.6498,-0.736,-0.7997,-0.8303,-0.8593,-0.8445,-0.7862,-0.717,-0.641,-0.5576,0.0,0.0,0.0,0.0,0.0,0.0,0.0,0.0,0.0,0.0,0.0,0.0,0.0,0.0,0.0,0.0,0.0,0.0,0.0,0.0,0.0,0.0,0.0,0.0,0.0,0.0,0.0,0.0,0.0,0.0,0.0,0.0,0.0,0.0,0.0,0.0,0.0,0.0,0.0,0.0,0.0,0.0,0.0,0.0,0.0,0.0,0.0,0.0,0.0,0.0,0.0,0.0,0.0,0.0,0.0,0.0,0.0,0.0,0.0,0.0,0.0,0.0,0.0,0.0,0.0,0.0,0.0,0.0,0.0,0.0,0.0,0.0,0.0,0.0,0.0,0.0,0.0,0.0,0.0,0.0,0.0,0.0,0.0,0.0,0.0,0.0,0.0,0.0,0.0,0.0,0.0,0.0,0.0,0.0,0.0,0.0,0.0,0.0,0.0,0.0,0.0,0.0,-0.6478,-0.7312,-0.7929,-0.8286,-0.8343,-0.8241,-0.7841,-0.7183,-0.6471,-0.5725,0.0,0.0,0.0,0.0,0.0,0.0,0.0,0.0,0.0,0.0,0.0,0.0,0.0,0.0,0.0,0.0,0.0,0.0,0.0,0.0,0.0,0.0,0.0,0.0,0.0,0.0,0.0,0.0,0.0,0.0,0.0,0.0,0.0,0.0,0.0,0.0,0.0,0.0,0.0,0.0,0.0,0.0,0.0,0.0,0.0,0.0,0.0,0.0,0.0,0.0,0.0,0.0,0.0,0.0,0.0,0.0,0.0,0.0,0.0,0.0,0.0,0.0,0.0,0.0,0.0,0.0,0.0,0.0,0.0,0.0,0.0,0.0,0.0,0.0,0.0,0.0,0.0,0.0,0.0,0.0,0.0,0.0,0.0,0.0,0.0,0.0,0.0,0.0,0.0,0.0,0.0,0.0,0.0,0.0,0.0,0.0,0.0,0.0,0.0,0.0,0.0,0.0,-0.6395,-0.7251,-0.7909,-0.8214,-0.8235,-0.8113,-0.7814,-0.7258,-0.6573,-0.5867,0.0,0.0,0.0,0.0,0.0,0.0,0.0,0.0,0.0,0.0,0.0,0.0,0.0,0.0,0.0,0.0,0.0,0.0,0.0,0.0,0.0,0.0,0.0,0.0,0.0,0.0,0.0,0.0,0.0,0.0,0.0,0.0,0.0,0.0,0.0,0.0,0.0,0.0,0.0,0.0,0.0,0.0,0.0,0.0,0.0,0.0,0.0,0.0,0.0,0.0,0.0,0.0,0.0,0.0,0.0,0.0,0.0,0.0,0.0,0.0,-0.1374,-0.1681,0.0,0.0,0.0,0.0,0.0,0.0,0.0,0.0,0.0,0.0,0.0,0.0,0.0,0.0,0.0,0.0,0.0,0.0,0.0,0.0,0.0,0.0,0.0,0.0,0.0,0.0,0.0,0.0,0.0,0.0,0.0,0.0,0.0,0.0,0.0,0.0,0.0,0.0,0.0,0.0,-0.6753,-0.732,-0.776,-0.8058,-0.7977,-0.7834,-0.7658,-0.7204,-0.6613,-0.5986,-0.5191,0.0,0.0,0.0,0.0,0.0,0.0,0.0,0.0,0.0,0.0,0.0,0.0,0.0,0.0,0.0,0.0,0.0,0.0,0.0,0.0,0.0,0.0,0.0,0.0,0.0,0.0,0.0,0.0,0.0,0.0,0.0,0.0,0.0,0.0,0.0,0.0,0.0,0.0,0.0,0.0,0.0,0.0,0.0,0.0,0.0,0.0,0.0,0.0,0.0,0.0,0.0,0.0,0.0,0.0,0.0,0.0,0.0,0.0,0.0,-0.2057,-0.2564,0.0,0.0,0.0,0.0,0.0,0.0,0.0,0.0,0.0,0.0,0.0,0.0,0.0,0.0,0.0,0.0,0.0,0.0,0.0,0.0,0.0,0.0,0.0,0.0,0.0,0.0,0.0,0.0,0.0,0.0,0.0,0.0,0.0,0.0,0.0,0.0,0.0,0.0,0.0,0.0,-0.7127,-0.7447,-0.7712,-0.7961,-0.7841,-0.7678,-0.7604,-0.7183,-0.6702,-0.6173,-0.5508,0.0,0.0,0.0,0.0,0.0,0.0,0.0,0.0,0.0,0.0,0.0,0.0,0.0,0.0,0.0,0.0,0.0,0.0,0.0,0.0,0.0,0.0,0.0,0.0,0.0,0.0,0.0,0.0,0.0,0.0,0.0,0.0,0.0,0.0,0.0,0.0,0.0,0.0,0.0,0.0,0.0,0.0,0.0,0.0,0.0,0.0,0.0,0.0,0.0,0.0,0.0,0.0,0.0,-0.0157,-0.0266,-0.0273,-0.0379,-0.1031,-0.2241,-0.3095,-0.368,-0.4113,-0.514,0.0,0.0,0.0,0.0,0.0,0.0,0.0,0.0,0.0,0.0,0.0,0.0,0.0,0.0,0.0,0.0,0.0,0.0,0.0,0.0,0.0,0.0,-0.6607,-0.6865,-0.6729,-0.6443,-0.5965,0.0,0.0,0.0,0.0,0.0,0.0,0.0,0.0,0.0,0.0,0.0,-0.7618,-0.7751,-0.7883,-0.811,-0.787,-0.7738,-0.7785,-0.7454,-0.707,-0.6638,-0.6129,-0.5595,0.0,0.0,0.0,0.0,0.0,0.0,0.0,0.0,0.0,0.0,0.0,0.0,0.0,0.0,0.0,0.0,0.0,0.0,0.0,0.0,0.0,0.0,0.0,0.0,0.0,0.0,0.0,0.0,0.0,0.0,0.0,0.0,0.0665,0.0309,0.0,0.0,0.0,0.0,0.0,0.0,0.0,0.0,0.0,0.0,0.0,0.0,0.0,0.0,0.0,0.0,-0.0169,-0.0453,-0.0826,-0.1198,-0.1487,-0.1828,-0.2773,-0.4127,-0.5343,0.0,-0.5555,-0.6906,0.0,0.0,0.0,0.0,0.0,0.0,0.0,0.0,0.0,0.0,0.0,0.0,0.0,0.0,0.0,0.0,0.0,0.0,0.0,0.0,0.0,0.0,-0.7495,-0.7746,-0.7733,-0.7617,-0.7624,-0.6858,-0.6136,-0.6102,-0.5705,-0.5443,0.0,0.0,0.0,0.0,0.0,0.0,-0.8529,-0.8558,-0.8534,-0.8662,-0.839,-0.8294,-0.852,-0.8611,-0.8432,-0.7902,-0.7668,-0.7114,-0.6115,-0.5448,0.0,0.0,0.0,0.0,0.0,0.0,0.0,0.0,0.0,0.0,0.0,0.0,0.0,0.0,0.0,0.0,0.0,0.0,0.0,0.0,0.0,0.0,0.0,0.0,0.0,0.0,0.0,0.0,0.0,0.0401,0.0256,0.0114,0.0038,0.0,0.0,0.0,0.0,0.0,0.0,0.0,0.0,0.0,0.0,0.0,0.0,0.0,0.0,0.0,-0.0316,-0.0894,-0.1754,-0.2493,-0.3089,-0.3922,-0.4812,-0.5882,-0.7009,-0.7627,-0.778,-0.8431,-0.8377,-0.7828,0.0,0.0,0.0,0.0,-0.7061,-0.7292,-0.7509,-0.7441,-0.7224,-0.6987,0.0,0.0,0.0,0.0,0.0,0.0,0.0,-0.6627,-0.7475,-0.808,-0.852,-0.8751,-0.8679,-0.8507,-0.851,-0.7959,-0.7337,-0.6996,-0.6519,-0.6252,-0.6348,-0.6424,0.0,0.0,0.0,-0.937,-0.9869,-0.9555,-0.9276,-0.9308,-0.9037,-0.8985,-0.93,-0.9804,-0.9939,-0.9424,-0.9393,-0.8805,-0.7466,-0.6633,-0.5834,0.0,0.0,0.0,0.0,0.0,0.0,0.0,0.0,0.0,0.0,0.0,0.0,0.0,0.0,0.0,0.0,0.0,0.0,0.0,0.0,0.0,0.0,0.0,0.0,0.0,0.0,0.0,0.0,0.0,0.0,0.0,0.0,0.0,0.0,0.0,0.0,0.0,0.0,0.0,-0.0417,-0.053,-0.0551,-0.0588,-0.061,-0.0569,-0.059,-0.0605,-0.1025,-0.1934,-0.2976,-0.3969,-0.485,-0.5915,-0.6774,-0.7551,-0.8464,-0.9173,-0.9689,-0.9673,-0.9354,-0.8825,-0.8228,-0.7997,-0.7997,-0.7997,-0.816,-0.8404,-0.856,-0.8513,-0.8336,-0.8038,-0.7584,-0.7115,-0.6885,0.0,0.0,0.0,0.0,-0.7368,-0.8319,-0.9082,-0.9605,-0.9783,-0.9721,-0.9555,-0.9308,-0.88,-0.8214,-0.7651,-0.721,-0.6958,-0.7141,-0.7413,0.0,-0.9339,-1.0199,-1.0818,-1.1155,-1.0648,-1.0254,-1.021,-0.9883,-0.9828,-1.0218,-1.0959,-1.1194,-1.0731,-1.0783,-1.0176,-0.8684,-0.7683,-0.6727,-0.5774,0.0,0.0,0.0,0.0,0.0,0.0,0.0,0.0,0.0,0.0,0.0,0.0,0.0,0.0,0.0,0.0,0.0,0.0,0.0,0.0,0.0,0.0,0.0,0.0,0.0,0.0,0.0,0.0,0.0,0.0,0.0,0.0,0.0,0.0,0.0,-0.0462,-0.081,-0.1176,-0.1484,-0.1909,-0.2096,-0.2071,-0.2162,-0.2158,-0.2189,-0.2153,-0.2726,-0.3848,-0.4673,-0.5699,-0.6768,-0.7643,-0.8415,-0.9213,-0.9646,-1.0144,-1.069,-1.0498,-1.0249,-0.9849,-0.9306,-0.9132,-0.9132,-0.9132,-0.9234,-0.9334,-0.949,-0.9442,-0.9266,-0.8967,-0.837,-0.7767,-0.7746,-0.7428,0.0,0.0,-0.7753,-0.8014,-0.9043,-1.0084,-1.0847,-1.0996,-1.103,-1.0849,-1.0272,-0.9388,-0.8554,-0.8042,-0.776,-0.7682,-0.806,0.0,-0.9384,-1.0473,-1.161,-1.235,-1.2224,-1.1807,-1.1521,-1.1505,-1.1062,-1.0938,-1.1447,-1.196,-1.2055,-1.1547,-1.1555,-1.0941,-0.9572,-0.8446,-0.7511,-0.675,-0.6076,0.0,0.0,0.0,0.0,0.0,0.0,0.0,0.0,0.0,0.0,0.0,0.0,0.0,0.0,0.0,0.0,0.0,0.0,0.0,0.0,0.0,0.0,0.0,0.0,0.0,0.0,0.0,0.0,0.0,0.0,0.0,0.0,0.0,-0.0278,-0.0928,-0.1745,-0.2555,-0.3158,-0.4057,-0.4533,-0.4504,-0.4572,-0.4566,-0.4556,-0.4578,-0.5018,-0.5948,-0.698,-0.793,-0.8873,-0.9856,-1.0534,-1.0822,-1.0894,-1.1155,-1.1297,-1.113,-1.0778,-1.0283,-0.9781,-0.9585,-0.9585,-0.9585,-0.968,-0.9836,-0.9985,-0.9876,-0.9598,-0.9205,-0.8832,-0.852,-0.8418,-0.8208,-0.8058,-0.8316,-0.8459,-0.8733,-0.97,-1.0841,-1.1781,-1.19,-1.21,-1.2054,-1.1343,-1.0461,-0.9655,-0.9259,-0.8464,-0.809,-0.8745,-0.947,-1.0346,-1.1652,-1.2954,-1.3796,-1.3771,-1.3182,-1.2734,-1.2651,-1.2213,-1.2104,-1.2478,-1.3071,-1.3294,-1.2915,-1.2725,-1.1976,-1.0502,-0.9452,-0.847,-0.7457,-0.6991,-0.6603,0.0,0.0,0.0,0.0,0.0,0.0,0.0,0.0,0.0,0.0,0.0,0.0,0.0,0.0,0.0,0.0,0.0,0.0,0.0,0.0,0.0,0.0,0.0,0.0,0.0,0.0,-0.0054,-0.017,-0.0298,-0.0426,-0.054,-0.0659,-0.1091,-0.1999,-0.3005,-0.3942,-0.4821,-0.5776,-0.6385,-0.6391,-0.6426,-0.648,-0.6494,-0.6524,-0.697,-0.777,-0.8709,-0.9507,-1.0317,-1.1181,-1.1619,-1.1619,-1.1619,-1.1619,-1.1606,-1.1457,-1.1124,-1.0683,-1.0337,-1.0168,-1.0127,-1.0127,-1.0188,-1.022,-1.0337,-1.0154,-0.9849,-0.9551,-0.9354,-0.9161,-0.9117,-0.8981,-0.8886,-0.8988,-0.9049,-0.9307,-1.0316,-1.1634,-1.2691,-1.3008,-1.3454,-1.3536,-1.2684,-1.1732,-1.0976,-1.0723,-0.9622,-0.8957,-0.9638,-1.0528,-1.1521,-1.2696,-1.3938,-1.4771,-1.4726,-1.4188,-1.3824,-1.3722,-1.3381,-1.3218,-1.3385,-1.393,-1.4028,-1.3493,-1.3213,-1.2368,-1.0887,-0.9973,-0.9022,-0.802,-0.7618,-0.7253,-0.6829,0.0,0.0,0.0,0.0,0.0,0.0,0.0,0.0,0.0,0.0,0.0,0.0,0.0,0.0,0.0,0.0,0.0,0.0,0.0,0.0,0.0,0.0,0.0,0.0,0.0,-0.0176,-0.0554,-0.0965,-0.1379,-0.1747,-0.2067,-0.2712,-0.3809,-0.4506,-0.5357,-0.6443,-0.7111,-0.7564,-0.7669,-0.7774,-0.7879,-0.7979,-0.816,-0.8579,-0.9374,-0.974,-1.0317,-1.1044,-1.1404,-1.1619,-1.1619,-1.1619,-1.1619,-1.1606,-1.1457,-1.1307,-1.1151,-1.1002,-1.0786,-1.0717,-1.0717,-1.0717,-1.0697,-1.0548,-1.0304,-0.9997,-0.999,-0.9883,-0.9822,-0.9815,-0.972,-0.9605,-0.9605,-0.9496,-0.9729,-1.0928,-1.2373,-1.3729,-1.4359,-1.4984,-1.5193,-1.4309,-1.3226,-1.2443,-1.2433,-1.1277,-1.045,-1.0913,-1.1915,-1.2863,-1.3467,-1.461,0.0,-1.5068,-1.4832,-1.4706,-1.471,-1.4406,-1.4239,-1.4226,-1.4392,-1.4135,-1.328,-1.2945,-1.2161,-1.077,-0.9951,-0.9162,-0.8434,-0.7958,-0.7672,-0.7531,0.0,0.0,0.0,0.0,0.0,0.0,0.0,0.0,0.0,0.0,0.0,0.0,0.0,0.0,0.0,0.0,0.0,0.0,0.0,0.0,0.0,0.0,0.0,0.0,0.0,-0.025,-0.0968,-0.1881,-0.267,-0.3171,-0.4003,-0.4863,-0.5718,-0.6619,-0.7503,-0.8366,-0.9303,-0.985,-0.9986,-1.0029,-1.016,-1.0466,-1.0696,-1.0844,-1.0972,-1.1213,-1.1352,-1.1476,-1.1548,-1.1619,-1.1619,-1.1619,-1.1619,-1.1613,-1.1572,-1.1402,-1.1151,-1.1002,-1.0786,-1.0717,-1.0717,-1.0717,-1.0697,-1.0548,-1.0371,-1.0202,-1.0024,-0.9883,-0.9802,-0.97,-0.9639,-0.9644,-0.971,-0.9873,-1.0328,-1.162,-1.3162,-1.4553,-1.5104,-1.5797,-1.6077,-1.5061,-1.4259,-1.3645,-1.3292,-1.3161,-1.3088,-1.2788,-1.3347,-1.401,-1.4569,-1.5089,-1.5345,-1.5299,-1.5055,-1.4936,-1.4903,-1.4857,-1.4792,-1.4767,-1.4456,-1.4015,-1.3507,-1.2639,-1.177,-1.0956,-1.0098,-0.9343,-0.8712,-0.8566,-0.8473,0.0,0.0,0.0,0.0,0.0,0.0,0.0,0.0,0.0,0.0,0.0,0.0,0.0,0.0,0.0,0.0,0.0,0.0,0.0,0.0,0.0,0.0,0.0,-0.0112,-0.0456,-0.0491,-0.0911,-0.2021,-0.319,-0.414,-0.4911,-0.5827,-0.6673,-0.7328,-0.8076,-0.8806,-0.9563,-1.024,-1.0724,-1.0873,-1.088,-1.109,-1.1389,-1.1626,-1.1701,-1.1619,-1.1701,-1.1701,-1.1619,-1.1619,-1.1619,-1.1619,-1.1619,-1.1619,-1.1619,-1.1619,-1.1477,-1.1246,0.0,0.0,0.0,0.0,-1.0717,-1.0711,-1.0616,-1.0493,-1.0344,-1.0195,-1.0039,-0.9815,-0.9673,-0.9564,-0.9541,-0.9788,-1.0201,-1.0868,-1.2236,-1.3877,-1.5299,-1.5844,-1.6596,-1.7006,-1.6176,-1.5618,-1.5193,-1.4924,-1.5071,0.0,-1.5017,-1.4999,-1.5082,-1.5417,-1.5491,-1.5578,-1.5578,-1.5324,-1.519,-1.5311,-1.5324,-1.5284,-1.5196,-1.4723,0.0,0.0,0.0,-1.1846,-1.0881,-1.0117,0.0,0.0,0.0,0.0,0.0,0.0,0.0,0.0,-0.8604,-0.8671,0.0,0.0,0.0,0.0,0.0,0.0,0.0,0.0,0.0,0.0,0.0,0.0,0.0,0.0,0.0,0.0,-0.0113,-0.043,-0.1352,-0.1579,-0.2157,-0.3562,-0.4826,-0.5973,-0.6934,-0.7673,-0.8344,-0.8806,-0.9105,-0.957,-1.0193,-1.0379,0.0,0.0,0.0,-1.109,-1.1389,-1.1558,-1.1633,-1.1619,-1.1633,-1.1633,-1.1619,-1.1619,-1.1619,-1.1619,-1.1619,-1.1619,-1.1619,-1.1619,-1.1531,-1.1375,-1.1206,-1.0968,-1.0717,-1.0717,-1.0717,-1.0717,-1.0717,0.0,0.0,-1.0344,-1.0188,-0.9936,-0.972,-0.9517,-0.9463,-0.9823,-1.0373,-1.1253,-1.2709,-1.4393,-1.5803,-1.6357,-1.7277,-1.7809,-1.7236,-1.6941,-1.674,-1.6714,-1.6727,-1.6834,-1.7152,-1.6575,-1.6024,-1.5999,-1.5888,-1.5771,-1.5744,-1.5551,-1.5498,-1.5752,-1.5758,0.0,-1.5471,-1.515,-1.4767,-1.4175,-1.3266,-1.2087,-1.0653,-1.009,-0.9796,-0.974,-1.0047,-1.0381,-1.0747,-1.1069,-1.1209,-1.1223,-1.0568,-1.0217,0.0,0.0,0.0,0.0,0.0,0.0,0.0,0.0,0.0,0.0,0.0,0.0,0.0,0.0,0.0,-0.038,-0.0703,-0.1441,-0.2782,-0.3783,-0.4512,-0.4832,-0.6749,-0.8235,-0.8815,-0.9749,-1.0299,-1.0266,-1.0274,-1.0326,-1.0578,-1.0509,-1.0629,-1.0873,-1.088,-1.109,-1.1389,-1.1653,-1.1735,-1.1619,-1.1735,0.0,-1.1619,-1.1619,-1.1619,-1.1619,-1.1619,-1.1619,-1.1619,-1.1619,-1.1531,-1.1362,-1.1097,-1.088,-1.0717,-1.0717,-1.0717,-1.0717,-1.0717,-1.0622,-1.0487,-1.046,-1.027,-0.9957,-0.9836,-0.9591,0.0,-0.988,-1.0492,-1.1354,-1.2602,-1.4182,-1.5545,-1.5959,-1.6842,-1.746,-1.6925,-1.6947,-1.7045,-1.6754,-1.6901,-1.7139,-1.7192,-1.7038,-1.6868,-1.6573,-1.6117,-1.5704,-1.5511,-1.5431,-1.5418,-1.5471,-1.5685,-1.5758,-1.5752,-1.5271,-1.4816,-1.4456,-1.3146,-1.1873,-1.064,-1.0479,-1.0305,-1.0033,-1.0555,-1.1089,-1.1658,-1.2181,-1.2569,-1.2759,-1.1677,-1.1016,0.0,0.0,0.0,0.0,0.0,0.0,0.0,0.0,0.0,0.0,0.0,0.0,0.0,0.0,-0.0161,-0.0684,-0.1454,-0.2564,-0.4047,-0.5828,-0.6909,-0.6697,-0.8126,-0.9411,-0.9926,-1.0551,-1.082,-1.0731,-1.0649,-1.067,-1.0759,-1.0765,-1.086,-1.1158,-1.1172,-1.128,-1.1504,-1.1653,-1.1687,-1.1619,-1.1694,-1.1687,-1.1619,-1.1619,-1.1619,-1.1619,-1.1619,-1.1619,-1.1619,-1.1619,-1.1484,-1.126,-1.1111,-1.0968,-1.0759,-1.0751,-1.0717,-1.0717,-1.0717,-1.067,-1.0595,-1.0514,-1.0392,-1.0215,-0.991,-0.9666,-0.9566,-0.9852,-1.0437,-1.1244,-1.2229,-1.3532,-1.4649,-1.5074,-1.5995,-1.6765,-1.6514,-1.6938,-1.738,-1.7168,-1.7261,-1.742,-1.742,-1.742,-1.7221,-1.6767,-1.6206,-1.5678,-1.5431,-1.5271,-1.5231,-1.5378,-1.5658,-1.5784,-1.5784,-1.5297,-1.471,-1.4079,-1.3106,-1.2064,-1.1035,-1.0995,-1.0848,-1.0568,-1.1276,-1.1864,-1.2342,-1.2906,-1.328,-1.3373,-1.2774,-1.2348,0.0,0.0,0.0,0.0,0.0,0.0,0.0,0.0,0.0,0.0,0.0,0.0,-0.0106,-0.0165,-0.046,-0.1301,-0.2493,-0.3861,-0.5366,-0.7481,-0.8801,-0.8555,-0.9433,-1.0199,-1.0694,-1.0825,-1.082,-1.0731,-1.0751,-1.0833,-1.0982,-1.0948,-1.1158,-1.1423,-1.1436,-1.1497,-1.1619,-1.1619,-1.1619,-1.1619,-1.1619,-1.1619,-1.1619,-1.1619,-1.1619,-1.1619,-1.1619,-1.1619,-1.1619,-1.1586,-1.143,-1.1199,-1.1145,-1.105,-1.086,-1.0778,-1.0717,-1.0717,-1.0717,-1.0717,-1.0697,-1.0575,-1.0514,-1.0419,-1.0032,-0.9788,-0.9651,-0.9838,-1.0362,-1.1023,-1.1742,-1.2645,-1.3591,-1.4068,-1.5066,-1.6002,-1.6196,-1.6935,-1.7582,-1.7582,-1.7582,-1.7582,-1.7582,-1.7582,-1.7382,-1.6794,-1.6259,-1.5792,-1.5444,-1.5196,-1.5115,-1.5364,-1.5605,-1.5704,-1.5704,-1.5271,-1.4589,-1.3653,-1.3133,-1.2476,-1.1543,-1.1516,-1.1396,-1.1169,-1.1971,-1.2569,-1.2878,-1.344,-1.3693,-1.3693,-1.3746,-1.3586,0.1001,0.0432,0.0044,0.0,0.0,0.0,0.0,0.0,0.0,0.0,0.0,-0.0113,-0.0398,-0.0702,-0.1324,-0.2628,-0.4013,-0.5409,-0.7111,-0.8634,-0.9695,-1.0091,-1.0753,-1.1188,-1.1109,-1.0968,-1.082,-1.0731,-1.0779,-1.0989,-1.1131,-1.1267,-1.1416,-1.1586,-1.1592,-1.1599,-1.1619,-1.1619,-1.1619,-1.1619,-1.1619,-1.1619,-1.1619,-1.1619,-1.1619,-1.1619,-1.1619,-1.1619,-1.1606,-1.147,-1.1396,-1.1341,-1.1077,-1.0894,-1.086,-1.0778,-1.0717,-1.0717,-1.0717,-1.0717,-1.0717,-1.0704,-1.0602,-1.046,-1.0283,-1.0025,-0.9821,-0.9954,-1.0317,-1.0815,-1.1126,-1.1893,-1.2641,-1.3114,-1.4295,-1.54,-1.5833,-1.6842,-1.7582,-1.7582,-1.7582,-1.7582,-1.7582,-1.7582,-1.7382,-1.6794,-1.6433,-1.6019,-1.5471,-1.5196,-1.5115,-1.5364,-1.5431,-1.5444,-1.5444,-1.515,-1.4589,-1.3653,-1.3333,-1.2759,-1.1899,-1.1859,-1.1832,-1.1806,-1.2422,-1.2891,-1.316,-1.3748,-1.4041,-1.4041,-1.4309,-1.4079,0.0534,0.0133,0.0,0.0,0.0,0.0,0.0,0.0,0.0,0.0,0.0,-0.0186,-0.0731,-0.1471,-0.2416,-0.3802,-0.5672,-0.7317,-0.8424,-0.9725,-1.0593,-1.0584,-1.0705,-1.0785,-1.0894,-1.0772,-1.0697,-1.0717,-1.0793,-1.1009,-1.1158,-1.1307,-1.1463,-1.1613,-1.1619,-1.1619,-1.1619,-1.1619,-1.1619,-1.1619,-1.1619,-1.1619,-1.1619,-1.1619,-1.1619,-1.1619,-1.1619,-1.1619,-1.1606,-1.1457,-1.1341,-1.124,-1.1029,-1.0826,-1.0806,-1.0744,-1.0717,-1.0717,-1.0717,-1.0717,-1.0717,-1.0717,-1.0677,-1.0582,-1.0351,-1.0188,-1.0039,-0.9916,-1.0039,-1.0227,-1.0287,-1.0629,-1.1098,-1.1902,-1.3231,-1.4526,-1.537,-1.6637,-1.7582,-1.7582,-1.7582,-1.7582,-1.7582,-1.7582,-1.7382,-1.6794,-1.6313,-1.5805,-1.5217,-1.4883,-1.4883,-1.5351,-1.5391,-1.5471,-1.5631,-1.5231,-1.4656,-1.3948,-1.3467,-1.2812,-1.194,-1.2234,-1.2342,-1.2131,-1.2879,-1.3414,-1.3721,-1.4135,-1.4429,-1.4646,-1.4723,-1.4736,0.0181,0.0,0.0,0.0,0.0,0.0,0.0,0.0,0.0,0.0,0.0,-0.0259,-0.1071,-0.2198,-0.3464,-0.4936,-0.7065,-0.8768,-0.9425,-1.0467,-1.0975,-1.0636,-1.0371,-1.0304,-1.0514,-1.0473,-1.0514,-1.0704,-1.0941,-1.1118,-1.1219,-1.1369,-1.1504,-1.1613,-1.1619,-1.1619,-1.1619,-1.1619,-1.1619,-1.1619,-1.1619,-1.1619,-1.1619,-1.1619,-1.1619,-1.1619,-1.1619,-1.1619,-1.1606,-1.1409,-1.126,-1.1214,-1.0962,-1.0819,-1.0717,-1.0717,-1.0717,-1.0717,-1.0717,-1.0717,-1.0717,-1.0717,-1.0717,-1.0663,-1.0371,-1.0283,-1.0215,-0.991,-0.9822,-0.9822,-0.9822,-0.9822,-1.0084,-1.1126,-1.2605,-1.3974,-1.5055,-1.6497,-1.7582,-1.7582,-1.7582,-1.7582,-1.7582,-1.7582,-1.7382,-1.6794,-1.6273,-1.5712,-1.5102,-1.471,-1.4656,-1.5003,-1.5177,-1.5391,-1.5685,-1.5177,-1.4629,-1.4122,-1.3614,-1.2959,-1.2181,-1.2717,-1.2893,-1.2679,-1.3427,-1.3946,-1.4202,-1.4496,-1.475,-1.5008,-1.5089,-1.519,0.0,0.0,0.0,0.0,0.0,0.0,0.0,0.0,0.0,0.0,0.0,-0.0315,-0.1299,-0.2681,-0.4233,-0.5962,-0.7888,-0.9377,-1.0054,-1.0584,-1.0792,-1.0344,-1.0154,-0.9997,-1.0004,-1.0202,-1.0405,-1.0697,-1.1131,-1.1382,-1.1382,-1.1531,-1.1613,-1.1619,-1.1619,-1.1619,-1.1619,-1.1619,-1.1619,-1.1619,-1.1619,-1.1619,-1.1619,-1.1619,-1.1619,-1.1619,-1.1619,-1.1619,-1.1599,-1.1294,-1.1165,-1.12,-1.0839,-1.0724,-1.0717,-1.0717,-1.0717,-1.0717,-1.0717,-1.0717,-1.0717,-1.0717,-1.0717,-1.0663,-1.0371,-1.0283,-1.0215,-0.991,-0.9822,-0.9822,-0.9822,-0.9822,-1.0084,-1.1126,-1.2605,-1.3974,-1.5055,-1.6497,-1.7582,-1.7582,-1.7582,-1.7582,-1.7582,-1.7582,-1.7382,-1.6794,-1.6446,-1.5986,-1.5115,-1.471,-1.4416,-1.4162,-1.4643,-1.5142,-1.5391,-1.487,-1.4402,-1.4108,-1.3801,-1.336,-1.2784,-1.3293,-1.3573,-1.356,-1.4146,-1.4496,-1.4509,-1.4803,-1.4995,-1.5022,-1.5257,-1.5391,0.0,0.0,0.0,0.0,0.0,0.0,0.0,0.0,0.0,0.0,0.0,-0.0371,-0.1522,-0.3347,-0.5107,-0.6621,-0.8688,-1.0143,-1.0505,-1.0698,-1.067,-1.0324,-1.0148,-1.0012,-0.991,-0.9944,-1.0141,-1.0541,-1.0894,-1.1138,-1.1233,-1.1484,-1.1619,-1.1619,-1.1619,-1.1619,-1.1619,-1.1619,-1.1619,-1.1619,-1.1619,-1.1619,-1.1619,-1.1619,-1.1619,-1.1619,-1.1619,-1.1619,-1.1592,-1.1287,-1.1234,-1.12,-1.0833,-1.0717,-1.0717,-1.0717,-1.0717,-1.0717,-1.0717,-1.0717,-1.0717,-1.0717,-1.0717,-1.0663,-1.0371,-1.0283,-1.0215,-0.991,-0.9822,-0.9822,-0.9822,-0.9822,-1.0112,-1.1379,-1.2863,-1.4313,-1.53,-1.677,-1.7822,-1.7622,-1.7582,-1.7582,-1.7582,-1.7582,-1.7315,-1.654,-1.5893,-1.5196,-1.4469,-1.4295,-1.4202,-1.4095,-1.4429,-1.479,-1.5129,-1.475,-1.4266,-1.3786,-1.3653,-1.3373,-1.2811,-1.3507,-1.3935,-1.3935,-1.4509,-1.491,-1.5097,-1.5204,-1.5351,-1.5538,-1.5631,-1.5685,0.0,0.0,0.0,0.0,0.0,0.0,0.0,0.0,0.0,0.0,0.0,-0.0357,-0.1649,-0.3635,-0.5523,-0.6751,-0.8724,-1.0156,-1.03,-1.0319,-1.03,-1.0192,-1.0159,-1.0093,-0.9992,-0.9883,-0.9985,-1.0385,-1.0744,-1.1009,-1.1158,-1.145,-1.1619,-1.1619,-1.1619,-1.1619,-1.1619,-1.1619,-1.1619,-1.1619,-1.1619,-1.1619,-1.1619,-1.1619,-1.1619,-1.1619,-1.1619,-1.1619,-1.1592,-1.1287,-1.1234,-1.12,-1.0833,-1.0717,-1.0717,-1.0717,-1.0717,-1.0717,-1.0717,-1.0717,-1.0717,-1.0717,-1.0717,-1.0663,-1.0371,-1.0283,-1.0215,-0.991,-0.9822,-0.9822,-0.9822,-0.9822,-1.0126,-1.145,-1.3022,-1.4483,-1.5411,-1.6851,-1.7902,-1.7649,-1.7582,-1.7582,-1.7582,-1.7502,-1.7259,-1.6526,-1.5685,-1.483,-1.4028,-1.3935,-1.3895,-1.3788,-1.3948,-1.4215,-1.466,-1.4282,-1.3895,-1.3467,-1.3547,-1.3387,-1.2971,-1.3868,-1.4402,-1.4402,-1.4977,-1.5364,-1.5551,-1.5551,-1.5645,-1.5784,-1.5784,-1.5784,0.0,0.0,0.0,0.0,0.0,0.0,0.0,0.0,0.0,0.0,0.0,-0.039,-0.156,-0.3611,-0.539,-0.6422,-0.8081,-0.9353,-0.9564,-0.9582,-0.9666,-0.9934,-1.0192,-1.0297,-1.029,-1.0019,-0.9964,-1.0256,-1.069,-1.1002,-1.122,-1.145,-1.1619,-1.1619,-1.1619,-1.1619,-1.1619,-1.1619,-1.1619,-1.1619,-1.1619,-1.1619,-1.1619,-1.1619,-1.1619,-1.1619,-1.1619,-1.1619,-1.1592,-1.1287,-1.1234,-1.12,-1.0833,-1.0717,-1.0717,-1.0717,-1.0717,-1.0717,-1.0717,-1.0717,-1.0717,-1.0717,-1.0717,-1.0663,-1.0371,-1.0283,-1.0215,-0.991,-0.9822,-0.9822,-0.9822,-0.9822,-1.0126,-1.145,-1.3031,-1.4494,-1.5411,-1.6864,-1.7916,-1.7649,-1.7582,-1.7582,-1.7582,-1.7407,-1.7112,-1.6754,-1.5979,-1.5017,-1.3773,-1.3613,-1.348,-1.3213,-1.3213,-1.3454,-1.4015,-1.3574,-1.3253,-1.3227,-1.3467,-1.3507,-1.3267,-1.4392,-1.5022,-1.5035,-1.5538,-1.5784,-1.5784,-1.5784,-1.5784,-1.5784,-1.5784,-1.5784,0.0,0.0,0.0,0.0,0.0,0.0,0.0,0.0,0.0,0.0,0.0,-0.031,-0.1377,-0.3347,-0.5054,-0.5834,-0.7054,-0.8013,-0.8296,-0.8387,-0.8623,-0.9269,-1.0103,-1.0561,-1.0453,-1.027,-1.0195,-1.0276,-1.0588,-1.0894,-1.1151,-1.145,-1.1619,-1.1619,-1.1619,-1.1619,-1.1619,-1.1619,-1.1619,-1.1619,-1.1619,-1.1619,-1.1619,-1.1619,-1.1619,-1.1619,-1.1619,-1.1619,-1.1592,-1.1287,-1.1234,-1.12,-1.0833,-1.0717,-1.0717,-1.0717,-1.0717,-1.0717,-1.0717,-1.0717,-1.0717,-1.0717,-1.0717,-1.0663,-1.0371,-1.0283,-1.0215,-0.991,-0.9822,-0.9822,-0.9822,-0.9822,-1.0126,-1.145,-1.32,-1.47,-1.5456,-1.7067,-1.8223,-1.7689,-1.7582,-1.7582,-1.7582,-1.7515,-1.7301,-1.678,-1.6326,-1.5551,-1.4148,-1.3733,-1.34,-1.2958,-1.3267,-1.3547,-1.3706,-1.3828,-1.3774,-1.3507,-1.3814,-1.3935,-1.3868,-1.462,-1.5115,-1.5284,-1.5645,-1.5784,-1.5784,-1.5784,-1.5784,-1.5784,-1.5784,-1.5784,0.0,0.0,0.0,0.0,0.0,0.0,0.0,0.0,0.0,0.0,0.0,-0.0288,-0.1293,-0.3197,-0.4798,-0.5397,-0.6246,-0.6992,-0.7387,-0.7468,-0.7781,-0.8778,-0.993,-1.0616,-1.0595,-1.046,-1.0399,-1.0466,-1.0561,-1.0724,-1.0955,-1.1253,-1.1416,-1.1416,-1.1416,-1.1416,-1.1416,-1.1416,-1.1416,-1.1416,-1.1491,-1.1518,-1.1518,-1.1592,-1.1619,-1.1619,-1.1619,-1.1619,-1.1592,-1.1287,-1.1234,-1.12,-1.0833,-1.0717,-1.0717,-1.0717,-1.0717,-1.0717,-1.0717,-1.0717,-1.0717,-1.0717,-1.0717,-1.0663,-1.0371,-1.0283,-1.0215,-0.991,-0.9822,-0.9822,-0.9822,-0.9822,-1.0126,-1.1269,-1.2946,-1.44,-1.521,-1.6811,-1.7974,-1.7649,-1.7582,-1.7582,-1.7582,-1.7582,-1.7422,-1.6967,-1.6589,-1.5879,-1.4673,-1.3988,-1.3373,-1.2851,-1.3092,-1.3307,-1.34,-1.368,-1.3773,-1.3613,-1.4041,-1.4282,-1.4282,-1.4843,-1.5231,-1.5391,-1.5685,-1.5718,-1.5631,-1.5718,-1.5718,-1.5645,-1.5765,-1.5784,0.0,0.0,0.0,0.0,0.0,0.0,0.0,0.0,0.0,0.0,0.0,-0.0309,-0.131,-0.3083,-0.4561,-0.4986,-0.5494,-0.6003,-0.6546,-0.6523,-0.6954,-0.8254,-0.9627,-1.0521,-1.0677,-1.0588,-1.0575,-1.0711,-1.0595,-1.0588,-1.0744,-1.1009,-1.1234,-1.1234,-1.1234,-1.1234,-1.1234,-1.1234,-1.1234,-1.1234,-1.1301,-1.1369,-1.1396,-1.1531,-1.1599,-1.1619,-1.1599,-1.1592,-1.1565,-1.126,-1.1131,-1.1104,-1.0826,-1.0717,-1.0717,-1.0717,-1.0717,-1.0717,-1.0717,-1.0717,-1.0717,-1.0717,-1.0717,-1.0663,-1.0371,-1.0283,-1.0215,-0.991,-0.9822,-0.9822,-0.9822,-0.9822,-1.0065,-1.1027,-1.2406,-1.3787,-1.4686,-1.6204,-1.744,-1.7636,-1.7609,-1.7582,-1.7582,-1.7582,-1.7488,-1.7246,-1.6737,-1.6067,-1.5182,-1.4242,-1.3454,-1.2851,-1.2851,-1.2998,-1.3186,-1.3507,-1.372,-1.372,-1.4226,-1.4603,-1.4629,-1.5124,-1.5418,-1.5458,-1.5698,-1.5712,-1.5458,-1.5712,-1.5698,-1.5458,-1.5712,-1.5784,0.0,0.0,0.0,0.0,0.0,0.0,0.0,0.0,0.0,0.0,0.0,-0.0269,-0.1165,-0.2826,-0.4142,-0.4325,-0.4354,-0.4545,-0.5142,-0.522,-0.5787,-0.7236,-0.9166,-1.0371,-1.0521,-1.0622,-1.069,-1.0717,-1.0697,-1.0744,-1.0833,-1.107,-1.1234,-1.1234,-1.1234,-1.1234,-1.1234,-1.1234,-1.1234,-1.1234,-1.1192,-1.1267,-1.1396,-1.1416,-1.1497,-1.1613,-1.1484,-1.143,-1.1409,-1.1111,-1.0921,-1.0968,-1.0792,-1.0717,-1.0717,-1.0717,-1.0717,-1.0717,-1.0717,-1.0717,-1.0717,-1.0717,-1.0717,-1.0663,-1.0371,-1.0283,-1.0215,-0.991,-0.9822,-0.9822,-0.9822,-0.9822,-1.0004,-1.0732,-1.1683,-1.2704,-1.3752,-1.5445,-1.6989,-1.7767,-1.7756,-1.7582,-1.7582,-1.7582,-1.7488,-1.7246,-1.686,-1.6313,-1.5431,-1.4549,-1.3681,-1.2878,-1.3186,-1.3373,-1.3227,-1.388,-1.4319,-1.4319,-1.4696,-1.499,-1.5231,-1.5337,-1.5511,-1.5752,-1.5758,-1.5758,-1.5752,-1.5758,-1.5758,-1.5704,-1.5758,-1.5784,0.0,0.0,0.0,0.0,0.0,0.0,0.0,0.0,0.0,0.0,0.0,-0.0249,-0.1011,-0.2422,-0.3501,-0.3496,-0.3511,-0.3715,-0.4303,-0.4626,-0.5386,-0.6972,-0.889,-1.0249,-1.0473,-1.0629,-1.0717,-1.0717,-1.0717,-1.0751,-1.0759,-1.0894,-1.0934,-1.0934,-1.0934,-1.0934,-1.0934,-1.0934,-1.0934,-1.0934,-1.1016,-1.109,-1.1165,-1.124,-1.1314,-1.1375,-1.1301,-1.1274,-1.1253,-1.1036,-1.088,-1.0867,-1.0778,-1.0717,-1.0717,-1.0717,-1.0717,-1.0717,-1.0717,-1.0717,-1.0717,-1.0717,-1.0717,-1.0677,-1.046,-1.0337,-1.0236,-1.0005,-0.9883,-0.9822,-0.9822,-0.9822,-0.9943,-1.0429,-1.1692,-1.3072,-1.4384,-1.5682,-1.6894,-1.7805,-1.7796,-1.7582,-1.7582,-1.7582,-1.7542,-1.7447,-1.7128,-1.6723,-1.5952,-1.5217,-1.4309,-1.312,-1.3347,-1.348,-1.324,-1.4162,-1.475,-1.475,-1.5164,-1.5471,-1.5618,-1.5618,-1.5685,-1.5784,-1.5784,-1.5752,-1.5605,-1.5704,-1.5752,-1.5605,-1.5704,-1.5784,0.0,0.0,0.0,0.0,0.0,0.0,0.0,0.0,0.0,0.0,0.0,-0.0198,-0.0803,-0.1905,-0.2747,-0.2721,-0.2715,-0.2974,-0.3673,-0.4282,-0.5275,-0.6827,-0.8741,-1.012,-1.0419,-1.0616,-1.0717,-1.0717,-1.0717,-1.0717,-1.0717,-1.0717,-1.0717,-1.0717,-1.0717,-1.0717,-1.0717,-1.0717,-1.0717,-1.0724,-1.0839,-1.0847,-1.0887,-1.1063,-1.1131,-1.1227,-1.1131,-1.1118,-1.1104,-1.0962,-1.0833,-1.082,-1.0765,-1.0717,-1.0717,-1.0717,-1.0717,-1.0717,-1.0717,-1.0717,-1.0717,-1.0717,-1.0717,-1.069,-1.0534,-1.0412,-1.029,-1.0038,-0.9903,-0.9863,-0.9829,-0.9822,-0.9883,-1.0126,-1.1571,-1.3329,-1.503,-1.5921,-1.6733,-1.7856,-1.7836,-1.7582,-1.7582,-1.7582,-1.7582,-1.7582,-1.7393,-1.7032,-1.6576,-1.5899,-1.5003,-1.3721,-1.3681,-1.3573,-1.3333,-1.4322,-1.5008,-1.5008,-1.5511,-1.5784,-1.5784,-1.5784,-1.5784,-1.5784,-1.5784,-1.5712,-1.5484,-1.5712,-1.5738,-1.5591,-1.5818,-1.5952,0.0,0.0,0.0,0.0,0.0,0.0,0.0,0.0,0.0,0.0,0.0,-0.0117,-0.0558,-0.1347,-0.1948,-0.2074,-0.1977,-0.2241,-0.3146,-0.4012,-0.5096,-0.6662,-0.8606,-0.9964,-1.027,-1.0555,-1.0717,-1.0717,-1.0717,-1.0717,-1.0717,-1.0717,-1.0717,-1.0717,-1.0717,-1.0717,-1.0717,-1.0717,-1.0717,-1.0717,-1.0731,-1.0812,-1.088,-1.0894,-1.1036,-1.1158,-1.1023,-1.09,-1.0887,-1.0806,-1.0744,-1.0738,-1.0724,-1.0717,-1.0717,-1.0717,-1.0717,-1.0717,-1.0717,-1.0717,-1.0717,-1.0717,-1.0717,-1.069,-1.0534,-1.048,-1.0412,-1.0065,-0.9977,-0.9936,-0.9856,-0.9822,-0.9822,-0.9822,-1.0906,-1.2466,-1.4282,-1.5228,-1.6266,-1.8118,-1.7983,-1.7582,-1.7582,-1.7582,-1.7582,-1.7582,-1.7393,-1.7179,-1.7125,-1.6326,-1.5538,-1.4914,-1.4349,-1.3921,-1.3586,-1.4442,-1.5008,-1.5008,-1.5511,-1.5784,-1.5784,-1.5784,-1.5784,-1.5784,-1.5784,-1.5771,-1.5744,-1.5771,-1.5952,-1.6241,-1.6219,-1.6366,0.0,0.0,0.0,0.0,0.0,0.0,0.0,0.0,0.0,0.0,0.0,-0.0085,-0.0357,-0.0891,-0.1258,-0.1236,-0.1255,-0.15,-0.2174,-0.3231,-0.446,-0.5847,-0.7769,-0.9194,-0.9731,-1.0149,-1.0527,-1.0704,-1.0717,-1.0717,-1.0717,-1.0717,-1.0717,-1.0717,-1.0717,-1.0717,-1.0717,-1.0717,-1.0717,-1.0717,-1.0717,-1.0751,-1.0812,-1.0812,-1.0839,-1.0894,-1.0839,-1.0812,-1.0806,-1.0744,-1.0717,-1.0717,-1.0717,-1.0717,-1.0717,-1.0717,-1.0717,-1.0717,-1.0717,-1.0717,-1.0717,-1.0717,-1.0717,-1.0711,-1.0649,-1.0507,-1.0337,-1.0222,-1.0053,-0.9835,-0.9836,-0.9822,-0.9822,-0.9822,-1.0671,-1.1993,-1.3715,-1.46,-1.5545,-1.7098,-1.7203,-1.7047,-1.708,-1.7213,-1.7437,-1.7582,-1.7488,-1.7393,-1.7219,-1.6589,-1.5872,-1.5284,-1.4696,-1.4162,-1.364,-1.4456,-1.5008,-1.5008,-1.5511,-1.5784,-1.5784,-1.5784,-1.5784,-1.5784,-1.5784,-1.5784,-1.5784,-1.6005,-1.6152,-1.6273,-1.646,-1.6593,0.0,0.0,0.0,0.0,0.0,0.0,0.0,0.0,0.0,0.0,0.0,-0.0057,-0.0173,-0.0443,-0.0597,-0.0503,-0.0578,-0.0836,-0.1366,-0.2446,-0.3665,-0.4935,-0.6858,-0.8311,-0.9001,-0.9797,-1.0405,-1.0697,-1.0717,-1.0717,-1.0717,-1.0717,-1.0717,-1.0717,-1.0717,-1.0717,-1.0717,-1.0717,-1.0717,-1.0717,-1.0717,-1.0717,-1.0717,-1.0717,-1.0717,-1.0717,-1.0717,-1.0717,-1.0717,-1.0717,-1.0717,-1.0717,-1.0717,-1.0717,-1.0717,-1.0717,-1.0717,-1.0717,-1.0717,-1.0717,-1.0717,-1.0717,-1.069,-1.0656,-1.0656,-1.0507,-1.0324,-1.0236,-1.0025,-0.9822,-0.9822,-0.9822,-0.9822,-0.9822,-1.0482,-1.1511,-1.2946,-1.3731,-1.4467,-1.5727,-1.6002,-1.6102,-1.634,-1.6681,-1.7107,-1.7529,-1.7582,-1.7515,-1.7353,-1.6817,-1.6179,-1.5591,-1.5003,-1.4416,-1.3786,-1.4509,-1.5048,-1.5129,-1.5631,-1.5992,-1.6037,-1.6005,-1.5965,-1.5965,-1.5872,-1.5872,-1.5965,-1.6166,-1.6415,-1.6589,-1.674,-1.6887,0.0,0.0,0.0,0.0,0.0,0.0,0.0,0.0,0.0,0.0,0.0,0.0,0.0,0.0,0.0,0.0,0.0,-0.0225,-0.0835,-0.1672,-0.2691,-0.406,-0.58,-0.7236,-0.8125,-0.9494,-1.0405,-1.0697,-1.0717,-1.0717,-1.0717,-1.0717,-1.0717,-1.0717,-1.0717,-1.0717,-1.0717,-1.0717,-1.0717,-1.0717,-1.0717,-1.0717,-1.0717,-1.0717,-1.0717,-1.0717,-1.0717,-1.0717,-1.0717,-1.0717,-1.0717,-1.0717,-1.0717,-1.0717,-1.0717,-1.0717,-1.0717,-1.0717,-1.0717,-1.0717,-1.0717,-1.0717,-1.0616,-1.0493,-1.0493,-1.0493,-1.0426,-1.0071,-0.9876,-0.9822,-0.9822,-0.9822,-0.9822,-0.9822,-1.0308,-1.1088,-1.2037,-1.2489,-1.2993,-1.4023,-1.4354,-1.4724,-1.5537,-1.6042,-1.6617,-1.7477,-1.7582,-1.7582,-1.7582,-1.7061,-1.6473,-1.5838,-1.5311,-1.4767,-1.4135,-1.4673,-1.5129,-1.5378,-1.5939,-1.6393,-1.6687,-1.642,-1.6273,-1.6273,-1.5979,-1.5979,-1.6273,-1.6321,-1.6616,-1.7192,-1.7192,-1.7353,0.0,0.0,0.0,0.0,0.0,0.0,0.0,0.0,0.0,0.0,0.0,0.0,0.0,0.0,0.0,0.0,0.0,-0.0148,-0.0507,-0.1155,-0.1976,-0.3011,-0.5048,-0.6846,-0.7911,-0.8795,-0.9497,-0.9962,-1.0253,-1.0459,-1.0717,-1.0717,-1.0717,-1.0717,-1.0717,-1.0717,-1.0717,-1.0717,-1.0717,-1.0717,-1.0717,-1.0717,-1.0717,-1.0717,-1.0717,-1.0717,-1.0717,-1.0717,-1.0717,-1.0717,-1.0717,-1.0717,-1.0717,-1.0717,-1.0717,-1.0717,-1.0717,-1.0717,-1.0717,-1.0717,-1.0704,-1.0602,-1.0527,-1.0453,-1.0249,-1.0188,-1.0148,-0.9951,-0.9856,-0.9822,-0.9822,-0.9822,-0.9822,-0.9822,-1.0126,-1.0664,-1.145,-1.1823,-1.2286,-1.2845,-1.3241,-1.3678,-1.4348,-1.4853,-1.5458,-1.6311,-1.6418,-1.6418,-1.6418,-1.6086,-1.573,-1.5325,-1.4943,-1.4625,-1.4372,-1.4736,-1.5177,-1.5658,-1.6059,-1.6406,-1.67,-1.662,-1.6567,-1.6567,-1.6473,-1.6473,-1.6567,-1.6817,-1.7125,-1.7448,-1.7448,-1.7502,0.0,0.0,0.0,0.0,0.0,0.0,0.0,0.0,0.0,0.0,0.0,0.0,0.0,0.0,0.0,0.0,0.0,-0.0072,-0.0245,-0.0592,-0.1198,-0.2265,-0.3951,-0.5458,-0.6553,-0.735,-0.8124,-0.9022,-0.9516,-1.0054,-1.0651,-1.0717,-1.0717,-1.0717,-1.0717,-1.0717,-1.0717,-1.0717,-1.0717,-1.0717,-1.0717,-1.0717,-1.0717,-1.0717,-1.0717,-1.0717,-1.0717,-1.0717,0.0,-1.0717,-1.0717,-1.0717,-1.0717,-1.0717,-1.0717,-1.0717,-1.0717,-1.0717,-1.0717,-1.0717,-1.0697,-1.0541,-1.0412,-1.0276,-0.9977,-0.9903,-0.9883,-0.9849,-0.9822,-0.9822,-0.9822,-0.9822,-0.9822,-0.9822,-0.9943,-1.0247,-1.0664,-1.0906,-1.1117,-1.1367,-1.1728,-1.2196,-1.2852,-1.3322,-1.3889,-1.4793,-1.49,-1.49,-1.49,-1.4781,-1.4683,-1.4545,-1.4364,-1.4379,-1.4665,-1.4901,-1.5257,-1.5952,-1.6273,-1.662,-1.7021,-1.6927,-1.6874,-1.6874,-1.6767,-1.6767,-1.6874,-1.7219,-1.746,-1.7582,-1.7582,-1.7582,0.0,0.0,0.0,0.0,0.0,0.0,0.0,0.0,0.0,0.0,0.0,0.0,0.0,0.0,0.0,0.0,0.0,0.0,0.0,0.0,-0.0509,-0.18,-0.251,-0.3359,-0.4458,-0.5361,-0.6442,-0.7749,-0.8573,-0.9449,-1.0585,-1.0651,-1.0651,-1.0717,-1.0717,-1.0717,-1.0717,-1.0717,-1.0717,-1.0717,-1.0717,-1.0717,-1.0717,-1.0717,-1.0717,-1.0717,-1.0717,-1.0717,-1.0717,-1.0717,-1.0717,-1.0717,-1.0717,-1.0717,-1.0717,-1.0717,-1.0717,-1.0717,-1.0717,-1.0717,-1.0697,-1.0527,-1.0276,-0.9943,-0.9863,-0.9822,-0.9822,-0.9822,-0.9822,-0.9822,-0.9822,-0.9822,-0.9822,-0.9822,-0.9822,-0.9822,-0.9822,-0.9822,-0.9822,-0.9822,-1.0059,-1.0547,-1.1331,-1.1707,-1.2219,-1.3078,-1.3166,-1.3156,-1.3156,-1.3257,-1.3416,-1.3605,-1.3704,-1.4128,-1.4918,-1.5008,-1.5397,-1.6246,-1.6553,-1.6967,-1.7555,-1.738,-1.7233,-1.7233,-1.6914,-1.6901,-1.7233,-1.7501,-1.7582,-1.7582,-1.7582,-1.7582,0.0,0.0,0.0,0.0,0.0,0.0,0.0,0.0,0.0,0.0,0.0,0.0,0.0,0.0,0.0,0.0,0.0,0.0,0.0,-0.0197,-0.0614,-0.139,-0.1855,-0.2513,-0.3324,-0.4153,-0.5135,-0.6293,-0.7307,-0.8446,-0.9848,-1.0187,-1.0459,-1.0717,-1.0717,-1.0717,-1.0717,-1.0717,-1.0717,-1.0717,-1.0717,-1.0717,-1.0717,-1.0717,-1.0717,-1.0717,-1.0717,-1.0717,-1.0717,-1.0717,-1.0717,-1.0717,-1.0717,-1.0717,-1.0717,-1.0717,-1.0717,-1.0717,-1.0717,-1.0717,-1.0677,-1.0419,-1.012,-0.9869,-0.9829,-0.9822,-0.9822,-0.9822,-0.9822,-0.9822,-0.9822,-0.9822,-0.9822,-0.9822,-0.9822,-0.9822,-0.9822,-0.9822,-0.9822,-0.9822,-0.9972,-1.0259,-1.0957,-1.1118,-1.1376,-1.2044,-1.2083,-1.1991,-1.1991,-1.2279,-1.2618,-1.2986,-1.3298,-1.3915,-1.4918,-1.5008,-1.5477,-1.654,-1.6673,-1.6967,-1.7555,-1.7515,-1.7527,-1.7527,-1.7408,-1.7408,-1.7527,-1.7555,-1.7582,-1.7582,-1.7582,-1.7582,0.0,0.0,0.0,0.0,0.0,0.0,0.0,0.0,0.0,0.0,0.0,0.0,0.0,0.0,0.0,0.0,0.0,0.0,0.0,-0.0109,-0.0357,-0.0637,-0.0906,-0.1173,-0.1577,-0.2316,-0.3266,-0.4359,-0.557,-0.704,-0.8839,-0.9383,-0.9987,-1.0651,-1.0717,-1.0717,-1.0717,-1.0717,-1.0717,-1.0717,-1.0717,-1.0717,-1.0717,-1.0717,-1.0717,-1.0717,-1.0717,-1.0717,-1.0717,-1.0717,-1.0717,-1.0717,-1.0717,-1.0717,-1.0717,-1.0717,-1.0717,-1.0717,-1.0717,-1.0629,-1.0493,-1.0331,-1.0073,-0.9822,-0.9822,-0.9822,-0.9822,-0.9822,-0.9822,-0.9822,-0.9822,-0.9822,-0.9822,-0.9822,-0.9822,-0.9822,-0.9822,-0.9822,-0.9822,-0.9822,-0.9827,-0.9902,-1.0258,-1.028,-1.0307,-1.057,-1.0532,-1.0422,-1.0319,-1.0852,-1.1462,-1.2052,-1.2661,-1.3586,-1.4874,-1.5008,-1.545,-1.6446,-1.6633,-1.6914,-1.742,-1.7515,-1.7582,-1.7582,-1.7582,-1.7582,-1.7582,-1.7582,-1.7582,-1.7582,-1.7582,-1.7582,0.0,0.0,0.0,0.0,0.0,0.0,0.0,0.0,0.0,0.0,0.0,0.0,0.0,0.0,0.0,0.0,0.0,0.0,0.0,0.0,0.0,0.0,0.0,0.0,0.0,-0.0606,-0.1413,-0.2484,-0.3758,-0.5499,-0.7564,-0.8379,-0.925,-1.0319,-1.0386,-1.0386,-1.0386,-1.0585,-1.0717,-1.0717,-1.0717,-1.0717,-1.0717,-1.0717,-1.0717,-1.0717,-1.0717,-1.0717,-1.0717,-1.0717,-1.0717,-1.0717,-1.0717,-1.0717,-1.0717,-1.0717,-1.0717,-1.0717,-1.0717,-1.0527,-1.0283,-1.0283,-1.0073,-0.9822,-0.9822,-0.9822,-0.9822,-0.9822,-0.9822,-0.9822,-0.9822,-0.9822,-0.9822,-0.9822,-0.9822,-0.9822,-0.9822,-0.9822,-0.9822,-0.9822,-0.9727,-0.9639,-0.9639,-0.9517,-0.9374,-0.9303,-0.9241,-0.9118,-0.8811,-0.9557,-1.0408,-1.125,-1.2128,-1.3316,-1.4874,-1.5048,-1.541,-1.6152,-1.6526,-1.686,-1.7246,-1.7501,-1.7582,-1.7582,-1.7582,-1.7582,-1.7582,-1.7582,-1.7582,-1.7582,-1.7582,-1.7582,0.0,0.0,0.0,0.0,0.0,0.0,0.0,0.0,0.0,0.0,0.0,0.0,0.0,0.0,0.0,0.0,0.0,0.0,0.0,0.0,0.0,0.0,0.0,0.0,0.0,-0.0337,-0.0942,-0.168,-0.2823,-0.4233,-0.6101,-0.6911,-0.7784,-0.8923,-0.8917,-0.8917,-0.8917,-1.012,-1.0717,-1.0717,-1.0717,-1.0717,-1.0717,-1.0717,-1.0717,-1.0717,-1.0717,-1.0717,-1.0717,-1.0717,-1.0717,-1.0717,-1.0717,-1.0717,-1.0717,-1.0717,-1.0717,-1.0717,-1.0717,-1.0527,-1.0283,-1.0283,-1.0073,-0.9822,-0.9822,-0.9822,-0.9822,-0.9822,-0.9822,-0.9822,-0.9822,-0.9822,-0.9822,-0.9822,-0.9822,-0.9822,-0.9822,-0.9822,-0.9822,-0.9822,-0.9802,-0.9788,-0.9788,-0.9673,-0.9564,-0.9544,-0.932,-0.9193,-0.9146,-0.97,-1.0459,-1.1365,-1.2421,-1.3552,-1.4887,-1.519,-1.5484,-1.5872,-1.6406,-1.6954,-1.7541,-1.7555,-1.7582,-1.7582,-1.7582,-1.7582,-1.7582,-1.7582,-1.7582,-1.7582,-1.7582,-1.7582,0.0,0.0,0.0,0.0,0.0,0.0,0.0,0.0,0.0,0.0,0.0,0.0,0.0,0.0,0.0,0.0,0.0,0.0,0.0,0.0,0.0,0.0,0.0,0.0,0.0,-0.0135,-0.0404,-0.074,-0.1547,-0.2689,-0.4093,-0.49,-0.577,-0.684,-0.684,-0.684,-0.684,-0.7907,-0.8972,-1.018,-1.0319,-1.0525,-1.0717,-1.0717,-1.0717,-1.0717,-1.0717,-1.0717,-1.0717,-1.0717,-1.0717,-1.0717,-1.0717,-1.0717,-1.0717,-1.0717,-1.067,-1.0595,-1.0595,-1.0405,-1.0154,-1.0154,-1.0005,-0.9822,-0.9822,-0.9822,-0.9822,-0.9822,-0.9822,-0.9822,-0.9822,-0.9822,-0.9822,-0.9822,-0.9822,-0.9822,-0.9822,-0.9822,-0.9822,-0.9822,-0.9822,-0.9822,-0.9822,-0.9768,-0.97,-0.9618,-0.949,-0.934,-0.9228,-0.9889,-1.0644,-1.1433,-1.2544,-1.372,-1.4913,-1.5231,-1.5658,-1.6259,-1.6553,-1.6967,-1.7555,-1.7582,-1.7582,-1.7582,-1.7582,-1.7582,-1.7582,-1.7582,-1.7582,-1.7582,-1.7582,-1.7582,0.0,0.0,0.0,0.0,0.0,0.0,0.0,0.0,0.0,0.0,0.0,0.0,0.0,0.0,0.0,0.0,0.0,0.0,0.0,0.0,0.0,0.0,0.0,0.0,0.0,0.0,0.0,0.0,-0.0606,-0.1413,-0.2417,-0.309,-0.3895,-0.483,-0.4897,-0.4897,-0.4897,-0.5566,-0.7036,-0.931,-0.9715,-1.0187,-1.0717,-1.0717,-1.0717,-1.0717,-1.0717,-1.0717,-1.0717,-1.0717,-1.0717,-1.0717,-1.0717,-1.0717,-1.0717,-1.0717,-1.0622,-1.0493,-1.0493,-1.0297,-0.9984,-0.9984,-0.9883,-0.9822,-0.9822,-0.9822,-0.9822,-0.9822,-0.9822,-0.9822,-0.9822,-0.9822,-0.9822,-0.9822,-0.9822,-0.9822,-0.9822,-0.9822,-0.9822,-0.9822,-0.9822,-0.9822,-0.9822,-0.9822,-0.9781,-0.9673,-0.9632,-0.9523,-0.935,-1.0014,-1.0774,-1.1513,-1.2594,-1.3814,-1.5021,-1.5378,-1.5845,-1.666,-1.67,-1.6967,-1.7555,-1.7582,-1.7582,-1.7582,-1.7582,-1.7582,-1.7582,-1.7582,-1.7582,-1.7582,-1.7582,-1.7582,0.0,0.0,0.0,0.0,0.0,0.0,0.0,0.0,0.0,0.0,0.0,0.0,0.0,0.0,0.0,0.0,0.0,0.0,0.0,0.0,0.0,0.0,0.0,0.0,0.0,0.0,0.0,0.0,-0.0337,-0.0875,-0.1614,-0.2084,-0.2622,-0.3362,-0.3362,-0.3362,-0.3362,-0.4099,-0.57,-0.8097,-0.8845,-0.9721,-1.0717,-1.0717,-1.0717,-1.0717,-1.0717,-1.0717,-1.0717,-1.0717,-1.0717,-1.0717,-1.0717,-1.0717,-1.0717,-1.0717,-1.0622,-1.0493,-1.0493,-1.0297,-0.9984,-0.9984,-0.9883,-0.9822,-0.9822,-0.9822,-0.9822,-0.9822,-0.9822,-0.9822,-0.9822,-0.9822,-0.9822,-0.9822,-0.9822,-0.9822,-0.9822,-0.9822,-0.9822,-0.9822,-0.9822,-0.9822,-0.9822,-0.9822,-0.9815,-0.9808,-0.9693,-0.9598,-0.9578,-0.9937,-1.0653,-1.1689,-1.2516,-1.3702,-1.5317,-1.565,-1.6059,-1.666,-1.67,-1.6967,-1.7555,-1.7582,-1.7582,-1.7582,-1.7582,-1.7582,-1.7582,-1.7582,-1.7582,-1.7582,-1.7582,-1.7582,0.0199,0.0101,0.0,0.0,0.0,0.0,0.0,0.0,0.0,0.0,0.0,0.0,0.0,0.0,0.0,0.0,0.0,0.0,0.0,0.0,0.0,0.0,0.0,0.0,0.0,0.0,0.0,0.0,-0.0135,-0.0336,-0.0606,-0.074,-0.0942,-0.1211,-0.1211,-0.1211,-0.1211,-0.1951,-0.309,-0.4757,-0.6773,-0.8384,-0.9389,-0.9582,-0.9848,-1.0114,-1.0319,-1.0525,-1.0717,-1.0717,-1.0717,-1.0711,-1.0616,-1.0527,-1.0446,-1.0446,-1.0351,-1.0215,-1.0215,-1.0017,-0.9849,-0.9849,-0.9869,-0.9822,-0.9822,-0.9822,-0.9822,-0.9822,-0.9822,-0.9822,-0.9822,-0.9822,-0.9822,-0.9822,-0.9822,-0.9822,-0.9822,-0.9822,-0.9822,-0.9822,-0.9822,-0.9822,-0.9822,-0.9822,-0.9822,-0.9822,-0.9774,-0.9741,-0.9741,-1.0098,-1.0623,-1.1156,-1.2788,-1.4232,-1.5332,-1.5865,-1.6353,-1.6991,-1.6807,-1.6967,-1.7555,-1.7582,-1.7582,-1.7582,-1.7582,-1.7582,-1.7582,-1.7582,-1.7582,-1.7582,-1.7582,-1.7675,0.0547,0.0239,0.0,0.0,0.0,0.0,0.0,0.0,0.0,0.0,0.0,0.0,0.0,0.0,0.0,0.0,0.0,0.0,0.0,0.0,0.0,0.0,0.0,0.0,0.0,0.0,0.0,0.0,0.0,0.0,0.0,0.0,0.0,0.0,0.0,0.0,0.0,-0.0598,-0.1394,-0.2386,-0.4573,-0.6324,-0.7579,-0.8041,-0.8573,-0.9172,-0.9649,-1.0187,-1.0717,-1.0717,-1.069,-1.0636,-1.0534,-1.0405,-1.0283,-1.0283,-1.0181,-0.9984,-0.9984,-0.9889,-0.9822,-0.9822,-0.9822,-0.9822,-0.9822,-0.9822,-0.9822,-0.9822,-0.9822,-0.9822,-0.9822,-0.9822,-0.9822,-0.9822,-0.9822,-0.9822,-0.9822,-0.9822,-0.9822,-0.9822,-0.9822,-0.9822,-0.9822,-0.9822,-0.9822,-0.9822,-0.9822,-0.9822,-0.9822,-1.0113,-1.0537,-1.1045,-1.2865,-1.4355,-1.5056,-1.5693,-1.6328,-1.7012,-1.6823,-1.6967,-1.7555,-1.7582,-1.7582,-1.7582,-1.7582,-1.7582,-1.7582,-1.7582,-1.7635,-1.7729,-1.7729,-1.7889,0.097,0.0456,0.0,0.0,0.0,0.0,0.0,0.0,0.0,0.0,0.0,0.0,0.0,0.0,0.0,0.0,0.0,0.0,0.0,0.0,0.0,0.0,0.0,0.0,0.0,0.0,0.0,0.0,0.0,0.0,0.0,0.0,0.0,0.0,0.0,0.0,0.0,-0.0323,-0.0839,-0.1613,-0.2257,-0.3595,-0.5429,-0.6097,-0.696,-0.803,-0.8773,-0.9715,-1.0717,-1.0717,-1.0622,-1.0487,-1.0487,-1.0399,-1.0276,-1.0276,-1.0181,-0.9984,-0.9984,-0.9883,-0.9822,-0.9822,-0.9822,-0.9822,-0.9822,-0.9822,-0.9822,-0.9822,-0.9822,-0.9822,-0.9822,-0.9822,-0.9822,-0.9822,-0.9822,-0.9822,-0.9822,-0.9822,-0.9822,-0.9822,-0.9822,-0.9822,-0.9822,-0.9822,-0.9822,-0.9822,-0.9822,-0.9822,-0.9822,-0.9933,-1.0427,-1.1504,-1.2714,-1.3741,-1.4425,-1.5055,-1.5781,-1.6665,-1.6722,-1.6967,-1.7555,-1.7582,-1.7582,-1.7582,-1.7582,-1.7582,-1.7582,-1.7582,-1.7742,-1.7995,-1.7995,-1.8155,0.1123,0.054,0.0,0.0,0.0,0.0,0.0,0.0,0.0,0.0,0.0,0.0,0.0,0.0,0.0,0.0,0.0,0.0,0.0,0.0,0.0,0.0,0.0,0.0,0.0,0.0,0.0,0.0,0.0,0.0,0.0,0.0,0.0,0.0,0.0,0.0,0.0,-0.0129,-0.0258,-0.0452,-0.1161,-0.2588,-0.4565,-0.5736,-0.6839,-0.7876,-0.8845,-0.9696,-1.0412,-1.0412,-1.0317,-1.0181,-1.0181,-1.0086,-0.9958,-0.9958,-0.993,-0.989,-0.989,-0.9863,-0.9822,-0.9822,-0.9822,-0.9822,-0.9822,-0.9822,-0.9822,-0.9822,-0.9822,-0.9822,-0.9822,-0.9822,-0.9822,-0.9822,-0.9822,-0.9822,-0.9822,-0.9822,-0.9822,-0.9822,-0.9822,-0.9822,-0.9822,-0.9822,-0.9822,-0.9822,-0.9822,-0.9822,-0.9822,-0.9842,-1.0098,-1.0778,-1.1735,-1.2645,-1.3467,-1.4384,-1.539,-1.6373,-1.682,-1.7233,-1.7569,-1.7582,-1.7582,-1.7582,-1.7582,-1.7582,-1.7582,-1.7809,-1.7902,-1.7995,-1.8263,-1.8517,0.1426,0.067,0.0,0.0,0.0,0.0,0.0,0.0,0.0,0.0,0.0,0.0,0.0,0.0,0.0,0.0,0.0,0.0,0.0,0.0,0.0,0.0,0.0,0.0,0.0,0.0,0.0,0.0,0.0,0.0,0.0,0.0,0.0,0.0,0.0,0.0,0.0,0.0,0.0,0.0,-0.0697,-0.1901,-0.3548,-0.4932,-0.6302,-0.7709,-0.9124,-0.9958,-1.0283,-1.0283,-1.0188,-0.9984,-0.9984,-0.9896,-0.9822,-0.9822,-0.9822,-0.9822,-0.9822,-0.9822,-0.9822,-0.9822,-0.9822,-0.9822,-0.9822,-0.9822,-0.9822,-0.9822,-0.9822,-0.9822,-0.9822,-0.9822,-0.9822,-0.9822,-0.9822,-0.9822,-0.9822,-0.9822,-0.9822,-0.9822,-0.9822,-0.9822,-0.9822,-0.9822,-0.9822,-0.9822,-0.9822,-0.9822,-0.9822,-0.9822,-0.997,-1.0359,-1.1051,-1.177,-1.2608,-1.3661,-1.4688,-1.5689,-1.6571,-1.7187,-1.7583,-1.7716,-1.7769,-1.7769,-1.7649,-1.7649,-1.7769,-1.7902,-1.8115,-1.8342,-1.8584,-1.8824,0.1734,0.081,0.0,0.0,0.0,0.0,0.0,0.0,0.0,0.0,0.0,0.0,0.0,0.0,0.0,0.0,0.0,0.0,0.0,0.0,0.0,0.0,0.0,0.0,0.0,0.0,0.0,0.0,0.0,0.0,0.0,0.0,0.0,0.0,0.0,0.0,0.0,0.0,0.0,0.0,-0.0679,-0.1542,-0.2531,-0.3865,-0.5635,-0.7673,-0.9342,-1.0109,-1.0109,-1.0172,-1.0092,-0.9963,-0.9963,-0.9883,-0.9822,-0.9822,-0.9822,-0.9822,-0.9822,-0.9822,-0.9822,-0.9822,-0.9822,-0.9822,-0.9822,-0.9822,-0.9822,-0.9822,-0.9822,-0.9822,-0.9822,-0.9822,-0.9822,-0.9822,-0.9822,-0.9822,-0.9822,-0.9822,-0.9822,-0.9822,-0.9822,-0.9822,-0.9822,-0.9822,-0.9822,-0.9822,-0.9822,-0.9822,-0.9822,-0.9822,-0.9943,-1.0247,-1.0599,-1.1091,-1.1776,-1.2737,-1.3748,-1.4806,-1.5975,-1.6902,-1.7546,-1.7873,-1.8035,-1.8035,-1.7809,-1.7809,-1.8035,-1.8062,-1.8342,-1.8918,-1.8958,-1.9105,0.1654,0.0781,0.0,0.0,0.0,0.0,0.0,0.0,0.0,0.0,0.0,0.0,0.0,0.0,0.0,0.0,0.0,0.0,0.0,0.0,0.0,0.0,0.0,0.0,0.0,0.0,0.0,0.0,0.0,0.0,0.0,0.0,0.0,0.0,0.0,0.0,0.0,0.0,0.0,0.0,-0.0679,-0.1542,-0.2525,-0.3846,-0.5532,-0.7454,-0.8133,-0.8564,-0.8811,-0.9063,-0.9229,-0.9503,-0.9747,-0.9849,-0.9822,-0.9822,-0.9822,-0.9822,-0.9822,-0.9822,-0.9822,-0.9822,-0.9822,-0.9822,-0.9822,-0.9822,-0.9822,-0.9822,-0.9822,-0.9822,-0.9822,-0.9822,-0.9822,-0.9822,-0.9822,-0.9822,-0.9822,-0.9822,-0.9822,-0.9822,-0.9822,-0.9822,-0.9822,-0.9822,-0.9822,-0.9822,-0.9822,-0.9822,-0.9822,-0.9822,-0.9822,-0.9883,-0.9977,-1.0254,-1.0804,-1.1322,-1.2218,-1.3622,-1.523,-1.649,-1.751,-1.8059,-1.8397,-1.8397,-1.833,-1.833,-1.8397,-1.8624,-1.8741,-1.8931,-1.9158,-1.9305,0.1563,0.0706,0.0,0.0,0.0,0.0,0.0,0.0,0.0,0.0,0.0,0.0,0.0,0.0,0.0,0.0,0.0,0.0,0.0,0.0,0.0,0.0,0.0,0.0,0.0,0.0,0.0,0.0,0.0,0.0,0.0,0.0,0.0,0.0,0.0,0.0,0.0,0.0,0.0,0.0,-0.0494,-0.1296,-0.2341,-0.394,-0.523,-0.6211,-0.6394,-0.6757,-0.7245,-0.7861,-0.8416,-0.8909,-0.9579,-0.9822,-0.9822,-0.9822,-0.9822,-0.9822,-0.9822,-0.9822,-0.9822,-0.9822,-0.9822,-0.9822,-0.9822,-0.9822,-0.9822,-0.9822,-0.9822,-0.9822,-0.9822,-0.9822,-0.9822,-0.9822,-0.9822,-0.9822,-0.9822,-0.9822,-0.9822,-0.9822,-0.9822,-0.9822,-0.9822,-0.9822,-0.9822,-0.9822,-0.9822,-0.9822,-0.9822,-0.9822,-0.9822,-0.9822,-0.9822,-0.9942,-1.0213,-1.0732,-1.1487,-1.2641,-1.4385,-1.575,-1.6598,-1.7538,-1.8215,-1.8704,-1.8557,-1.8557,-1.8704,-1.8851,-1.8998,-1.9132,-1.9292,-1.943,0.1546,0.0754,0.0046,0.0,0.0,0.0,0.0,0.0,0.0,0.0,0.0,0.0,0.0,0.0,0.0,0.0,0.0,0.0,0.0,0.0,0.0,0.0,0.0,0.0,0.0,0.0,0.0,0.0,0.0,0.0,0.0,0.0,0.0,0.0,0.0,0.0,0.0,0.0,0.0,0.0,-0.0309,-0.0864,-0.1726,-0.3323,-0.4242,-0.4548,-0.4548,-0.4916,-0.5651,-0.663,-0.7429,-0.8172,-0.9086,-0.9518,-0.9579,-0.964,-0.964,-0.97,-0.9761,-0.9822,-0.9822,-0.9822,-0.9822,-0.9822,-0.9822,-0.9822,-0.9822,-0.9822,-0.9822,-0.9822,-0.9822,-0.9822,-0.9822,-0.9822,-0.9822,-0.9822,-0.9822,-0.9822,-0.9822,-0.9822,-0.9822,-0.9822,-0.9822,-0.9822,-0.9822,-0.9822,-0.9822,-0.9822,-0.9822,-0.9822,-0.9822,-0.9822,-0.9822,-0.9835,-0.9951,-1.0391,-1.0973,-1.1719,-1.3335,-1.4539,-1.5231,-1.6353,-1.7428,-1.83,-1.842,-1.8645,-1.8884,-1.8941,-1.9132,-1.943,-1.943,-1.943,0.1978,0.1037,0.0197,0.0054,0.0,0.0,0.0,0.0,0.0,0.0,0.0,0.0,0.0,0.0,0.0,0.0,0.0,0.0,0.0,0.0,0.0,0.0,0.0,0.0,0.0,0.0,0.0,0.0,0.0,0.0,0.0,0.0,0.0,0.0,0.0,0.0,0.0,0.0,0.0,0.0,-0.0062,-0.0123,-0.0247,-0.0555,-0.1602,-0.3262,-0.3262,-0.3571,-0.425,-0.5226,-0.6088,-0.6771,-0.775,-0.8355,-0.8599,-0.8848,-0.9092,-0.9396,-0.97,-0.9822,-0.9822,-0.9822,-0.9822,-0.9822,-0.9822,-0.9822,-0.9822,-0.9822,-0.9822,-0.9822,-0.9822,-0.9822,-0.9822,-0.9822,-0.9822,-0.9822,-0.9822,-0.9822,-0.9822,-0.9822,-0.9822,-0.9822,-0.9822,-0.9822,-0.9822,-0.9822,-0.9822,-0.9822,-0.9822,-0.9822,-0.9822,-0.9822,-0.9822,-0.9815,-0.9855,-0.9799,-1.013,-1.0898,-1.1837,-1.2713,-1.3489,-1.447,-1.53,-1.6035,-1.7603,-1.8558,-1.8887,-1.919,-1.939,-1.943,-1.943,-1.943,0.1757,0.0982,0.0394,0.0053,0.0,0.0,0.0,0.0,0.0,0.0,0.0,0.0,0.0,0.0,0.0,0.0,0.0,0.0,0.0,0.0,0.0,0.0,0.0,0.0,0.0,0.0,0.0,0.0,0.0,0.0,0.0,0.0,0.0,0.0,0.0,0.0,0.0,0.0,0.0,0.0,0.0,0.0,0.0,0.0,-0.0494,-0.1295,-0.1295,-0.1665,-0.2344,-0.3387,-0.4122,-0.4797,-0.5839,-0.6512,-0.7062,-0.7739,-0.8349,-0.8909,-0.9579,-0.9822,-0.9822,-0.9822,-0.9822,-0.9822,-0.9822,-0.9822,-0.9822,-0.9822,-0.9822,-0.9822,-0.9822,-0.9822,-0.9822,-0.9822,-0.9822,-0.9822,-0.9822,-0.9822,-0.9822,-0.9822,-0.9822,-0.9822,-0.9822,-0.9822,-0.9822,-0.9822,-0.9822,-0.9822,-0.9822,-0.9822,-0.9822,-0.9822,-0.9822,-0.9822,-0.9822,-0.9768,-0.9935,-1.0482,-1.1191,-1.1842,-1.2406,-1.3126,-1.3963,-1.4787,-1.668,-1.7864,-1.8344,-1.9068,-1.943,-1.9417,-1.9199,-1.9212,0.1679,0.1089,0.0702,0.0254,0.0107,0.0056,0.0,0.0,0.0,0.0,0.0,0.0,0.0,0.0,0.0,0.0,0.0,0.0,0.0,0.0,0.0,0.0,0.0,0.0,0.0,0.0,0.0,0.0,0.0,0.0,0.0,0.0,0.0,0.0,0.0,0.0,0.0,0.0,0.0,0.0,0.0,0.0,0.0,0.0,0.0,0.0,0.0,-0.0309,-0.0926,-0.1848,-0.2585,-0.3139,-0.406,-0.4797,-0.5533,-0.6508,-0.7307,-0.805,-0.8964,-0.9396,-0.9457,-0.9518,-0.9579,-0.97,-0.9761,-0.9822,-0.9822,-0.9822,-0.9822,-0.9822,-0.9822,-0.9822,-0.9822,-0.9822,-0.9822,-0.9822,-0.9822,-0.9822,-0.9822,-0.9822,-0.9822,-0.9822,-0.9822,-0.9822,-0.9822,-0.9822,-0.9822,-0.9822,-0.9822,-0.9822,-0.9822,-0.9822,-0.9788,-0.9781,-0.9815,-0.9788,-0.9842,-1.0119,-1.0664,-1.1027,-1.1269,-1.1692,-1.2475,-1.3555,-1.544,-1.6856,-1.7818,-1.8894,-1.943,-1.9359,-1.9132,-1.9158,0.2149,0.171,0.1305,0.0702,0.0401,0.0211,0.0055,0.0,0.0,0.0,0.0,0.0,0.0,0.0,0.0,0.0,0.0,0.0,0.0,0.0,0.0,0.0,0.0,0.0,0.0,0.0,0.0,0.0,0.0,0.0,0.0,0.0,0.0,0.0,0.0,0.0,0.0,0.0,0.0,0.0,0.0,0.0,0.0,0.0,0.0,0.0,0.0,-0.0185,-0.0556,-0.1295,-0.1788,-0.2157,-0.2833,-0.3448,-0.4127,-0.5104,-0.5904,-0.6648,-0.7627,-0.8233,-0.8538,-0.8787,-0.9092,-0.9396,-0.97,-0.9822,-0.9822,-0.9822,-0.9822,-0.9822,-0.9822,-0.9822,-0.9822,-0.9822,-0.9822,-0.9822,-0.9822,-0.9822,-0.9822,-0.9822,-0.9822,-0.9822,-0.9822,-0.9822,-0.9822,-0.9822,-0.9822,-0.9822,-0.9822,-0.9822,-0.9822,-0.9822,-0.97,-0.9673,-0.9808,-0.97,-0.968,-0.9815,-0.9883,-0.9883,-0.9883,-0.9943,-1.0543,-1.1872,-1.3775,-1.5677,-1.7537,-1.8777,-1.943,-1.943,-1.9359,-1.9359,0.2806,0.2279,0.1664,0.1074,0.0622,0.0284,0.005,0.0,0.0,0.0,0.0,0.0,0.0,0.0,0.0,0.0,0.0,0.0,0.0,0.0,0.0,0.0,0.0,0.0,0.0,0.0,0.0,0.0,0.0,0.0,0.0,0.0,0.0,0.0,0.0,0.0,0.0,0.0,0.0,0.0,0.0,0.0,0.0,0.0,0.0,0.0,0.0,-0.0062,-0.0185,-0.0432,-0.0617,-0.074,-0.0987,-0.1481,-0.2159,-0.3141,-0.3937,-0.4613,-0.5655,-0.6329,-0.694,-0.7673,-0.8288,-0.8842,-0.9579,-0.9822,-0.9822,-0.9822,-0.9822,-0.9822,-0.9822,-0.9822,-0.9822,-0.9822,-0.9822,-0.9822,-0.9822,-0.9822,-0.9822,-0.9822,-0.9822,-0.9822,-0.9822,-0.9822,-0.9822,-0.9822,-0.9822,-0.9822,-0.9822,-0.9822,-0.9822,-0.9822,-0.9774,-0.9768,-0.9815,-0.9774,-0.9768,-0.9815,-0.9822,-0.9822,-0.9822,-0.9822,-1.0301,-1.1458,-1.3126,-1.4966,-1.6879,-1.859,-1.943,-1.9359,-1.9172,-1.9185,0.33,0.2813,0.2259,0.1631,0.1151,0.0765,0.0459,0.0342,0.0261,0.0225,0.0173,0.0118,0.0,0.0,0.0,0.0,0.0,0.0,0.0,0.0,0.0,0.0,0.0,0.0,0.0,0.0,0.0,0.0,0.0,0.0,0.0,0.0,0.0,0.0,0.0,0.0,0.0,0.0,0.0,0.0,0.0,0.0,0.0,0.0,0.0,0.0,0.0,0.0,0.0,0.0,0.0,0.0,0.0,-0.037,-0.0926,-0.1848,-0.2464,-0.3077,-0.3937,-0.4674,-0.541,-0.6385,-0.7184,-0.7928,-0.8842,-0.9153,-0.9153,-0.9153,-0.9268,-0.9335,-0.9457,-0.964,-0.9822,-0.9822,-0.9822,-0.9822,-0.9822,-0.9822,-0.9822,-0.9822,-0.9822,-0.9822,-0.9822,-0.9822,-0.9822,-0.9822,-0.9822,-0.9822,-0.9822,-0.9822,-0.9822,-0.9822,-0.9781,-0.9768,-0.9815,-0.9727,-0.9713,-0.9815,-0.9774,-0.9774,-0.9822,-0.9822,-1.0247,-1.1088,-1.2466,-1.3894,-1.5381,-1.7642,-1.8836,-1.8881,-1.8756,-1.8942,0.0,0.0,0.0,0.2384,0.1989,0.1608,0.1233,0.1012,0.0854,0.0677,0.0485,0.0333,0.0058,0.0,0.0,0.0,0.0,0.0,0.0,0.0,0.0,0.0,0.0,0.0,0.0,0.0,0.0,0.0,0.0,0.0,0.0,0.0,0.0,0.0,0.0,0.0,0.0,0.0,0.0,0.0,0.0,0.0,0.0,0.0,0.0,0.0,0.0,0.0,0.0,0.0,0.0,0.0,0.0,-0.0185,-0.0556,-0.1234,-0.1665,-0.2034,-0.271,-0.3328,-0.4004,-0.4984,-0.5782,-0.6526,-0.7505,-0.7811,-0.7811,-0.7811,-0.805,-0.8416,-0.8726,-0.9275,-0.9822,-0.9822,-0.9822,-0.9822,-0.9822,-0.9822,-0.9822,-0.9822,-0.9822,-0.9822,-0.9822,-0.9822,-0.9822,-0.9822,-0.9822,-0.9822,-0.9822,-0.9822,-0.9822,-0.9822,-0.97,-0.9673,-0.9808,-0.9557,-0.9517,-0.9802,-0.9693,-0.968,-0.9815,-0.9822,-1.0126,-1.0793,-1.1683,-1.2517,-1.3186,-1.6042,-1.7537,-1.7818,-1.824,-1.8777,0.399,0.0,0.0,0.0,0.0,0.0,0.1982,0.1683,0.1392,0.1012,0.0715,0.043,0.0057,0.0,0.0,0.0,0.0,0.0,0.0,0.0,0.0,0.0,0.0,0.0,0.0,0.0,0.0,0.0,0.0,0.0,0.0,0.0,0.0,0.0,0.0,0.0,0.0,0.0,0.0,0.0,0.0,0.0,0.0,0.0,0.0,0.0,0.0,0.0,0.0,0.0,0.0,0.0,0.0,-0.0062,-0.0185,-0.037,-0.0494,-0.0555,-0.074,-0.1234,-0.1974,-0.2956,-0.3753,-0.4429,-0.541,-0.5716,-0.5716,-0.5716,-0.6145,-0.6879,-0.8172,-0.9153,-0.9822,-0.9822,-0.9822,-0.9822,-0.9822,-0.9822,-0.9822,-0.9822,-0.9822,-0.9822,-0.9822,-0.9822,-0.9822,-0.9822,-0.9822,-0.9822,-0.9822,-0.9822,-0.9822,-0.9822,-0.9788,-0.9781,-0.9815,-0.9747,-0.9734,-0.9815,-0.9781,-0.9781,-0.9822,-0.9822,-1.0004,-1.0422,-1.1148,-1.1752,-1.2174,-1.4371,-1.5677,-1.6267,-1.7455,-1.8532,0.4314,0.4158,0.392,0.3716,0.0,0.0,0.2723,0.2479,0.2171,0.1752,0.14,0.109,0.064,0.0486,0.038,0.0332,0.0223,0.0113,0.0,0.0,0.0,0.0,0.0,0.0,0.0,0.0,0.0,0.0,0.0,0.0,0.0,0.0,0.0,0.0,0.0,0.0,0.0,0.0,0.0,0.0,0.0,0.0,0.0,0.0,0.0,0.0,0.0,0.0,0.0,0.0,0.0,0.0,0.0,0.0,0.0,0.0,0.0,0.0,0.0,-0.037,-0.0926,-0.1788,-0.2402,-0.2954,-0.3876,-0.4122,-0.4122,-0.4122,-0.4858,-0.6023,-0.7434,-0.8599,-0.9396,-0.9579,-0.97,-0.9822,-0.9822,-0.9822,-0.9822,-0.9822,-0.9822,-0.9822,-0.9822,-0.9822,-0.9822,-0.9822,-0.9822,-0.9822,-0.9822,-0.9822,-0.9822,-0.9822,-0.9822,-0.9822,-0.9822,-0.9768,-0.9754,-0.9815,-0.9768,-0.9761,-0.9822,-0.9822,-0.9883,-1.0065,-1.0482,-1.0793,-1.0974,-1.2886,-1.4371,-1.544,-1.6573,-1.7642,0.4539,0.4549,0.4474,0.417,0.3931,0.0,0.3485,0.3322,0.3055,0.2582,0.2316,0.2014,0.1519,0.1252,0.1017,0.0791,0.0555,0.0317,0.0057,0.0,0.0,0.0,0.0,0.0,0.0,0.0,0.0,0.0,0.0,0.0,0.0,0.0,0.0,0.0,0.0,0.0,0.0,0.0,0.0,0.0,0.0,0.0,0.0,0.0,0.0,0.0,0.0,0.0,0.0,0.0,0.0,0.0,0.0,0.0,0.0,0.0,0.0,0.0,0.0,-0.0185,-0.0556,-0.111,-0.1541,-0.1911,-0.2464,-0.2648,-0.271,-0.2772,-0.3876,-0.5287,-0.6333,-0.7622,-0.8726,-0.9092,-0.9518,-0.9822,-0.9822,-0.9822,-0.9822,-0.9822,-0.9822,-0.9822,-0.9822,-0.9822,-0.9822,-0.9822,-0.9822,-0.9822,-0.9822,-0.9822,-0.9822,-0.9822,-0.9822,-0.9822,-0.9822,-0.9707,-0.9686,-0.9815,-0.97,-0.9686,-0.9815,-0.9822,-0.9822,-0.9822,-0.9822,-0.9822,-0.9822,-1.1631,-1.3306,-1.4787,-1.5451,-1.629,0.483,0.482,0.4783,0.4604,0.4542,0.0,0.4317,0.4028,0.3705,0.3239,0.2911,0.2587,0.2124,0.1817,0.149,0.1087,0.0812,0.0479,0.0053,0.0,0.0,0.0,0.0,0.0,0.0,0.0,0.0,0.0,0.0,0.0,0.0,0.0,0.0,0.0,0.0,0.0,0.0,0.0,0.0,0.0,0.0,0.0,0.0,0.0,0.0,0.0,0.0,0.0,0.0,0.0,0.0,0.0,0.0,0.0,0.0,0.0,0.0,0.0,0.0,-0.0062,-0.0123,-0.0247,-0.0308,-0.0432,-0.0555,-0.0555,-0.0679,-0.1234,-0.2218,-0.3323,-0.4555,-0.6267,-0.7856,-0.8416,-0.9214,-0.9822,-0.9822,-0.9822,-0.9822,-0.9822,-0.9822,-0.9822,-0.9822,-0.9822,-0.9822,-0.9822,-0.9822,-0.9822,-0.9822,-0.9822,-0.9822,-0.9822,-0.9822,-0.9822,-0.9822,-0.9795,-0.9788,-0.9822,-0.9795,-0.9795,-0.9822,-0.9822,-0.9822,-0.9822,-0.9822,-0.9822,-0.9822,-1.0725,-1.1744,-1.2757,-1.3476,-1.4252,0.5257,0.5196,0.5101,0.4945,0.4802,0.0,0.0,0.4346,0.4104,0.3724,0.3524,0.3283,0.2945,0.2605,0.2248,0.1758,0.1427,0.1076,0.0597,0.0248,0.0,0.0,0.0,0.0,0.0,0.0,0.0,0.0,0.0,0.0,0.0,0.0,0.0,0.0,0.0,0.0,0.0,0.0,0.0,0.0,0.0,0.0,0.0,0.0,0.0,0.0,0.0,0.0,0.0,0.0,0.0,0.0,0.0,0.0,0.0,0.0,0.0,0.0,0.0,0.0,0.0,0.0,0.0,0.0,0.0,0.0,-0.0123,-0.0617,-0.1357,-0.2279,-0.3387,-0.5042,-0.6573,-0.7255,-0.8172,-0.8909,-0.9086,-0.9214,-0.9335,-0.9518,-0.97,-0.9822,-0.9822,-0.9822,-0.9822,-0.9822,-0.9822,-0.9822,-0.9822,-0.9822,-0.9822,-0.9822,-0.9822,-0.9822,-0.9822,-0.9822,-0.9822,-0.9822,-0.9822,-0.9822,-0.9822,-0.9822,-0.9822,-0.9822,-0.9822,-0.9822,-0.9822,-1.0126,-1.0785,-1.1744,-1.2286,-1.2946,0.563,0.5556,0.5392,0.5143,0.4931,0.4687,0.0,0.0,0.0,0.4142,0.4064,0.3972,0.3799,0.346,0.3048,0.2561,0.2216,0.1862,0.137,0.0751,0.0292,0.0154,0.0103,0.0052,0.0,0.0,0.0,0.0,0.0,0.0,0.0,0.0,0.0,0.0,0.0,0.0,0.0,0.0,0.0,0.0,0.0,0.0,0.0,0.0,0.0,0.0,0.0,0.0,0.0,0.0,0.0,0.0,0.0,0.0,0.0,0.0,0.0,0.0,0.0,0.0,0.0,0.0,0.0,0.0,0.0,0.0,-0.0062,-0.0309,-0.0802,-0.1418,-0.2341,-0.3692,-0.4981,-0.5663,-0.6582,-0.7439,-0.78,-0.8233,-0.8665,-0.9031,-0.9518,-0.9822,-0.9822,-0.9822,-0.9822,-0.9822,-0.9822,-0.9822,-0.9822,-0.9822,-0.9822,-0.9822,-0.9822,-0.9822,-0.9822,-0.9822,-0.9822,-0.9822,-0.9822,-0.9822,-0.9822,-0.9822,-0.9822,-0.9822,-0.9822,-0.9822,-0.9822,-0.9822,-1.0247,-1.1035,-1.1269,-1.1692,0.5779,0.5671,0.5494,0.517,0.4982,0.4816,0.4552,0.0,0.449,0.4455,0.0,0.4432,0.4409,0.0,0.0,0.3256,0.2954,0.262,0.2149,0.1786,0.1317,0.0632,0.0366,0.0185,0.0,0.0,0.0,0.0,0.0,0.0,0.0,0.0,0.0,0.0,0.0,0.0,0.0,0.0,0.0,0.0,0.0,0.0,0.0,0.0,0.0,0.0,0.0,0.0,0.0,0.0,0.0,0.0,0.0,0.0,0.0,0.0,0.0,0.0,0.0,0.0,0.0,0.0,0.0,0.0,0.0,0.0,0.0,-0.0062,-0.0123,-0.0309,-0.105,-0.2034,-0.2954,-0.3566,-0.4487,-0.5406,-0.6018,-0.6935,-0.7734,-0.8355,-0.9214,-0.9822,-0.9822,-0.9822,-0.9822,-0.9822,-0.9822,-0.9822,-0.9822,-0.9822,-0.9822,-0.9822,-0.9822,-0.9822,-0.9822,-0.9822,-0.9822,-0.9822,-0.9822,-0.9822,-0.9822,-0.9822,-0.9822,-0.9822,-0.9822,-0.9822,-0.9822,-0.9822,-0.9883,-0.9943,-1.0004,-1.0065,0.6213,0.6023,0.5752,0.5365,0.5087,0.4836,0.4559,0.4559,0.4621,0.4621,0.0,0.0,0.0,0.0,0.0,0.0,0.3528,0.3253,0.2888,0.2616,0.2041,0.1024,0.0673,0.0385,0.0044,0.0,0.0,0.0,0.0,0.0,0.0,0.0,0.0,0.0,0.0,0.0,0.0,0.0,0.0,0.0,0.0,0.0,0.0,0.0,0.0,0.0,0.0,0.0,0.0,0.0,0.0,0.0,0.0,0.0,0.0,0.0,0.0,0.0,0.0,0.0,0.0,0.0,0.0,0.0,0.0,0.0,0.0,0.0,0.0,-0.0123,-0.0556,-0.1296,-0.2033,-0.2464,-0.32,-0.3999,-0.4616,-0.5533,-0.6512,-0.7373,-0.8421,-0.9275,-0.9457,-0.97,-0.9822,-0.9822,-0.9822,-0.9822,-0.9822,-0.9822,-0.9822,-0.9822,-0.9822,-0.9822,-0.9822,-0.9822,-0.9822,-0.9822,-0.9822,-0.9822,-0.9822,-0.9822,-0.9822,-0.9822,-0.9822,-0.9822,-0.9822,-0.9822,-0.9822,-0.9822,-0.9822,-0.9822,0.6627,0.6349,0.5996,0.5617,0.523,0.4897,0.4621,0.4641,0.4694,0.4694,0.4809,0.0,0.0,0.0,0.4484,0.4222,0.0,0.3851,0.3649,0.3339,0.2716,0.1556,0.1046,0.0637,0.0243,0.0165,0.0126,0.0087,0.0045,0.0,0.0,0.0,0.0,0.0,0.0,0.0,0.0,0.0,0.0,0.0,0.0,0.0,0.0,0.0,0.0,0.0,0.0,0.0,0.0,0.0,0.0,0.0,0.0,0.0,0.0,0.0,0.0,0.0,0.0,0.0,0.0,0.0,0.0,0.0,0.0,0.0,0.0,0.0,0.0,-0.0062,-0.0309,-0.074,-0.1171,-0.1419,-0.1849,-0.2341,-0.2958,-0.3879,-0.492,-0.6027,-0.7439,-0.8538,-0.897,-0.9457,-0.9822,-0.9822,-0.9822,-0.9822,-0.9822,-0.9822,-0.9822,-0.9822,-0.9822,-0.9822,-0.9822,-0.9822,-0.9822,-0.9822,-0.9822,-0.9822,-0.9822,-0.9822,-0.9822,-0.9822,-0.9822,-0.9822,-0.9822,-0.9822,-0.9822,-0.9822,-0.9822,-0.9822,0.6869,0.6593,0.6218,0.5867,0.5454,0.5015,0.4748,0.4687,0.4694,0.4694,0.4809,0.4887,0.4887,0.4796,0.4687,0.4687,0.4565,0.0,0.0,0.4058,0.3383,0.2288,0.1487,0.0915,0.0695,0.055,0.0412,0.0315,0.0118,0.0,0.0,0.0,0.0,0.0,0.0,0.0,0.0,0.0,0.0,0.0,0.0,0.0,0.0,0.0,0.0,0.0,0.0,0.0,0.0,0.0,0.0,0.0,0.0,0.0,0.0,0.0,0.0,0.0,0.0,0.0,0.0,0.0,0.0,0.0,0.0,0.0,0.0,0.0,0.0,0.0,0.0,-0.0062,-0.0062,-0.0062,-0.0062,-0.0309,-0.0926,-0.1911,-0.2954,-0.4247,-0.608,-0.7667,-0.8294,-0.9207,-0.9822,-0.9822,-0.9822,-0.9822,-0.9822,-0.9822,-0.9822,-0.9822,-0.9822,-0.9822,-0.9822,-0.9822,-0.9822,-0.9822,-0.9822,-0.9822,-0.9822,-0.9822,-0.9822,-0.9822,-0.9822,-0.9822,-0.9822,-0.9822,-0.9822,-0.9822,-0.9822,-0.9822,0.691,0.6668,0.6368,0.6023,0.5616,0.523,0.5026,0.4948,0.5013,0.5146,0.5257,0.5393,0.5488,0.5298,0.5132,0.4999,0.4775,0.4607,0.0,0.4006,0.3436,0.2869,0.2113,0.1599,0.1436,0.1111,0.0804,0.0566,0.0217,0.0,0.0,0.0,0.0,0.0,0.0,0.0,0.0,0.0,0.0,0.0,0.0,0.0,0.0,0.0,0.0,0.0,0.0,0.0,0.0,0.0,0.0,0.0,0.0,0.0,0.0,0.0,0.0,0.0,0.0,0.0,0.0,0.0,0.0,0.0,0.0,0.0,0.0,0.0,0.0,0.0,0.0,0.0,0.0,0.0,0.0,-0.0123,-0.0556,-0.1296,-0.2156,-0.3264,-0.4858,-0.6267,-0.695,-0.7872,-0.8848,-0.97,-0.9822,-0.9822,-0.9822,-0.9822,-0.9822,-0.9822,-0.9822,-0.9822,-0.9822,-0.9822,-0.9822,-0.9822,-0.9822,-0.9822,-0.9822,-0.9822,-0.9822,-0.9822,-0.9822,-0.9822,-0.9822,-0.9822,-0.9822,-0.9822,-0.9822,-0.9822,0.7109,0.6865,0.6573,0.6329,0.5928,0.5549,0.5338,0.5291,0.5318,0.5453,0.5603,0.5793,0.5935,0.5713,0.5426,0.5237,0.4918,0.4619,0.0,0.4061,0.3712,0.3455,0.2785,0.2267,0.2083,0.1686,0.133,0.0975,0.0432,0.0141,0.0195,0.026,0.0326,0.0388,0.0522,0.0598,0.0602,0.0612,0.0617,0.0617,0.0617,0.0617,0.0617,0.0617,0.0561,0.0449,0.0336,0.028,0.0112,0.0057,0.0,0.0,0.0,0.0,0.0,0.0,0.0,0.0,0.0,0.0,0.0,0.0,0.0,0.0,0.0,0.0,0.0,0.0,0.0,0.0,0.0,0.0,0.0,0.0,0.0,-0.0062,-0.0247,-0.0679,-0.1233,-0.2096,-0.3384,-0.4551,-0.523,-0.6149,-0.7373,-0.9025,-0.9396,-0.9457,-0.9579,-0.97,-0.9822,-0.9822,-0.9822,-0.9822,-0.9822,-0.9822,-0.9822,-0.9822,-0.9822,-0.9822,-0.9822,-0.9822,-0.9822,-0.9822,-0.9822,-0.9822,-0.9822,-0.9822,-0.9822,-0.9822,-0.9822,-0.9822]}]]